[[{"header":{"parameterUnit":"m.s-1","parameterCategory":1,"la1":31.0,"la2":29.5877,"lo1":-88.7671,"lo2":-86.6584,"dy":0.0162,"dx":0.0185,"nx":115,"ny":88,"refTime":"2024-05-19T06:00:00:Z","depth":0,"parameterNumber":2,"parameterNumberName":"U-component_of_WINDS"},"data":[0.0,0.0,0.0,0.0,0.0,0.0,0.0,0.0,0.0,0.0,0.0,0.0,0.0,0.0,0.0,0.0,0.0,0.0,0.0,0.0,0.0,0.0,0.0,0.0,0.0,0.0,0.0,0.0,0.0,0.0,0.0,0.0,0.0,0.0,0.0,0.0,0.0,0.0,0.0,0.0,0.0,0.0,0.0,0.0,0.0,0.0,0.0,0.0,0.0,0.0,0.0,0.0,0.0,0.0,0.0,0.0,0.0,0.0,0.0,0.0,0.0,0.0,0.0,0.0,0.0,0.0,0.0,0.0,0.0,0.0,0.0,0.0,0.0,0.0,0.0,0.0,0.0,0.0,0.0,0.0,0.0,0.0,0.0,0.0,0.0,0.0,0.0,0.0,0.0,0.0,0.0,0.0,0.0,0.0,0.0,0.0,0.0,0.0,0.0,0.0,0.0,0.0,0.0,0.0,0.0,0.0,0.0,0.0,0.0,0.0,0.0,0.0,0.0,0.0,0.0,0.0,0.0,0.0,0.0,0.0,0.0,0.0,0.0,0.0,0.0,0.0,0.0,0.0,0.0,0.0,0.0,0.0,0.0,0.0,0.0,0.0,0.0,0.0,0.0,0.0,0.0,0.0,0.0,0.0,0.0,0.0,0.0,0.0,0.0,0.0,0.0,0.0,0.0,0.0,0.0,0.0,0.0,0.0,0.0,0.0,0.0,0.0,0.0,0.0,0.0,0.0,0.0,0.0,0.0,0.0,0.0,0.0,0.0,0.0,0.0,0.0,0.0,0.0,0.0,0.0,0.0,0.0,0.0,0.0,0.0,0.0,0.0,0.0,0.0,0.0,0.0,0.0,0.0,0.0,0.0,0.0,0.0,0.0,0.0,0.0,0.0,0.0,0.0,0.0,0.0,0.0,0.0,0.0,0.0,0.0,0.0,0.0,0.0,0.0,0.0,0.0,0.0,0.0,0.0,0.0,0.0,0.0,0.0,0.0,0.0,0.0,0.0,0.0,0.0,0.0,0.0,0.0,0.0,0.0,0.0,0.0,0.0,0.0,0.0,0.0,0.0,0.0,0.0,0.0,0.0,0.0,0.0,0.0,0.0,0.0,0.0,0.0,0.0,0.0,0.0,0.0,0.0,0.0,0.0,0.0,0.0,0.0,0.0,0.0,0.0,0.0,0.0,0.0,0.0,0.0,0.0,0.0,0.0,0.0,0.0,0.0,0.0,0.0,0.0,0.0,0.0,0.0,0.0,0.0,0.0,0.0,0.0,0.0,0.0,0.0,0.0,0.0,0.0,0.0,0.0,0.0,0.0,0.0,0.0,0.0,0.0,0.0,0.0,0.0,0.0,0.0,0.0,0.0,0.0,0.0,0.0,0.0,0.0,0.0,0.0,0.0,0.0,0.0,0.0,0.0,0.0,0.0,0.0,0.0,0.0,0.0,0.0,0.0,0.0,0.0,0.0,0.0,0.0,0.0,0.0,0.0,0.0,0.0,0.0,0.0,0.0,0.0,0.0,0.0,0.0,0.0,0.0,0.0,0.0,0.0,0.0,0.0,0.0,0.0,0.0,0.0,0.0,0.0,0.0,0.0,0.0,0.0,0.0,0.0,0.0,0.0,0.0,0.0,0.0,0.0,0.0,0.0,0.0,0.0,0.0,0.0,0.0,0.0,0.0,0.0,0.0,0.0,0.0,0.0,0.0,0.0,0.0,0.0,0.0,0.0,0.0,0.0,0.0,0.0,0.0,0.0,0.0,0.0,0.0,0.0,0.0,0.0,0.0,0.0,0.0,0.0,0.0,0.0,0.0,0.0,0.0,0.0,0.0,0.0,0.0,0.0,0.0,0.0,0.0,0.0,0.0,0.0,0.0,0.0,0.0,0.0,0.0,0.0,0.0,0.0,0.0,0.0,0.0,0.0,0.0,0.0,0.0,0.0,0.0,0.0,0.0,0.0,0.0,0.0,0.0,0.0,0.0,0.0,0.0,0.0,0.0,0.0,0.0,0.0,0.0,0.0,0.0,0.0,0.0,0.0,0.0,0.0,0.0,0.0,0.0,0.0,0.0,0.0,0.0,0.0,0.0,0.0,0.0,0.0,0.0,0.0,0.0,0.0,0.0,0.0,0.0,0.0,0.0,0.0,0.0,0.0,0.0,0.0,0.0,0.0,0.0,0.0,0.0,0.0,0.0,0.0,0.0,0.0,0.0,0.0,0.0,0.0,0.0,0.0,0.0,0.0,0.0,0.0,0.0,0.0,0.0,0.0,0.0,0.0,0.0,0.0,0.0,0.0,0.0,0.0,0.0,0.0,0.0,0.0,0.0,0.0,0.0,0.0,0.0,0.0,0.0,0.0,0.0,0.0,0.0,0.0,0.0,0.0,0.0,0.0,0.0,0.0,0.0,0.0,0.0,0.0,0.0,0.0,0.0,0.0,0.0,0.0,0.0,0.0,0.0,0.0,0.0,0.0,0.0,0.0,0.0,0.0,0.0,0.0,0.0,0.0,0.0,0.0,0.0,0.0,0.0,0.0,0.0,0.0,0.0,0.0,0.0,0.0,0.0,0.0,0.0,0.0,0.0,0.0,0.0,0.0,0.0,0.0,0.0,0.0,0.0,0.0,0.0,0.0,0.0,0.0,0.0,0.0,0.0,0.0,0.0,0.0,0.0,0.0,0.0,0.0,0.0,0.0,0.0,0.0,0.0,0.0,0.0,0.0,0.0,0.0,0.0,0.0,0.0,0.0,0.0,0.0,0.0,0.0,0.0,0.0,0.0,0.0,0.0,0.0,0.0,0.0,0.0,0.0,0.0,0.0,0.0,0.0,0.0,0.0,0.0,0.0,0.0,0.0,0.0,0.0,0.0,0.0,0.0,0.0,0.0,0.0,0.0,0.0,0.0,0.0,0.0,0.0,0.0,0.0,0.0,0.0,0.0,0.0,0.0,0.0,0.0,0.0,0.0,0.0,0.0,0.0,0.0,0.0,0.0,0.0,0.0,0.0,0.0,0.0,0.0,0.0,0.0,0.0,0.0,0.0,0.0,0.0,0.0,0.0,0.0,0.0,0.0,0.0,0.0,0.0,0.0,0.0,0.0,0.0,0.0,0.0,0.0,0.0,0.0,0.0,0.0,0.0,0.0,0.0,0.0,0.0,0.0,0.0,0.0,0.0,0.0,0.0,0.0,0.0,0.0,0.0,0.0,0.0,0.0,0.0,0.0,0.0,0.0,0.0,0.0,0.0,0.0,0.0,0.0,0.0,0.0,0.0,0.0,0.0,0.0,0.0,0.0,0.0,0.0,0.0,0.0,0.0,0.0,0.0,0.0,0.0,0.0,0.0,0.0,0.0,0.0,0.0,0.0,0.0,0.0,0.0,0.0,0.0,0.0,0.0,0.0,0.0,0.0,0.0,0.0,0.0,0.0,0.0,0.0,0.0,0.0,0.0,0.0,0.0,0.0,0.0,0.0,0.0,0.0,0.0,0.0,0.0,0.0,0.0,0.0,0.0,0.0,0.0,0.0,0.0,0.0,0.0,0.0,0.0,0.0,0.0,0.0,0.0,0.0,0.0,0.0,0.0,0.0,0.0,0.0,0.0,0.0,0.0,0.0,0.0,0.0,0.0,0.0,0.0,0.0,0.0,0.0,0.0,0.0,0.0,0.0,0.0,0.0,0.0,0.0,0.0,0.0,0.0,0.0,0.0,0.0,0.0,0.0,0.0,0.0,0.0,0.0,0.0,0.0,0.0,0.0,0.0,0.0,0.0,0.0,0.0,0.0,0.0,0.0,0.0,0.0,0.0,0.0,0.0,0.0,0.0,0.0,0.0,0.0,0.0,0.0,0.0,0.0,0.0,0.0,0.0,0.0,0.0,0.0,0.0,0.0,0.0,0.0,0.0,0.0,0.0,0.0,0.0,0.0,0.0,0.0,0.0,0.0,0.0,0.0,0.0,0.0,0.0,0.0,0.0,0.0,0.0,0.0,0.0,0.0,0.0,0.0,0.0,0.0,0.0,0.0,0.0,0.0,0.0,0.0,0.0,0.0,0.0,0.0,0.0,0.0,0.0,0.0,0.0,0.0,0.0,0.0,0.0,0.0,0.0,0.0,0.0,0.0,0.0,0.0,0.0,0.0,0.0,0.0,0.0,0.0,0.0,0.0,0.0,0.0,0.0,0.0,0.0,0.0,0.0,0.0,0.0,0.0,0.0,0.0,0.0,0.0,0.0,0.0,0.0,0.0,0.0,0.0,0.0,0.0,0.0,0.0,0.0,0.0,0.0,-3.7719,0.0,0.0,0.0,0.0,0.0,0.0,0.0,0.0,0.0,0.0,0.0,0.0,0.0,0.0,0.0,0.0,0.0,0.0,0.0,0.0,0.0,0.0,0.0,0.0,0.0,0.0,0.0,0.0,0.0,0.0,0.0,0.0,0.0,0.0,0.0,0.0,0.0,0.0,0.0,0.0,0.0,0.0,0.0,0.0,0.0,0.0,0.0,0.0,0.0,0.0,0.0,0.0,0.0,0.0,0.0,0.0,0.0,0.0,0.0,0.0,0.0,0.0,0.0,0.0,0.0,0.0,0.0,0.0,0.0,0.0,0.0,0.0,0.0,0.0,0.0,0.0,0.0,0.0,0.0,0.0,0.0,0.0,0.0,0.0,0.0,0.0,0.0,0.0,0.0,0.0,0.0,0.0,0.0,0.0,0.0,0.0,0.0,0.0,0.0,0.0,0.0,0.0,0.0,0.0,0.0,0.0,0.0,0.0,0.0,0.0,-4.2027,-4.2489,-4.1662,-4.0412,-3.8738,0.0,0.0,0.0,0.0,0.0,0.0,0.0,0.0,0.0,0.0,0.0,0.0,0.0,0.0,0.0,0.0,0.0,0.0,0.0,0.0,0.0,0.0,0.0,0.0,0.0,0.0,0.0,0.0,0.0,0.0,0.0,0.0,0.0,0.0,0.0,0.0,0.0,0.0,0.0,0.0,0.0,0.0,0.0,0.0,0.0,0.0,0.0,0.0,0.0,0.0,0.0,0.0,0.0,0.0,0.0,0.0,0.0,0.0,0.0,0.0,0.0,0.0,0.0,0.0,0.0,0.0,0.0,0.0,0.0,0.0,0.0,0.0,0.0,0.0,0.0,0.0,0.0,0.0,0.0,0.0,0.0,0.0,0.0,0.0,0.0,0.0,0.0,0.0,0.0,0.0,0.0,0.0,0.0,0.0,0.0,0.0,0.0,0.0,0.0,0.0,0.0,0.0,0.0,0.0,0.0,0.0,0.0,0.0,0.0,0.0,0.0,0.0,-4.2712,-4.1393,-3.9342,0.0,0.0,0.0,0.0,0.0,0.0,0.0,0.0,0.0,0.0,0.0,0.0,0.0,0.0,0.0,0.0,0.0,0.0,0.0,0.0,0.0,0.0,0.0,0.0,0.0,0.0,0.0,0.0,0.0,0.0,0.0,0.0,0.0,0.0,0.0,0.0,0.0,0.0,0.0,0.0,0.0,0.0,0.0,0.0,0.0,0.0,0.0,0.0,0.0,0.0,0.0,0.0,0.0,0.0,0.0,0.0,0.0,0.0,0.0,0.0,0.0,0.0,0.0,0.0,0.0,0.0,0.0,0.0,0.0,0.0,0.0,0.0,0.0,0.0,0.0,0.0,0.0,0.0,0.0,0.0,0.0,0.0,0.0,0.0,0.0,0.0,0.0,0.0,0.0,0.0,0.0,0.0,0.0,0.0,0.0,0.0,0.0,0.0,0.0,0.0,0.0,0.0,0.0,0.0,0.0,0.0,0.0,0.0,0.0,0.0,-4.3374,-4.4162,-4.4085,0.0,-3.9457,0.0,0.0,0.0,0.0,0.0,0.0,0.0,0.0,0.0,0.0,0.0,0.0,0.0,0.0,0.0,0.0,0.0,0.0,0.0,0.0,0.0,0.0,0.0,0.0,0.0,0.0,0.0,0.0,0.0,0.0,0.0,0.0,0.0,0.0,0.0,0.0,0.0,0.0,0.0,0.0,0.0,0.0,0.0,0.0,0.0,0.0,0.0,0.0,0.0,0.0,0.0,0.0,0.0,0.0,0.0,0.0,0.0,0.0,0.0,0.0,0.0,0.0,0.0,0.0,0.0,0.0,0.0,0.0,0.0,0.0,0.0,0.0,0.0,0.0,0.0,0.0,0.0,0.0,0.0,0.0,0.0,0.0,0.0,0.0,0.0,0.0,0.0,0.0,0.0,0.0,0.0,0.0,0.0,0.0,0.0,0.0,0.0,0.0,0.0,0.0,0.0,0.0,0.0,0.0,0.0,0.0,0.0,0.0,0.0,0.0,-4.422,-4.5056,-4.3113,-4.1189,0.0,0.0,0.0,0.0,0.0,0.0,0.0,0.0,0.0,0.0,0.0,0.0,0.0,0.0,0.0,0.0,0.0,0.0,0.0,0.0,0.0,0.0,0.0,0.0,0.0,0.0,0.0,0.0,0.0,0.0,0.0,0.0,0.0,0.0,0.0,0.0,0.0,0.0,0.0,0.0,0.0,0.0,0.0,0.0,0.0,0.0,0.0,0.0,0.0,0.0,0.0,0.0,0.0,0.0,0.0,0.0,0.0,0.0,0.0,0.0,0.0,0.0,0.0,0.0,0.0,0.0,0.0,0.0,0.0,0.0,0.0,0.0,0.0,0.0,0.0,0.0,0.0,0.0,0.0,0.0,0.0,0.0,0.0,0.0,0.0,0.0,0.0,0.0,0.0,0.0,0.0,0.0,0.0,0.0,0.0,0.0,0.0,0.0,0.0,0.0,0.0,0.0,0.0,0.0,0.0,0.0,0.0,0.0,0.0,0.0,-4.3893,-4.4605,-4.5086,-4.3094,-4.1093,-3.9342,0.0,0.0,0.0,0.0,0.0,0.0,0.0,0.0,0.0,0.0,0.0,0.0,0.0,0.0,0.0,0.0,0.0,0.0,0.0,0.0,0.0,0.0,0.0,0.0,0.0,0.0,0.0,0.0,0.0,0.0,0.0,0.0,0.0,0.0,0.0,0.0,0.0,0.0,0.0,0.0,0.0,0.0,0.0,0.0,0.0,0.0,0.0,0.0,0.0,0.0,0.0,0.0,0.0,0.0,0.0,0.0,0.0,0.0,0.0,0.0,0.0,0.0,0.0,0.0,0.0,0.0,0.0,0.0,0.0,0.0,0.0,0.0,0.0,0.0,0.0,0.0,0.0,0.0,0.0,0.0,0.0,0.0,0.0,0.0,0.0,0.0,0.0,0.0,0.0,0.0,0.0,0.0,0.0,0.0,0.0,0.0,0.0,0.0,0.0,0.0,0.0,0.0,0.0,0.0,0.0,0.0,0.0,0.0,-4.3085,-4.3893,-4.4316,-4.4412,-4.4998,-4.3459,0.0,0.0,0.0,0.0,0.0,0.0,0.0,0.0,0.0,0.0,0.0,0.0,0.0,0.0,0.0,0.0,0.0,0.0,0.0,0.0,0.0,0.0,0.0,0.0,0.0,0.0,0.0,0.0,0.0,0.0,0.0,0.0,0.0,0.0,0.0,0.0,0.0,0.0,0.0,0.0,0.0,0.0,0.0,0.0,0.0,0.0,0.0,0.0,0.0,0.0,0.0,0.0,0.0,0.0,0.0,0.0,0.0,0.0,0.0,0.0,0.0,0.0,0.0,0.0,0.0,0.0,0.0,0.0,0.0,0.0,0.0,0.0,0.0,0.0,0.0,0.0,0.0,0.0,0.0,0.0,0.0,0.0,0.0,0.0,0.0,0.0,0.0,0.0,0.0,0.0,0.0,0.0,0.0,0.0,0.0,0.0,0.0,0.0,0.0,0.0,0.0,0.0,0.0,0.0,0.0,0.0,0.0,0.0,0.0,-4.3874,-4.469,-4.5133,-4.5094,-4.3344,-4.1612,0.0,0.0,0.0,0.0,0.0,0.0,0.0,0.0,0.0,0.0,0.0,0.0,0.0,0.0,0.0,0.0,0.0,0.0,0.0,0.0,0.0,0.0,0.0,0.0,0.0,0.0,0.0,0.0,0.0,0.0,0.0,0.0,0.0,0.0,0.0,0.0,0.0,0.0,0.0,0.0,0.0,0.0,0.0,0.0,0.0,0.0,0.0,0.0,0.0,0.0,0.0,0.0,0.0,0.0,0.0,0.0,0.0,0.0,0.0,0.0,0.0,0.0,0.0,0.0,0.0,0.0,0.0,0.0,0.0,0.0,0.0,0.0,0.0,0.0,0.0,0.0,0.0,0.0,0.0,0.0,0.0,0.0,0.0,0.0,0.0,0.0,0.0,0.0,0.0,0.0,0.0,0.0,0.0,0.0,0.0,0.0,0.0,0.0,0.0,0.0,0.0,0.0,0.0,0.0,0.0,0.0,0.0,0.0,0.0,-4.471,0.0,-4.5479,0.0,-4.294,-4.1227,0.0,0.0,0.0,0.0,0.0,0.0,0.0,0.0,0.0,0.0,0.0,0.0,0.0,0.0,0.0,0.0,0.0,0.0,0.0,0.0,0.0,0.0,0.0,0.0,0.0,0.0,0.0,0.0,0.0,0.0,0.0,0.0,0.0,0.0,0.0,0.0,0.0,0.0,0.0,0.0,0.0,0.0,0.0,0.0,0.0,0.0,0.0,0.0,0.0,0.0,0.0,0.0,0.0,0.0,0.0,0.0,0.0,0.0,0.0,0.0,0.0,0.0,0.0,0.0,0.0,0.0,0.0,0.0,0.0,0.0,0.0,0.0,0.0,0.0,0.0,0.0,0.0,0.0,0.0,0.0,0.0,0.0,0.0,0.0,0.0,0.0,0.0,0.0,0.0,0.0,0.0,0.0,0.0,0.0,0.0,0.0,0.0,0.0,0.0,0.0,0.0,0.0,0.0,0.0,0.0,0.0,0.0,0.0,-4.472,-4.5537,-4.5594,-4.5229,-4.4374,-4.4182,-4.2651,0.0,0.0,0.0,0.0,0.0,0.0,0.0,0.0,0.0,0.0,0.0,0.0,0.0,0.0,0.0,0.0,0.0,0.0,0.0,0.0,0.0,0.0,0.0,0.0,0.0,0.0,0.0,0.0,0.0,0.0,0.0,0.0,0.0,0.0,0.0,0.0,0.0,0.0,0.0,0.0,0.0,0.0,0.0,0.0,0.0,0.0,0.0,0.0,0.0,0.0,0.0,0.0,0.0,0.0,0.0,0.0,0.0,0.0,0.0,0.0,0.0,0.0,0.0,0.0,0.0,0.0,0.0,0.0,0.0,0.0,0.0,0.0,0.0,0.0,0.0,0.0,0.0,0.0,0.0,0.0,0.0,0.0,0.0,0.0,0.0,0.0,0.0,0.0,0.0,0.0,0.0,0.0,0.0,0.0,0.0,0.0,0.0,0.0,0.0,0.0,0.0,0.0,0.0,0.0,0.0,0.0,0.0,0.0,0.0,-4.5594,-4.5594,-4.546,-4.5143,-4.3508,-4.2085,0.0,0.0,0.0,0.0,0.0,0.0,0.0,0.0,0.0,0.0,0.0,0.0,0.0,0.0,0.0,0.0,0.0,0.0,0.0,0.0,0.0,0.0,0.0,0.0,0.0,0.0,0.0,0.0,0.0,0.0,0.0,0.0,0.0,0.0,0.0,0.0,0.0,0.0,0.0,0.0,0.0,0.0,0.0,0.0,0.0,0.0,0.0,0.0,0.0,0.0,0.0,0.0,0.0,0.0,0.0,0.0,0.0,0.0,0.0,0.0,0.0,0.0,0.0,0.0,0.0,0.0,0.0,0.0,0.0,0.0,0.0,0.0,0.0,0.0,0.0,0.0,0.0,0.0,0.0,0.0,0.0,0.0,0.0,0.0,0.0,0.0,0.0,0.0,0.0,0.0,0.0,0.0,0.0,0.0,0.0,0.0,0.0,0.0,0.0,0.0,0.0,0.0,0.0,0.0,0.0,0.0,0.0,0.0,0.0,-4.6067,-4.5768,-4.5768,-4.6067,-4.3893,-4.245,-4.1769,0.0,0.0,0.0,0.0,0.0,0.0,0.0,0.0,0.0,0.0,0.0,0.0,0.0,0.0,0.0,0.0,0.0,0.0,0.0,0.0,0.0,0.0,0.0,0.0,0.0,0.0,0.0,0.0,0.0,0.0,0.0,0.0,0.0,0.0,0.0,0.0,0.0,0.0,0.0,0.0,0.0,0.0,0.0,0.0,0.0,0.0,0.0,0.0,0.0,0.0,0.0,0.0,0.0,0.0,0.0,0.0,0.0,0.0,0.0,0.0,0.0,0.0,0.0,0.0,0.0,0.0,0.0,0.0,0.0,0.0,0.0,0.0,0.0,0.0,0.0,0.0,0.0,0.0,0.0,0.0,0.0,0.0,0.0,0.0,0.0,0.0,0.0,0.0,0.0,0.0,0.0,0.0,0.0,0.0,0.0,0.0,0.0,0.0,0.0,0.0,0.0,0.0,0.0,0.0,0.0,0.0,0.0,0.0,-4.6971,-4.6124,-4.6067,-4.6827,-4.524,-4.3585,0.0,0.0,0.0,0.0,0.0,0.0,0.0,0.0,0.0,0.0,0.0,0.0,0.0,0.0,0.0,0.0,0.0,0.0,0.0,0.0,0.0,0.0,0.0,0.0,0.0,0.0,0.0,0.0,0.0,0.0,0.0,0.0,0.0,0.0,0.0,0.0,0.0,0.0,0.0,0.0,0.0,0.0,0.0,0.0,0.0,0.0,0.0,0.0,0.0,0.0,0.0,0.0,0.0,0.0,0.0,0.0,0.0,0.0,0.0,0.0,0.0,0.0,0.0,0.0,0.0,0.0,0.0,0.0,0.0,0.0,0.0,0.0,0.0,0.0,0.0,0.0,0.0,0.0,0.0,0.0,0.0,0.0,0.0,0.0,0.0,0.0,0.0,0.0,0.0,0.0,0.0,0.0,0.0,0.0,0.0,0.0,0.0,0.0,0.0,0.0,0.0,0.0,0.0,0.0,0.0,0.0,0.0,0.0,0.0,-4.7721,-4.699,-4.6673,-4.6865,-4.5836,-4.4479,0.0,0.0,0.0,0.0,0.0,0.0,0.0,0.0,0.0,0.0,0.0,0.0,0.0,0.0,0.0,0.0,0.0,0.0,0.0,0.0,0.0,0.0,0.0,0.0,0.0,0.0,0.0,0.0,0.0,0.0,0.0,0.0,0.0,0.0,0.0,0.0,0.0,0.0,0.0,0.0,0.0,0.0,0.0,0.0,0.0,0.0,0.0,0.0,0.0,0.0,0.0,0.0,0.0,0.0,0.0,0.0,0.0,0.0,0.0,0.0,0.0,0.0,0.0,0.0,0.0,0.0,0.0,0.0,0.0,0.0,0.0,0.0,0.0,0.0,0.0,0.0,0.0,0.0,0.0,0.0,0.0,0.0,0.0,0.0,0.0,0.0,0.0,0.0,0.0,0.0,0.0,0.0,0.0,0.0,0.0,0.0,0.0,0.0,0.0,0.0,0.0,0.0,0.0,0.0,0.0,0.0,0.0,0.0,-4.7615,-4.8096,-4.8355,-4.8163,-4.7423,-4.624,-4.4825,0.0,0.0,0.0,0.0,0.0,0.0,0.0,0.0,0.0,0.0,0.0,0.0,0.0,0.0,0.0,0.0,0.0,0.0,0.0,0.0,0.0,0.0,0.0,0.0,0.0,0.0,0.0,0.0,0.0,0.0,0.0,0.0,0.0,0.0,0.0,0.0,0.0,0.0,0.0,0.0,0.0,0.0,0.0,0.0,0.0,0.0,0.0,0.0,0.0,0.0,0.0,0.0,0.0,0.0,0.0,0.0,0.0,0.0,0.0,0.0,0.0,0.0,0.0,0.0,0.0,0.0,0.0,0.0,0.0,0.0,0.0,0.0,0.0,0.0,0.0,0.0,0.0,0.0,0.0,0.0,0.0,0.0,0.0,0.0,0.0,0.0,0.0,0.0,0.0,0.0,0.0,0.0,0.0,0.0,0.0,0.0,0.0,0.0,0.0,0.0,0.0,0.0,0.0,0.0,0.0,0.0,0.0,0.0,-4.8077,-4.8115,-4.9625,-4.9683,-4.8144,-4.6644,-4.4998,0.0,0.0,0.0,0.0,0.0,0.0,0.0,0.0,0.0,0.0,0.0,0.0,0.0,0.0,0.0,0.0,0.0,0.0,0.0,0.0,0.0,0.0,0.0,0.0,0.0,0.0,0.0,0.0,0.0,0.0,0.0,0.0,0.0,0.0,0.0,0.0,0.0,0.0,0.0,0.0,0.0,0.0,0.0,0.0,0.0,0.0,0.0,0.0,0.0,0.0,0.0,0.0,0.0,0.0,0.0,0.0,0.0,0.0,0.0,0.0,0.0,0.0,0.0,0.0,0.0,0.0,0.0,0.0,0.0,0.0,0.0,0.0,0.0,0.0,0.0,0.0,0.0,0.0,0.0,0.0,0.0,0.0,0.0,0.0,0.0,0.0,0.0,0.0,0.0,0.0,0.0,0.0,0.0,0.0,0.0,0.0,0.0,0.0,0.0,0.0,0.0,0.0,0.0,0.0,0.0,0.0,0.0,0.0,-4.7851,-4.8096,-4.8452,-4.8471,-4.8096,-4.7759,-4.6163,0.0,0.0,0.0,0.0,0.0,0.0,0.0,0.0,0.0,0.0,0.0,0.0,0.0,0.0,0.0,0.0,0.0,0.0,0.0,0.0,0.0,0.0,0.0,0.0,0.0,0.0,0.0,0.0,0.0,0.0,0.0,0.0,0.0,0.0,0.0,0.0,0.0,0.0,0.0,0.0,0.0,0.0,0.0,0.0,0.0,0.0,0.0,0.0,-3.9315,0.0,0.0,0.0,0.0,0.0,0.0,0.0,0.0,0.0,0.0,0.0,0.0,0.0,0.0,0.0,0.0,0.0,0.0,0.0,0.0,0.0,0.0,0.0,0.0,0.0,0.0,0.0,0.0,0.0,0.0,0.0,0.0,0.0,0.0,0.0,0.0,0.0,0.0,0.0,0.0,0.0,0.0,0.0,0.0,0.0,0.0,0.0,0.0,0.0,0.0,0.0,0.0,0.0,0.0,0.0,0.0,0.0,0.0,0.0,-4.7485,-4.7278,-4.8222,-4.8336,-4.7577,-4.7338,-4.5947,0.0,0.0,0.0,0.0,0.0,0.0,0.0,0.0,0.0,0.0,0.0,0.0,0.0,0.0,0.0,0.0,0.0,0.0,0.0,0.0,0.0,0.0,0.0,0.0,0.0,0.0,0.0,0.0,0.0,0.0,0.0,0.0,0.0,0.0,0.0,0.0,0.0,0.0,0.0,0.0,0.0,0.0,0.0,0.0,0.0,0.0,0.0,0.0,0.0,0.0,0.0,0.0,0.0,0.0,0.0,0.0,0.0,0.0,0.0,0.0,0.0,0.0,0.0,0.0,0.0,0.0,0.0,0.0,0.0,0.0,0.0,0.0,0.0,0.0,0.0,0.0,0.0,0.0,0.0,0.0,0.0,0.0,0.0,0.0,0.0,0.0,0.0,0.0,0.0,0.0,0.0,0.0,0.0,0.0,0.0,0.0,0.0,0.0,0.0,0.0,0.0,0.0,0.0,0.0,0.0,0.0,0.0,-4.6202,-4.6808,-4.631,-4.7935,-4.8173,-4.6772,-4.6279,-4.5095,-4.3094,0.0,0.0,0.0,0.0,0.0,0.0,0.0,0.0,0.0,0.0,0.0,0.0,0.0,0.0,0.0,0.0,0.0,0.0,0.0,0.0,0.0,0.0,0.0,0.0,0.0,0.0,0.0,0.0,0.0,0.0,0.0,0.0,0.0,0.0,0.0,0.0,0.0,0.0,-3.7915,-3.9918,0.0,0.0,0.0,0.0,0.0,0.0,0.0,0.0,-4.163,0.0,0.0,0.0,0.0,0.0,0.0,0.0,0.0,0.0,0.0,0.0,0.0,0.0,0.0,0.0,0.0,0.0,0.0,0.0,0.0,0.0,0.0,0.0,0.0,0.0,0.0,0.0,0.0,0.0,0.0,0.0,0.0,0.0,0.0,0.0,0.0,0.0,0.0,0.0,0.0,0.0,0.0,0.0,0.0,0.0,0.0,0.0,0.0,0.0,0.0,0.0,0.0,0.0,0.0,0.0,0.0,-4.405,-4.4485,-4.5063,-4.586,-4.6222,-4.6247,-4.5969,-4.5275,-4.4154,-4.2705,0.0,0.0,0.0,0.0,0.0,0.0,0.0,0.0,0.0,0.0,0.0,0.0,0.0,0.0,0.0,0.0,0.0,0.0,0.0,0.0,0.0,0.0,0.0,0.0,0.0,0.0,0.0,0.0,0.0,0.0,0.0,0.0,0.0,0.0,0.0,0.0,0.0,0.0,0.0,-4.1425,-4.2194,0.0,0.0,0.0,0.0,0.0,0.0,0.0,0.0,-4.1628,0.0,0.0,0.0,0.0,0.0,0.0,0.0,0.0,0.0,0.0,0.0,0.0,0.0,0.0,0.0,0.0,0.0,0.0,0.0,0.0,0.0,0.0,0.0,0.0,0.0,0.0,0.0,0.0,0.0,0.0,0.0,0.0,0.0,0.0,0.0,0.0,0.0,0.0,0.0,0.0,0.0,0.0,0.0,0.0,0.0,0.0,0.0,0.0,0.0,0.0,0.0,0.0,0.0,0.0,0.0,-4.3077,-4.4163,-4.4767,-4.489,-4.548,-4.5593,-4.5159,-4.4194,-4.3232,0.0,0.0,0.0,0.0,0.0,0.0,0.0,0.0,0.0,0.0,0.0,0.0,0.0,0.0,0.0,0.0,0.0,0.0,0.0,0.0,0.0,0.0,0.0,0.0,0.0,0.0,0.0,0.0,0.0,0.0,0.0,0.0,0.0,0.0,0.0,0.0,0.0,0.0,0.0,0.0,-4.1425,-4.1992,-4.2818,0.0,0.0,0.0,0.0,0.0,0.0,-4.2653,-4.2063,0.0,0.0,0.0,0.0,0.0,0.0,0.0,0.0,0.0,0.0,0.0,0.0,0.0,0.0,0.0,0.0,0.0,0.0,0.0,0.0,0.0,0.0,0.0,0.0,0.0,0.0,0.0,0.0,0.0,0.0,0.0,0.0,0.0,0.0,0.0,0.0,0.0,0.0,0.0,0.0,0.0,0.0,0.0,0.0,0.0,0.0,0.0,0.0,0.0,0.0,0.0,0.0,0.0,0.0,0.0,-4.2321,-4.3881,-4.4445,-4.3965,-4.4841,-4.5036,-4.4383,-4.3457,-4.2636,0.0,0.0,0.0,0.0,0.0,0.0,0.0,0.0,0.0,0.0,0.0,0.0,0.0,0.0,0.0,0.0,0.0,0.0,0.0,0.0,0.0,0.0,0.0,0.0,0.0,0.0,0.0,0.0,0.0,0.0,0.0,0.0,0.0,0.0,0.0,0.0,0.0,0.0,0.0,0.0,0.0,-4.1992,-4.3111,-4.2929,0.0,0.0,0.0,0.0,-4.3679,-4.3137,0.0,0.0,0.0,0.0,0.0,0.0,0.0,0.0,0.0,0.0,0.0,0.0,0.0,0.0,0.0,0.0,0.0,0.0,0.0,0.0,0.0,0.0,0.0,0.0,0.0,0.0,0.0,0.0,0.0,0.0,0.0,0.0,0.0,0.0,0.0,0.0,0.0,0.0,0.0,0.0,0.0,0.0,0.0,0.0,0.0,0.0,0.0,0.0,0.0,0.0,0.0,0.0,0.0,0.0,0.0,0.0,-4.2231,-4.252,-4.2939,-4.351,-4.3689,-4.3723,-4.3631,-4.3488,-4.2878,0.0,0.0,0.0,0.0,0.0,0.0,0.0,0.0,0.0,0.0,0.0,0.0,0.0,0.0,0.0,0.0,0.0,0.0,0.0,0.0,0.0,0.0,0.0,0.0,0.0,0.0,0.0,0.0,0.0,0.0,0.0,0.0,0.0,0.0,0.0,0.0,0.0,0.0,0.0,0.0,0.0,-4.3039,-4.2506,-4.2391,-4.2625,0.0,0.0,-4.2673,-4.3422,-4.3352,0.0,0.0,0.0,0.0,0.0,0.0,0.0,0.0,0.0,0.0,0.0,0.0,0.0,0.0,0.0,0.0,0.0,0.0,0.0,0.0,0.0,0.0,0.0,0.0,0.0,0.0,0.0,0.0,0.0,0.0,0.0,0.0,0.0,0.0,0.0,0.0,0.0,0.0,0.0,0.0,0.0,0.0,0.0,0.0,0.0,0.0,0.0,0.0,0.0,0.0,0.0,0.0,0.0,0.0,0.0,-4.0469,-4.1607,-4.2525,-4.3149,-4.3496,-4.3479,-4.3479,-4.3479,-4.2616,-4.1671,0.0,0.0,0.0,0.0,0.0,0.0,0.0,0.0,0.0,0.0,0.0,0.0,0.0,0.0,0.0,0.0,0.0,0.0,0.0,0.0,0.0,0.0,0.0,0.0,0.0,0.0,0.0,0.0,0.0,0.0,0.0,0.0,0.0,0.0,0.0,0.0,0.0,0.0,0.0,0.0,0.0,0.0,-4.2892,-4.3146,0.0,0.0,0.0,-4.346,-4.4039,0.0,0.0,0.0,0.0,0.0,0.0,0.0,0.0,0.0,0.0,0.0,0.0,0.0,0.0,0.0,0.0,0.0,0.0,0.0,0.0,0.0,0.0,0.0,0.0,0.0,0.0,0.0,0.0,0.0,0.0,0.0,0.0,0.0,0.0,0.0,0.0,0.0,0.0,0.0,0.0,0.0,0.0,0.0,0.0,0.0,0.0,0.0,0.0,0.0,0.0,0.0,0.0,0.0,0.0,0.0,0.0,0.0,-4.1113,-4.269,-4.3479,-4.3479,-4.3479,-4.3479,-4.3461,-4.2139,0.0,0.0,0.0,0.0,0.0,0.0,0.0,0.0,0.0,0.0,0.0,0.0,0.0,0.0,0.0,0.0,0.0,0.0,0.0,0.0,0.0,0.0,0.0,0.0,0.0,0.0,0.0,-2.8349,0.0,0.0,0.0,0.0,0.0,0.0,0.0,0.0,0.0,0.0,0.0,0.0,0.0,0.0,-4.2066,-4.3057,-4.358,-4.3881,0.0,0.0,-4.3989,-4.428,-4.3852,-4.3221,0.0,0.0,0.0,0.0,0.0,0.0,0.0,0.0,0.0,0.0,0.0,0.0,0.0,0.0,0.0,0.0,0.0,0.0,0.0,0.0,0.0,0.0,0.0,0.0,0.0,0.0,0.0,0.0,0.0,0.0,0.0,0.0,0.0,0.0,0.0,0.0,0.0,0.0,0.0,0.0,0.0,0.0,0.0,0.0,0.0,0.0,0.0,0.0,0.0,0.0,0.0,0.0,0.0,0.0,0.0,-4.1113,-4.269,-4.3479,-4.3479,-4.3479,-4.3479,-4.3496,-4.2653,-4.1479,0.0,0.0,0.0,0.0,0.0,0.0,0.0,0.0,0.0,0.0,0.0,0.0,0.0,0.0,0.0,0.0,0.0,0.0,0.0,0.0,0.0,0.0,0.0,0.0,0.0,0.0,0.0,0.0,0.0,0.0,0.0,0.0,0.0,0.0,0.0,0.0,0.0,0.0,0.0,0.0,0.0,-4.3075,-4.247,-4.3036,-4.3531,0.0,0.0,-4.3548,-4.3563,-4.3796,-4.3511,-4.2241,0.0,0.0,0.0,0.0,0.0,0.0,0.0,0.0,0.0,0.0,0.0,0.0,0.0,0.0,0.0,0.0,0.0,0.0,0.0,0.0,0.0,0.0,0.0,0.0,0.0,0.0,0.0,0.0,0.0,0.0,0.0,0.0,0.0,0.0,0.0,0.0,0.0,0.0,0.0,0.0,0.0,0.0,0.0,0.0,0.0,0.0,0.0,0.0,0.0,0.0,0.0,0.0,0.0,-3.9082,-4.011,-4.1673,-4.2638,-4.2995,-4.3014,-4.316,-4.3479,-4.2249,-4.0667,0.0,0.0,0.0,0.0,0.0,0.0,0.0,0.0,0.0,0.0,0.0,0.0,0.0,0.0,0.0,0.0,0.0,0.0,0.0,0.0,0.0,0.0,0.0,0.0,0.0,0.0,0.0,0.0,-3.0869,-3.097,-3.1393,0.0,0.0,0.0,0.0,0.0,0.0,0.0,0.0,0.0,0.0,-4.2395,-4.2968,-4.3296,0.0,0.0,-4.3479,-4.3479,-4.3479,-4.3772,-4.3561,-4.2221,-4.2143,0.0,0.0,0.0,0.0,0.0,0.0,0.0,0.0,0.0,0.0,0.0,0.0,0.0,0.0,0.0,0.0,0.0,0.0,0.0,0.0,0.0,0.0,0.0,0.0,0.0,0.0,0.0,0.0,0.0,0.0,0.0,0.0,0.0,0.0,0.0,0.0,0.0,0.0,0.0,0.0,0.0,0.0,0.0,0.0,0.0,0.0,0.0,0.0,0.0,0.0,0.0,0.0,-3.8255,-3.9474,-4.1032,-4.2,-4.242,-4.244,-4.2617,-4.2941,-4.1669,-4.0058,0.0,0.0,0.0,0.0,0.0,0.0,0.0,0.0,0.0,0.0,0.0,0.0,0.0,0.0,0.0,0.0,0.0,0.0,0.0,0.0,0.0,0.0,0.0,0.0,0.0,0.0,0.0,0.0,-3.163,-3.1498,-3.2209,0.0,0.0,0.0,0.0,0.0,0.0,0.0,0.0,0.0,0.0,-4.2139,-4.3123,-4.3374,-4.3479,-4.3479,-4.3479,-4.3479,-4.3479,-4.3693,-4.3475,-4.242,0.0,0.0,0.0,0.0,0.0,0.0,0.0,0.0,0.0,0.0,0.0,0.0,0.0,0.0,0.0,0.0,0.0,0.0,0.0,0.0,0.0,0.0,0.0,0.0,0.0,0.0,0.0,0.0,0.0,0.0,-3.5583,0.0,0.0,0.0,0.0,0.0,0.0,0.0,0.0,0.0,0.0,0.0,0.0,0.0,0.0,0.0,0.0,0.0,0.0,0.0,0.0,0.0,0.0,-3.7971,-3.9474,-4.0972,-4.1771,-4.1793,-4.1832,-4.1814,-4.1856,-4.1049,-3.9878,-3.8321,0.0,0.0,0.0,0.0,0.0,0.0,0.0,0.0,0.0,0.0,0.0,0.0,0.0,0.0,0.0,0.0,0.0,0.0,0.0,0.0,0.0,0.0,0.0,0.0,0.0,0.0,-3.2293,-3.163,-3.1478,0.0,0.0,0.0,0.0,0.0,0.0,0.0,0.0,0.0,0.0,-4.1803,-4.2656,-4.2713,-4.316,-4.3462,-4.3479,-4.3479,-4.3479,-4.3479,-4.3496,-4.3356,0.0,0.0,0.0,0.0,0.0,0.0,0.0,0.0,0.0,0.0,0.0,0.0,0.0,0.0,0.0,0.0,0.0,0.0,0.0,0.0,0.0,0.0,0.0,0.0,0.0,0.0,0.0,-3.5867,-3.556,0.0,0.0,0.0,0.0,0.0,0.0,0.0,0.0,0.0,0.0,0.0,-3.7891,-3.7878,0.0,0.0,0.0,0.0,0.0,0.0,0.0,0.0,0.0,0.0,0.0,0.0,-3.7203,-3.8453,-3.9909,-4.0861,-4.1201,-4.1183,-4.1402,-4.1771,-4.1025,-3.9643,-3.7556,0.0,0.0,0.0,0.0,0.0,0.0,0.0,0.0,0.0,0.0,0.0,0.0,0.0,0.0,0.0,0.0,0.0,0.0,0.0,0.0,0.0,0.0,0.0,0.0,0.0,-3.2293,0.0,0.0,0.0,0.0,0.0,0.0,0.0,0.0,0.0,0.0,0.0,-3.8958,-4.0426,-4.1124,-4.1789,-4.2596,-4.2864,-4.3087,0.0,0.0,0.0,0.0,0.0,0.0,0.0,0.0,0.0,0.0,0.0,0.0,0.0,0.0,-3.863,-3.7729,-3.7565,-3.7488,-3.7238,0.0,0.0,0.0,0.0,0.0,0.0,0.0,0.0,0.0,0.0,0.0,0.0,0.0,0.0,0.0,0.0,-3.5112,0.0,0.0,0.0,0.0,0.0,0.0,0.0,0.0,-3.7691,-3.78,-3.7866,-3.7806,-3.78,0.0,-3.8129,-3.7609,0.0,0.0,0.0,0.0,0.0,0.0,0.0,0.0,-3.6939,-3.7929,-3.9343,-4.0262,-4.0601,-4.0625,-4.0797,-4.1178,-4.0214,-3.8816,-3.7036,-3.4249,-3.2387,0.0,0.0,0.0,0.0,0.0,0.0,0.0,0.0,0.0,0.0,0.0,0.0,0.0,0.0,0.0,0.0,0.0,0.0,0.0,0.0,0.0,0.0,0.0,-3.2412,0.0,0.0,0.0,0.0,0.0,0.0,0.0,0.0,0.0,-3.7602,-3.8023,-3.8826,-4.0242,-4.07,-4.1268,-4.2262,0.0,0.0,0.0,0.0,0.0,0.0,0.0,-4.3398,-4.309,-4.3048,-4.2786,-4.1986,-4.1233,-4.0726,-4.0656,0.0,0.0,-3.8882,-3.88,-3.8854,-3.8873,-3.8642,-3.8277,-3.77,-3.6692,-3.5771,0.0,0.0,0.0,0.0,0.0,0.0,0.0,0.0,-3.5924,-3.5593,0.0,-3.5529,0.0,0.0,0.0,0.0,0.0,0.0,0.0,0.0,-3.7457,-3.7777,-3.779,-3.7777,-3.7777,-3.7835,-3.8492,-3.8475,-3.7719,-3.6332,0.0,0.0,0.0,0.0,0.0,0.0,-3.7144,-3.7922,-3.9368,-4.0096,-4.0062,-4.0045,-4.0028,-3.9985,-3.864,-3.754,-3.6795,-3.5294,-3.3512,-3.1427,-3.1227,0.0,0.0,0.0,0.0,0.0,0.0,0.0,0.0,0.0,0.0,0.0,0.0,0.0,0.0,0.0,0.0,0.0,0.0,0.0,0.0,-3.2273,0.0,0.0,0.0,0.0,0.0,0.0,0.0,0.0,0.0,0.0,-3.7963,-3.8531,-3.9266,-4.0019,0.0,0.0,0.0,0.0,-4.2827,-4.3392,-4.3462,-4.3462,-4.3479,-4.3479,-4.3496,-4.3478,0.0,0.0,-4.247,-4.2286,-4.1795,-4.0568,-4.0263,-4.0212,-4.0046,-4.018,-4.0377,-4.04,-3.9823,-3.9361,-3.9188,-3.793,-3.6863,-3.76,0.0,0.0,0.0,0.0,-3.7335,-3.688,-3.6606,-3.5845,-3.5519,-3.5504,-3.4976,0.0,0.0,0.0,0.0,0.0,0.0,-3.6993,-3.746,-3.7125,-3.7249,-3.7777,-3.7219,-3.7233,-3.7793,-3.8007,-3.8008,-3.7754,-3.6864,-3.6289,-3.6129,0.0,0.0,0.0,0.0,-3.7168,-3.7956,-3.9343,-3.9859,-3.9317,-3.9317,-3.9056,-3.8531,-3.7601,-3.7015,-3.6795,-3.5301,-3.4201,-3.3558,-3.2036,0.0,0.0,0.0,0.0,0.0,0.0,0.0,0.0,0.0,0.0,0.0,0.0,0.0,0.0,0.0,0.0,0.0,0.0,0.0,-3.2226,-3.1909,-3.2331,0.0,0.0,0.0,0.0,0.0,0.0,0.0,0.0,0.0,-3.8684,-3.8853,-3.9283,0.0,0.0,-4.0546,-4.1064,-4.1313,-4.1771,-4.2807,0.0,0.0,0.0,-4.3479,-4.3479,-4.3479,-4.3479,-4.3423,-4.3204,-4.2213,-4.1328,-4.0906,-4.0073,-3.944,-3.9427,-3.9832,-4.025,-4.0438,-4.0304,-3.9958,-3.94,-3.8854,-3.8392,-3.6446,-3.6951,-3.756,-3.7602,-3.7291,-3.685,-3.6484,-3.6134,-3.569,-3.5491,-3.5461,-3.5034,-3.4955,-3.5134,-3.4654,0.0,0.0,0.0,-3.6454,-3.686,-3.6384,-3.6415,-3.6829,-3.6384,-3.6415,-3.689,-3.7205,-3.7338,-3.7306,-3.7202,-3.6993,-3.6754,0.0,0.0,-3.6512,-3.728,-3.7889,-3.8362,-3.9478,-3.9757,-3.9022,-3.8988,-3.8633,-3.7939,-3.7466,-3.7094,-3.6812,-3.5588,-3.4793,-3.451,-3.3241,-3.2006,0.0,0.0,0.0,0.0,0.0,0.0,0.0,0.0,0.0,0.0,0.0,-3.1587,-3.0864,0.0,0.0,0.0,-3.092,-3.1795,-3.3049,-3.2564,0.0,0.0,0.0,0.0,0.0,0.0,0.0,-3.8253,-3.8971,-3.9453,-3.9428,-3.9453,-3.9605,-4.0045,-4.0113,-4.0286,-4.0827,0.0,-4.1246,-4.2203,-4.2342,-4.2539,-4.3087,-4.3178,-4.325,-4.3462,-4.3479,-4.3351,-4.302,-4.1937,-4.1022,-4.0611,-3.9715,-3.899,-3.9085,-3.9541,-3.9983,-4.0295,-4.0433,-4.0323,-3.9861,-3.9534,-3.9182,-3.5489,-3.5619,-3.7041,-3.7189,-3.6523,-3.6523,-3.6134,-3.5489,-3.5489,-3.5489,-3.5489,-3.5489,-3.5145,-3.4593,-3.4593,0.0,-3.5491,-3.5478,-3.5522,-3.5489,-3.5489,-3.5489,-3.5489,-3.5489,-3.5489,-3.5537,-3.6196,-3.6507,-3.6569,-3.7249,-3.7313,-3.6717,-3.6691,-3.7026,-3.773,-3.8428,-3.8823,-3.8823,-3.9531,-3.9514,-3.8772,-3.8604,-3.8233,-3.7535,-3.7559,-3.7222,-3.6548,-3.5818,-3.511,-3.4476,-3.4374,-3.3126,-3.0547,0.0,0.0,0.0,0.0,0.0,0.0,0.0,0.0,0.0,0.0,0.0,0.0,0.0,0.0,0.0,-3.103,0.0,-3.4317,-3.379,0.0,0.0,0.0,-3.4904,-3.5691,-3.6973,-3.811,-3.8907,0.0,0.0,-4.0113,0.0,-4.0113,-4.0113,-4.0113,-4.0286,-4.0774,-4.0827,-4.1041,-4.1643,-4.1746,-4.1937,-4.2519,-4.2693,-4.292,-4.341,-4.3479,-4.3204,-4.247,-4.1662,-4.0855,-4.0084,-3.9239,-3.8777,-3.904,-3.9333,-3.9656,-4.0002,-4.0313,-4.0496,-4.0419,-3.9919,-3.9451,-3.5489,-3.5537,-3.591,-3.5941,-3.5765,-3.575,-3.5683,-3.5504,-3.5489,-3.5489,-3.5489,-3.5489,-3.5415,-3.525,-3.5265,-3.5347,-3.5492,-3.5479,-3.5489,-3.5489,-3.5489,-3.5489,-3.5489,-3.5489,-3.5489,-3.5489,-3.5668,-3.575,-3.5782,-3.5973,-3.6245,-3.6609,-3.6631,-3.6467,-3.6185,-3.688,-3.7248,-3.7248,-3.7945,-3.773,-3.6507,-3.5461,-3.4785,-3.4623,-3.4623,-3.4542,-3.4363,-3.4184,-3.3997,-3.3819,-3.3291,-3.2417,-3.1203,-2.9488,0.0,0.0,0.0,0.0,0.0,0.0,0.0,0.0,0.0,-3.1694,-3.044,0.0,-3.1923,0.0,-3.134,-3.228,-3.4217,-3.3833,0.0,0.0,-3.6139,-3.6462,-3.7186,-3.7585,-3.8087,-3.8838,-3.9083,-3.9411,-4.002,-4.0113,-4.0113,-4.0113,-4.0113,-4.0129,-4.0303,-4.0286,-4.049,-4.0972,-4.111,-4.1335,-4.1916,-4.2402,-4.2864,-4.341,-4.3479,-4.3222,-4.2433,-4.1662,-4.0836,-4.0047,-3.9258,-3.879,-3.8788,-3.9031,-3.9314,-3.9668,-4.0138,-4.0496,-4.0496,-4.0323,-4.0048,-3.5774,-3.5504,-3.5489,-3.5489,-3.5489,-3.5489,-3.5489,-3.5489,-3.5489,-3.5489,-3.5489,-3.5489,-3.5489,-3.5489,-3.5489,-3.5489,-3.5489,-3.5489,-3.5489,-3.5489,-3.5489,-3.5489,-3.5489,-3.5489,-3.5489,-3.5489,-3.5489,-3.5489,-3.5489,-3.5489,-3.5733,-3.6117,-3.6102,-3.5922,-3.5607,-3.6637,-3.7201,-3.7201,-3.7265,-3.693,-3.6146,-3.5086,-3.4382,-3.4062,-3.4072,-3.3944,-3.3624,-3.3608,-3.3479,-3.3159,-3.2766,-3.209,-3.1079,-2.9675,-2.8651,0.0,0.0,0.0,0.0,0.0,0.0,0.0,0.0,0.0,0.0,0.0,-3.2531,-3.2718,-3.252,-3.306,-3.4726,-3.458,-3.488,-3.6041,-3.6179,-3.6469,-3.7172,-3.7263,-3.7573,-3.833,-3.869,-3.9059,-3.9516,-3.9876,-4.0113,-4.0113,-4.0113,-4.0113,-4.0113,-4.0113,-4.0229,-4.0497,-4.0528,-4.075,-4.1313,-4.1916,-4.2482,-4.2995,-4.2814,-4.2393,-4.1832,-4.1111,-4.0304,-3.9533,-3.9001,-3.8707,-3.8704,-3.8905,-3.9178,-3.9389,-3.9903,-4.0311,-4.0473,-4.0496,-4.0284,-3.6103,-3.5504,-3.5489,-3.5489,-3.5489,-3.5489,-3.5489,-3.5489,-3.5489,-3.5489,-3.5489,-3.5489,-3.5489,-3.5489,-3.5489,-3.5489,-3.5489,-3.5489,-3.5489,-3.5489,-3.5489,-3.5489,-3.5489,-3.5489,-3.5489,-3.5489,-3.5489,-3.5489,-3.5489,-3.5489,-3.5489,-3.5489,-3.5489,-3.5489,-3.5554,-3.6845,-3.7501,-3.7485,-3.6787,-3.641,-3.6394,-3.5677,-3.4979,-3.4376,-3.4292,-3.3985,-3.3371,-3.3339,-3.3079,-3.2507,-3.2444,-3.1921,-3.0779,-3.001,-2.9518,0.0,-2.8686,0.0,0.0,0.0,0.0,0.0,0.0,0.0,0.0,-3.1823,-3.3163,-3.4317,-3.401,-3.4241,-3.54,-3.5498,-3.5489,-3.5489,-3.5489,-3.5735,-3.6384,-3.6477,-3.6768,-3.7544,-3.8201,-3.8619,-3.8772,-3.9463,-3.9927,-3.9901,-4.002,-4.0113,-4.0113,-4.0113,-4.0096,-4.0113,-4.0113,-4.0343,-4.0856,-4.1253,-4.17,-4.2171,-4.1733,-4.1125,-4.0856,-4.0262,-3.9562,-3.8912,-3.8744,-3.8707,-3.8707,-3.888,-3.9063,-3.9125,-3.9497,-3.9872,-4.0134,-4.0242,-4.0035,-3.6103,-3.5504,-3.5489,-3.5489,-3.5489,-3.5489,-3.5489,-3.5489,-3.5489,-3.5489,-3.5489,-3.5489,-3.5489,-3.5489,-3.5489,-3.5489,-3.5489,-3.5489,-3.5489,-3.5489,-3.5489,-3.5489,-3.5489,-3.5489,-3.5489,-3.5489,-3.5489,-3.5489,-3.5489,-3.5489,-3.5489,-3.5489,-3.5489,-3.5489,-3.5489,0.0,0.0,0.0,-3.5259,-3.491,-3.4865,-3.3727,-3.3045,-3.2879,-3.2393,0.0,-3.1894,-3.1879,-3.1849,-3.1713,-3.1697,0.0,0.0,0.0,0.0,0.0,0.0,0.0,0.0,0.0,0.0,0.0,-3.1485,-3.1306,-3.1338,-3.3006,-3.418,-3.447,-3.487,-3.5239,-3.5473,-3.5497,-3.5489,-3.5489,-3.5489,-3.5554,-3.5701,-3.5733,-3.6006,-3.6737,-3.6964,-3.7277,-3.795,-3.8679,-3.9113,-3.9193,-3.9688,-4.007,-4.0113,-4.0113,-4.0113,-4.0113,-4.0079,-4.0269,-4.0827,-4.0474,-4.0381,-4.0807,-4.0457,-3.9867,-3.9571,-3.9404,-3.9176,-3.8742,-3.8707,-3.8707,-3.8707,-3.8732,-3.884,-3.9044,-3.8863,-3.8723,-3.9061,-3.9331,-3.9073,-3.6567,0.0,-3.5639,-3.5489,0.0,-3.5489,-3.5489,-3.5489,-3.5489,-3.5489,-3.5489,-3.5489,-3.5489,-3.5489,-3.5489,-3.5489,-3.5489,-3.5489,-3.5489,-3.5489,-3.5489,-3.5489,-3.5489,-3.5489,-3.5489,-3.5489,-3.5489,-3.5489,-3.5489,-3.5489,-3.5489,-3.5489,-3.5489,-3.5489,-3.5489,-3.5489,-3.5489,-3.5489,-3.516,-3.4981,-3.4951,-3.3993,-3.332,-3.2991,0.0,0.0,0.0,0.0,0.0,0.0,0.0,0.0,0.0,0.0,0.0,-3.0522,-2.9909,-2.9684,-2.9986,-3.0315,-3.0956,-3.1899,-3.2587,-3.2991,-3.2976,-3.3918,-3.4653,-3.4951,-3.531,-3.5489,-3.5489,-3.5489,-3.5489,-3.5489,-3.5489,-3.5489,-3.5489,-3.5489,-3.5651,-3.6006,-3.6384,-3.6752,-3.716,-3.7876,-3.8497,-3.8854,-3.9236,-3.9662,-4.002,-4.0113,-4.0113,-4.0079,-3.9757,-3.9653,-3.9843,-3.9356,-3.9049,-3.9485,-3.9073,-3.8662,-3.8738,-3.8636,-3.8466,-3.834,-3.8515,-3.8707,-3.8707,-3.8707,-3.8603,-3.8381,-3.8199,-3.7847,-3.7578,-3.8034,-3.8296,-3.6928,-3.6186,-3.5708,-3.5392,-3.5246,-3.5424,-3.5392,-3.5246,0.0,0.0,0.0,-3.5489,-3.5489,-3.5489,-3.5489,-3.5489,-3.5489,-3.5489,-3.5489,-3.5489,-3.5489,-3.5489,-3.5489,-3.5489,-3.5489,-3.5489,-3.5489,-3.5489,-3.5489,-3.5489,-3.5489,-3.5489,-3.5489,-3.5489,-3.5489,-3.5489,-3.5489,-3.5489,-3.5489,-3.5489,-3.5474,-3.4711,-3.4069,-3.3514,-3.2751,-3.2064,-3.1525,-3.1496,-3.1241,-3.0717,-3.0672,-3.0672,-3.0687,-3.0687,-3.0913,-3.1451,-3.1496,-3.1555,-3.1675,-3.2183,-3.2587,-3.2841,-3.3963,-3.4607,-3.4518,-3.4608,-3.4891,-3.5459,-3.5489,-3.5489,-3.5489,-3.5489,-3.5489,-3.5489,-3.5489,-3.5489,-3.5489,-3.5489,-3.5489,-3.5554,-3.6023,-3.6415,-3.6415,-3.7115,-3.779,-3.8342,-3.8564,-3.8924,-3.9558,-3.9901,-4.0113,-4.0062,-3.9571,-3.9046,-3.8911,-3.8292,-3.7955,-3.8262,-3.7707,-3.7394,-3.7824,-3.7842,-3.7721,-3.7947,-3.8302,-3.8546,-3.8658,-3.856,-3.8267,-3.7621,-3.7461,-3.7144,-3.6235,-3.6644,-3.7133,-3.6542,-3.5212,-3.54,-3.5019,-3.4279,-3.5133,-3.5019,-3.4279,-3.5133,-3.5504,-3.5489,-3.5489,-3.5489,-3.5489,-3.5489,-3.5489,-3.5489,-3.5489,-3.5489,0.0,-3.5489,-3.5489,-3.5489,-3.5489,-3.5489,-3.5489,-3.5489,-3.5489,-3.5489,-3.5489,-3.5489,-3.5489,-3.5489,-3.5489,-3.5489,-3.5489,-3.5489,-3.5489,-3.5489,-3.5489,-3.5489,-3.4277,-3.3604,-3.3455,-3.2288,-3.1615,-3.1496,-3.1496,-3.1466,-3.1376,-3.1361,-3.1361,-3.1361,-3.1346,-3.1406,-3.1496,-3.1496,-3.175,-3.2303,-3.2467,-3.2991,-3.4144,-3.4921,-3.5115,-3.4578,-3.5026,-3.54,-3.5489,-3.5489,-3.5489,-3.5489,-3.5489,-3.5489,-3.5489,-3.5489,-3.5489,-3.5459,-3.5459,-3.5429,-3.5415,-3.5572,-3.5608,-3.5646,-3.6245,-3.6704,-3.7007,-3.7655,-3.8064,-3.8402,-3.9279,-4.002,-4.0011,-3.9462,-3.9039,-3.87,-3.7811,-3.7119,-3.7046,-3.6463,-3.6198,-3.6697,-3.6783,-3.6981,-3.7737,-3.7929,-3.8183,-3.8528,-3.812,-3.7698,-3.7382,-3.6693,-3.5857,-3.5513,-3.5472,-3.5399,-3.5353,-3.4608,-3.4133,-3.3685,-3.329,-3.3734,-3.3685,-3.3276,-3.3719,-3.3953,-3.3939,-3.3939,-3.3905,-3.3905,-3.3939,-3.3905,-3.3905,-3.3939,-3.4192,-3.4624,-3.4158,-3.4192,-3.4658,-3.4691,-3.4691,-3.4725,-3.5246,-3.5489,-3.5489,-3.5489,-3.5489,-3.5489,-3.5489,-3.5489,-3.5489,-3.5489,-3.5489,-3.5489,-3.5489,-3.5489,-3.5474,-3.4547,-3.3858,-3.3484,-3.2557,-3.1854,-3.1511,-3.1496,-3.1496,-3.1496,-3.1496,-3.1496,-3.1496,-3.1496,-3.1496,-3.1496,-3.1496,-3.1795,-3.2467,-3.3185,-3.3993,-3.4951,-3.531,-3.5385,-3.507,-3.531,-3.5489,-3.5489,-3.5489,-3.5489,-3.5489,-3.5489,-3.5489,-3.5489,-3.5489,-3.5355,-3.5026,-3.4951,-3.4801,-3.4487,-3.4427,-3.4412,-3.4412,-3.4711,-3.5294,-3.5919,-3.7008,-3.7761,-3.7761,-3.8346,-3.883,-3.8809,-3.8606,-3.8237,-3.7855,-3.6907,-3.6248,-3.6163,-3.5859,-3.5728,-3.5963,-3.6161,-3.66,-3.7001,-3.7305,-3.7703,-3.8148,-3.7612,-3.7124,-3.6762,-3.5998,-3.5245,-3.4871,-3.4719,-3.4851,-3.4252,-3.3967,-3.3032,-3.2593,-3.2571,-3.2357,-3.2272,-3.2285,-3.2069,-3.1974,-3.2046,-3.2393,-3.2593,-3.2593,-3.2593,-3.2593,-3.2593,-3.2593,-3.2982,-3.3553,-3.2925,-3.2982,-3.3636,-3.3691,-3.3705,-3.3788,-3.4491,-3.4854,-3.4854,-3.4854,-3.4854,-3.4839,-3.4839,-3.4854,-3.4854,-3.4839,-3.4854,-3.4854,-3.4854,-3.5082,-3.5457,-3.4656,-3.3969,-3.3514,-3.2809,-3.2124,-3.1541,-3.1645,-3.166,-3.1482,-3.1322,-3.1234,-3.1219,-3.1043,-3.0925,-3.0925,-3.094,-3.1278,-3.2101,-3.3338,-3.4295,-3.481,-3.4854,-3.4854,-3.4854,-3.4839,-3.5082,-3.5392,-3.5489,-3.5489,-3.5489,-3.5489,-3.5489,-3.5489,-3.5489,-3.5325,-3.4816,-3.4728,-3.4474,-3.3858,-3.3709,-3.3724,-3.3544,-3.3499,-3.3985,-3.5032,-3.6263,-3.6949,-3.6898,-3.7033,-3.7246,-3.6999,-3.7235,-3.7461,-3.6827,-3.6163,-3.5718,-3.5616,-3.5616,-3.5622,-3.5694,-3.5968,-3.6266,-3.6422,-3.6571,-3.6891,-3.7255,-3.6707,-3.613,-3.5787,-3.5182,-3.4599,-3.4278,-3.439,-3.4655,-3.39,-3.3125,-3.2682,-3.2593,-3.2415,-3.1683,-3.1328,-3.1217,-3.0457,-3.0037,-3.0317,-3.1842,-3.2522,-3.2593,-3.2522,-3.2486,-3.25,-3.2593,-3.2642,-3.27,-3.2629,-3.2629,-3.2713,-3.2749,-3.2735,-3.2749,-3.289,-3.3031,-3.3031,-3.2961,-3.289,-3.2855,-3.2855,-3.2925,-3.2925,-3.2925,-3.2876,-3.289,-3.2855,-3.3734,-3.5297,-3.401,-3.332,-3.3499,-3.2589,-3.1959,-3.147,-3.2079,-3.2108,-3.1512,-3.0763,-3.0404,-3.0329,-2.9673,-2.924,-2.9286,-2.93,-2.9724,-3.0912,-3.209,-3.2877,-3.2841,-3.2961,-3.2961,-3.2961,-3.2925,-3.365,-3.492,-3.5424,-3.5344,-3.5489,-3.5439,-3.5392,-3.5359,-3.5457,-3.5459,-3.534,-3.5415,-3.5145,-3.4503,-3.4159,-3.4174,-3.3455,-3.338,-3.35,-3.3743,-3.4546,-3.4927,-3.4531,-3.5198,-3.5428,-3.4773,-3.547,-3.663,-3.6538,-3.6129,-3.5622,-3.5577,-3.5616,-3.5616,-3.5644,-3.5672,-3.5805,-3.6151,-3.5824,-3.5778,-3.588,-3.5377,-3.4704,-3.4818,-3.4426,-3.393,-3.39,-3.4,-3.4263,-3.2422,-3.1973,-3.1252,-3.0959,-3.0884,-3.0533,-3.0394,-3.0317,-2.996,-2.9779,-2.9869,-3.0646,-3.0959,-3.0959,-3.0959,-3.0959,-3.0959,-3.0959,-3.1267,-3.1683,-3.1193,-3.123,-3.1742,-3.1779,-3.1792,-3.1865,-3.2307,-3.2593,-3.2593,-3.2593,-3.2593,-3.2593,-3.2593,-3.2593,-3.2593,-3.2593,-3.2593,-3.2593,-3.2593,-3.2996,-3.3545,-3.2766,-3.2247,-3.2293,-3.1594,-3.0984,-3.0572,-3.0763,-3.0623,-3.0068,-2.969,-2.9549,-2.9535,-2.9192,-2.8989,-2.903,-2.9679,-3.0273,-3.0784,-3.1916,-3.2593,-3.2593,-3.2593,-3.2593,-3.2593,-3.2593,-3.2975,-3.3581,-3.3788,-3.3802,-3.3837,-3.4259,-3.461,-3.4691,-3.5133,-3.5307,-3.4936,-3.4562,-3.4053,-3.341,-3.2961,-3.2662,-3.2452,-3.2647,-3.2886,-3.2991,-3.3484,-3.3724,-3.356,-3.4015,-3.4057,-3.3756,-3.4294,-3.4913,-3.5364,-3.5278,-3.5201,-3.547,-3.5616,-3.5616,-3.56,-3.5616,-3.5711,-3.592,-3.5283,-3.5032,-3.5547,-3.4513,-3.3651,-3.394,-3.4095,-3.3807,-3.3807,-3.3521,-3.3408,-3.1311,-3.1047,-3.0168,-2.9779,-2.9779,-2.9779,-2.9779,-2.9779,-2.9779,-2.9779,-2.9779,-2.9779,-2.9779,-2.9779,-2.9779,-2.9779,-2.9779,-2.9779,-3.0139,-3.0696,-3.0101,-3.0177,-3.0796,-3.0833,-3.0833,-3.0895,-3.1462,-3.1792,-3.1829,-3.1829,-3.1829,-3.1842,-3.1829,-3.1829,-3.1829,-3.1815,-3.1829,-3.1842,-3.1829,-3.1829,-3.1775,-3.1339,-3.1243,-3.1522,-3.1067,-3.046,-2.9857,-3.0,-2.9725,-2.9058,-2.8766,-2.8652,-2.8634,-2.8427,-2.8298,-2.8406,-2.9403,-3.0063,-3.0077,-3.1168,-3.1829,-3.1829,-3.1829,-3.1829,-3.1829,-3.1829,-3.1829,-3.1829,-3.1829,-3.1974,-3.2642,-3.3206,-3.3587,-3.3656,-3.4308,-3.4427,-3.3797,-3.3475,-3.3099,-3.2271,-3.2095,-3.169,-3.1615,-3.1929,-3.2213,-3.2302,-3.2796,-3.3095,-3.3051,-3.3066,-3.3186,-3.297,-3.2962,-3.3341,-3.4093,-3.435,-3.464,-3.5075,-3.5293,-3.5339,-3.5515,-3.56,-3.538,-3.5319,-3.4668,-3.4143,-3.4063,-3.3308,-3.2894,-3.3526,-3.3734,-3.3611,-3.3597,-3.3163,-3.2913,-3.1097,-3.0595,-3.003,-2.9779,-2.9779,-2.9779,-2.9779,-2.9779,-2.9779,-2.9779,-2.9779,-2.9779,-2.9779,-2.9779,-2.9779,-2.9779,-2.9779,-2.9779,-2.983,-2.9921,-2.9818,-2.983,-2.9869,-2.9869,-2.9895,-2.996,-3.0101,-3.0113,-3.0037,-3.0011,-2.9934,-2.996,-3.0075,-3.0011,-3.0075,-3.0113,-2.9972,-3.0101,-3.0139,-2.9998,-3.0011,-2.9973,-3.0483,-3.1371,-3.1294,-3.065,-2.9961,-3.04,-3.0152,-2.904,-2.8195,-2.7769,-2.769,-2.7074,-2.6714,-2.6781,-2.7683,-2.8254,-2.844,-2.939,-3.0024,-2.9973,-3.0126,-2.9998,-3.0177,-3.0177,-3.0177,-2.9998,-3.0177,-3.0784,-3.2119,-3.25,-3.2678,-3.2664,-3.2749,-3.2598,-3.2075,-3.2663,-3.2457,-3.1681,-3.1809,-3.1827,-3.1497,-3.1525,-3.1615,-3.1735,-3.2138,-3.2363,-3.1989,-3.2228,-3.2272,-3.1897,-3.1816,-3.2079,-3.3313,-3.3633,-3.3937,-3.4431,-3.4776,-3.4821,-3.5276,-3.5532,-3.5143,-3.4641,-3.3931,-3.3262,-3.2618,-3.2316,-3.2298,-3.2643,-3.31,-3.3151,-3.3346,-3.3574,-3.3171,-3.0871,-3.008,-2.988,-2.9779,-2.9779,-2.9779,-2.9779,-2.9779,-2.9779,-2.9779,-2.9779,-2.9779,-2.9779,-2.9779,-2.9779,-2.9779,-2.9779,-2.9779,-2.9779,-2.9779,-2.9779,-2.9779,-2.9779,-2.9779,-2.9779,-2.9779,-2.9779,-2.9779,-2.9779,-2.9779,-2.9779,-2.9779,-2.9779,-2.9779,-2.9779,-2.9779,-2.9779,-2.9779,-2.9779,-2.9779,-2.9779,-2.9779,-3.0037,-3.0399,-3.0379,-2.9969,-2.9256,-2.9145,-2.8725,-2.7923,-2.7301,-2.6939,-2.6905,-2.6658,-2.6487,-2.6562,-2.7203,-2.7582,-2.7708,-2.8624,-2.9239,-2.9277,-2.9591,-2.9779,-2.9779,-2.9779,-2.9779,-2.9779,-2.9779,-3.0216,-3.0684,-3.1341,-3.1706,-3.1779,-3.2222,-3.2274,-3.1882,-3.1704,-3.1312,-3.0686,-3.0857,-3.0937,-3.0939,-3.1175,-3.1496,-3.1525,-3.172,-3.1706,-3.163,-3.1735,-3.178,-3.16,-3.1496,-3.1653,-3.2048,-3.2707,-3.3172,-3.3811,-3.4186,-3.4215,-3.4479,-3.4813,-3.4565,-3.3823,-3.314,-3.2767,-3.2204,-3.1998,-3.193,-3.2004,-3.2451,-3.2807,-3.3154,-3.2821,-3.2311,-3.0457,-2.9842,-2.9779,-2.9779,-2.9779,-2.9779,-2.9779,-2.9779,-2.9779,-2.9779,-2.9779,-2.9779,-2.9779,-2.9779,-2.9779,-2.9779,-2.9779,-2.9779,-2.9779,-2.9779,-2.9779,-2.9779,-2.9779,-2.9779,-2.9779,-2.9779,-2.9779,-2.9779,-2.9779,-2.9779,-2.9779,-2.9779,-2.9779,-2.9779,-2.9779,-2.9779,-2.9779,-2.9779,-2.9779,-2.9779,-2.9779,-2.9779,-2.9779,-2.9779,-2.9779,-2.9428,-2.8662,-2.8436,-2.8009,-2.7344,-2.6964,-2.6675,-2.6512,-2.6487,-2.6487,-2.6549,-2.7014,-2.7329,-2.7419,-2.831,-2.8888,-2.8925,-2.944,-2.9779,-2.9779,-2.9779,-2.9779,-2.9779,-2.9779,-2.9779,-2.9895,-3.0381,-3.0733,-3.0769,-3.1169,-3.1195,-3.0675,-3.0255,-2.9961,-2.9776,-2.9816,-2.9901,-2.995,-3.0374,-3.0733,-3.1029,-3.1131,-3.1161,-3.1438,-3.1496,-3.1496,-3.1496,-3.1496,-3.1496,-3.171,-3.2076,-3.2532,-3.313,-3.3515,-3.3524,-3.3514,-3.3831,-3.3694,-3.3004,-3.2534,-3.2232,-3.1987,-3.1775,-3.1684,-3.1675,-3.1898,-3.2262,-3.2119,-3.1696,-3.1286,-2.9817,-2.9779,-2.9779,-2.9779,-2.9779,-2.9779,-2.9779,-2.9779,-2.9779,-2.9779,-2.9779,-2.9779,-2.9779,-2.9779,-2.9779,-2.9779,-2.9779,-2.9779,-2.9779,-2.9779,-2.9779,-2.9779,-2.9779,-2.9779,-2.9779,-2.9779,-2.9779,-2.9779,-2.9779,-2.9779,-2.9779,-2.9779,-2.9779,-2.9779,-2.9779,-2.9779,-2.9779,-2.9779,-2.9779,-2.9779,-2.9779,-2.9779,-2.9779,-2.9779,-2.9779,-2.9302,-2.826,-2.8612,-2.8386,-2.7482,-2.7304,-2.704,-2.6587,-2.6487,-2.6512,-2.6612,-2.7014,-2.7266,-2.7417,-2.8222,-2.8737,-2.8787,-2.939,-2.9691,-2.9666,-2.9741,-2.9779,-2.9779,-2.9779,-2.9779,-2.9779,-2.9895,-2.9934,-2.9767,-2.9644,-2.9123,-2.8562,-2.8394,-2.8612,-2.8797,-2.8907,-2.8989,-2.8989,-2.9223,-2.9597,-3.0103,-3.0389,-3.0644,-3.119,-3.1409,-3.1496,-3.1496,-3.1496,-3.1496,-3.1496,-3.1553,-3.1979,-3.2394,-3.2676,-3.2788,-3.2615,-3.2738,-3.2432,-3.1841,-3.1813,-3.1553,-3.1613,-3.1417,-3.138,-3.1411,-3.1608,-3.1602,-3.1304,-3.0949,-3.0466,-2.9779,-2.9779,-2.9779,-2.9779,-2.9779,-2.9779,-2.9779,-2.9779,-2.9779,-2.9779,-2.9779,-2.9779,-2.9779,-2.9779,-2.9779,-2.9779,-2.9779,-2.9779,-2.9779,-2.9779,-2.9779,-2.9779,-2.9779,-2.9779,-2.9779,-2.9779,-2.9779,-2.9779,-2.9779,-2.9779,-2.9779,-2.9779,-2.9779,-2.9779,-2.9779,-2.9779,-2.9779,-2.9779,-2.9779,-2.9779,-2.9779,-2.9779,-2.9779,-2.9779,-2.9779,-2.9428,-2.8737,-2.88,-2.8537,-2.7871,-2.7482,-2.7065,-2.6612,-2.6487,-2.6675,-2.6954,-2.6839,-2.6939,-2.7291,-2.7595,-2.7846,-2.7971,-2.8662,-2.9126,-2.9252,-2.9591,-2.9767,-2.9779,-2.9779,-2.9779,-2.9779,-2.9779,-2.9779,-2.9779,-2.9277,-2.8637,-2.807,-2.7525,-2.7195,-2.7302,-2.7769,-2.8084,-2.8233,-2.8492,-2.9002,-2.9348,-2.9858,-3.0359,-3.0644,-3.1058,-3.1467,-3.1496,-3.1496,-3.1467,-3.1496,-3.1496,-3.171,-3.2007,-3.2201,-3.1905,-3.1721,-3.1699,-3.1332,-3.0971,-3.094,-3.1012,-3.1079,-3.1114,-3.1075,-3.0985,-3.0997,-3.0863,-3.0647,-3.019,-2.9558,-2.9779,-2.9779,-2.9779,-2.9779,-2.9779,-2.9779,-2.9779,-2.9779,-2.9779,-2.9779,-2.9779,-2.9779,-2.9779,-2.9779,-2.9779,-2.9779,-2.9779,-2.9779,-2.9779,-2.9779,-2.9779,-2.9779,-2.9779,-2.9779,-2.9779,-2.9779,-2.9779,-2.9779,-2.9779,-2.9779,-2.9779,-2.9779,-2.9779,-2.9779,-2.9779,-2.9779,-2.9779,-2.9779,-2.9779,-2.9779,-2.9779,-2.9779,-2.9779,-2.9779,-2.9779,-2.9616,-2.9264,-2.9214,-2.8888,-2.8222,-2.7758,-2.7331,-2.6889,-2.7002,-2.719,-2.719,-2.7027,-2.6901,-2.7027,-2.7228,-2.7329,-2.7505,-2.8298,-2.8875,-2.8988,-2.9465,-2.9767,-2.9779,-2.9779,-2.9779,-2.9779,-2.9779,-2.9779,-2.9779,-2.9063,-2.8335,-2.7595,-2.6927,-2.6584,-2.6679,-2.696,-2.7183,-2.7417,-2.7637,-2.8247,-2.8505,-2.8971,-2.9566,-2.9766,-3.0208,-3.0584,-3.0896,-3.097,-3.1087,-3.1438,-3.1496,-3.1496,-3.1682,-3.1866,-3.1222,-3.0727,-3.0963,-3.0852,-3.0259,-3.0049,-3.0389,-3.0518,-3.0699,-3.0744,-3.0599,-3.054,-3.0226,-2.9933,-2.9059,-2.847,-2.9779,-2.9779,-2.9779,-2.9779,-2.9779,-2.9779,-2.9779,-2.9779,-2.9779,-2.9779,-2.9779,-2.9779,-2.9779,-2.9779,-2.9779,-2.9779,-2.9779,-2.9779,-2.9779,-2.9779,-2.9779,-2.9779,-2.9779,-2.9779,-2.9779,-2.9779,-2.9779,-2.9779,-2.9779,-2.9779,-2.9779,-2.9779,-2.9779,-2.9779,-2.9779,-2.9779,-2.9779,-2.9779,-2.9779,-2.9779,-2.974,-2.9611,-2.9611,-2.9573,-2.9404,-2.9302,-2.9213,-2.9063,-2.8873,-2.8286,-2.8109,-2.7795,-2.7542,-2.7808,-2.7695,-2.7429,-2.7318,-2.7067,-2.6851,-2.7102,-2.7329,-2.7404,-2.8185,-2.885,-2.885,-2.9377,-2.9779,-2.9779,-2.9779,-2.9779,-2.9779,-2.9779,-2.9767,-2.9603,-2.88,-2.7783,-2.6725,-2.6512,-2.6499,-2.6487,-2.6487,-2.6521,-2.6624,-2.6679,-2.704,-2.7451,-2.7822,-2.8344,-2.878,-2.9223,-2.9487,-2.9797,-3.0178,-3.0329,-3.0554,-3.0569,-3.0644,-3.1117,-3.1261,-3.0717,-2.9922,-3.0052,-3.0117,-2.9556,-2.93,-2.9657,-3.0043,-3.0272,-3.0555,-3.068,-3.037,-2.9798,-2.9113,-2.837,-2.7709,-2.9779,-2.9779,-2.9779,-2.9779,-2.9779,-2.9779,-2.9779,-2.9779,-2.9779,-2.9779,-2.9779,-2.9779,-2.9779,-2.9779,-2.9779,-2.9779,-2.9779,-2.9779,-2.9779,-2.9779,-2.9779,-2.9779,-2.9779,-2.9779,-2.9779,-2.9779,-2.9779,-2.9779,-2.9779,-2.9779,-2.9779,-2.9779,-2.9779,-2.9779,-2.9779,-2.974,-2.9779,-2.9779,-2.9779,-2.9702,-2.9573,-2.8897,-2.8557,-2.8478,-2.7827,-2.7464,-2.7348,-2.6921,-2.7493,-2.8587,-2.8298,-2.8059,-2.7712,-2.7574,-2.749,-2.7588,-2.7423,-2.7383,-2.7473,-2.7347,-2.727,-2.7366,-2.7777,-2.831,-2.8348,-2.9239,-2.9691,-2.9779,-2.9779,-2.9702,-2.974,-2.9702,-2.9539,-2.9151,-2.835,-2.761,-2.6826,-2.6487,-2.6487,-2.6487,-2.6487,-2.6487,-2.6487,-2.6521,-2.6577,-2.6884,-2.7297,-2.7683,-2.8065,-2.846,-2.8812,-2.9066,-2.9348,-2.9442,-2.9504,-2.9566,-2.9782,-3.0404,-3.0514,-3.0307,-2.9523,-2.9018,-2.8909,-2.859,-2.8662,-2.895,-2.9518,-2.9951,-3.0272,-3.0456,-2.9755,-2.9017,-2.8682,-2.808,-2.7317,-2.9779,-2.9779,-2.9779,-2.9779,-2.9779,-2.9779,-2.9779,-2.9779,-2.9779,-2.9779,-2.9779,-2.9779,-2.9779,-2.9779,-2.9779,-2.9779,-2.9779,-2.9779,-2.9779,-2.9779,-2.9779,-2.9779,-2.9779,-2.9779,-2.9779,-2.9779,-2.9779,-2.9779,-2.9779,-2.9779,-2.9779,-2.9779,-2.9779,-2.9779,-2.9753,-2.9275,-2.9106,-2.8988,-2.87,-2.8422,-2.8343,-2.7787,-2.7493,-2.7331,-2.6801,-2.6483,-2.6468,-2.6192,-2.6479,-2.707,-2.7074,-2.687,-2.6549,-2.6669,-2.6596,-2.6561,-2.6381,-2.6392,-2.6404,-2.6283,-2.6258,-2.633,-2.6725,-2.7014,-2.7179,-2.7903,-2.841,-2.8343,-2.8422,-2.8422,-2.8422,-2.8422,-2.8038,-2.7325,-2.7357,-2.7249,-2.6809,-2.6625,-2.6512,-2.6487,-2.6487,-2.6487,-2.6487,-2.6487,-2.6487,-2.6589,-2.6871,-2.7074,-2.7263,-2.7736,-2.8136,-2.8363,-2.8556,-2.8652,-2.8907,-2.9034,-2.9066,-2.9611,-2.9547,-2.9421,-2.9134,-2.8371,-2.8147,-2.8082,-2.8116,-2.8295,-2.8904,-2.9384,-2.954,-2.941,-2.8783,-2.8431,-2.8165,-2.7623,-2.6888,-2.9779,-2.9779,-2.9779,-2.9779,-2.9779,-2.9779,-2.9779,-2.9779,-2.9779,-2.9779,-2.9779,-2.9779,-2.9779,-2.9779,-2.9779,-2.9753,-2.9573,-2.9702,-2.9779,-2.9779,-2.9779,-2.9779,-2.9779,-2.9779,-2.9779,-2.9779,-2.9779,-2.9779,-2.9702,-2.9663,-2.9573,-2.9365,-2.9365,-2.9378,-2.8961,-2.8359,-2.7976,-2.7815,-2.7261,-2.6935,-2.6812,-2.6554,-2.6348,-2.6265,-2.5922,-2.5777,-2.5861,-2.5845,-2.565,-2.4774,-2.5332,-2.5543,-2.4973,-2.5515,-2.5442,-2.5011,-2.5202,-2.5147,-2.4662,-2.5108,-2.506,-2.5245,-2.552,-2.5579,-2.5926,-2.6483,-2.6894,-2.6935,-2.6524,-2.6771,-2.6789,-2.6603,-2.6307,-2.5835,-2.6062,-2.6427,-2.6793,-2.6674,-2.6487,-2.6487,-2.6487,-2.6487,-2.6487,-2.6487,-2.6487,-2.6487,-2.6679,-2.6748,-2.6782,-2.6994,-2.7317,-2.7537,-2.769,-2.7855,-2.8214,-2.857,-2.862,-2.8775,-2.8494,-2.8397,-2.8651,-2.8172,-2.782,-2.7685,-2.782,-2.7993,-2.8295,-2.8614,-2.8873,-2.8856,-2.8544,-2.8192,-2.7784,-2.7047,-2.6315,-2.9779,-2.9779,-2.9779,-2.9779,-2.9779,-2.9779,-2.974,-2.9702,-2.974,-2.9573,-2.974,-2.974,-2.9702,-2.9702,-2.9534,-2.9326,-2.8648,-2.9209,-2.9779,-2.9779,-2.9779,-2.9792,-2.9714,-2.9624,-2.9702,-2.9702,-2.974,-2.974,-2.9585,-2.8819,-2.8478,-2.8398,-2.7839,-2.7221,-2.7261,-2.7128,-2.683,-2.6801,-2.6524,-2.6307,-2.6099,-2.5515,-2.5179,-2.5083,-2.4425,-2.393,-2.3844,-2.3854,-2.3592,-2.3678,-2.4916,-2.5795,-2.5558,-2.5509,-2.5274,-2.5068,-2.5158,-2.5287,-2.5271,-2.5123,-2.5394,-2.5227,-2.5275,-2.5601,-2.5634,-2.6028,-2.6367,-2.6472,-2.6483,-2.6276,-2.6202,-2.6073,-2.5639,-2.5271,-2.4975,-2.4816,-2.5057,-2.585,-2.6236,-2.6349,-2.6383,-2.6487,-2.6452,-2.6487,-2.6487,-2.6487,-2.6487,-2.6487,-2.6487,-2.6487,-2.6714,-2.6994,-2.7061,-2.7217,-2.7351,-2.7736,-2.7966,-2.7967,-2.7701,-2.7648,-2.7897,-2.7735,-2.7284,-2.7331,-2.761,-2.781,-2.7968,-2.8222,-2.8559,-2.8435,-2.828,-2.7842,-2.7315,-2.6527,-2.5963,-2.9779,-2.9753,-2.9248,-2.8988,-2.891,-2.8462,-2.8263,-2.8251,-2.8263,-2.8251,-2.8251,-2.8263,-2.8251,-2.8251,-2.8251,-2.7839,-2.7574,-2.7919,-2.8211,-2.8171,-2.8211,-2.8211,-2.8263,-2.8343,-2.8422,-2.887,-2.8976,-2.8779,-2.8171,-2.7706,-2.7331,-2.7331,-2.6719,-2.6648,-2.6307,-2.5975,-2.5714,-2.5546,-2.5147,-2.4893,-2.4766,-2.4349,-2.4016,-2.3963,-2.343,-2.3101,-2.3178,-2.3135,-2.3018,-2.3212,-2.413,-2.4714,-2.4449,-2.4219,-2.4073,-2.3935,-2.4073,-2.4136,-2.4115,-2.4304,-2.4336,-2.4462,-2.442,-2.443,-2.4451,-2.4777,-2.4872,-2.4893,-2.4851,-2.4893,-2.4861,-2.4482,-2.427,-2.4,-2.3763,-2.3465,-2.3506,-2.433,-2.5099,-2.5217,-2.5406,-2.5664,-2.5838,-2.5978,-2.6383,-2.6383,-2.6418,-2.6418,-2.6487,-2.6487,-2.6487,-2.6645,-2.6589,-2.6611,-2.6611,-2.6837,-2.7229,-2.7216,-2.7059,-2.7144,-2.7361,-2.7045,-2.6633,-2.6878,-2.7163,-2.756,-2.7785,-2.8018,-2.8085,-2.795,-2.7719,-2.7354,-2.6882,-2.6193,-2.5735,-2.9417,-2.9443,-2.8307,-2.7844,-2.7723,-2.6924,-2.6648,-2.6565,-2.6483,-2.6771,-2.6524,-2.6483,-2.6812,-2.6607,-2.6689,-2.6524,-2.6513,-2.6295,-2.6472,-2.6853,-2.6853,-2.6894,-2.6812,-2.6894,-2.6964,-2.7602,-2.7804,-2.7371,-2.6842,-2.6307,-2.6224,-2.6182,-2.5944,-2.561,-2.5557,-2.5094,-2.4553,-2.4414,-2.3844,-2.343,-2.3396,-2.3266,-2.3266,-2.3222,-2.3178,-2.3101,-2.3101,-2.3101,-2.3081,-2.3101,-2.3101,-2.2721,-2.2402,-2.2344,-2.248,-2.2222,-2.2745,-2.2978,-2.309,-2.3116,-2.326,-2.3101,-2.3159,-2.3159,-2.3246,-2.3357,-2.3464,-2.3396,-2.343,-2.3391,-2.3027,-2.3015,-2.2577,-2.2223,-2.2391,-2.2214,-2.206,-2.259,-2.3073,-2.377,-2.4373,-2.4743,-2.4957,-2.517,-2.5769,-2.6245,-2.628,-2.6302,-2.6336,-2.6418,-2.6383,-2.6487,-2.6487,-2.6487,-2.6487,-2.6496,-2.679,-2.6493,-2.6392,-2.6317,-2.6478,-2.6013,-2.5715,-2.6336,-2.6707,-2.7086,-2.7408,-2.7635,-2.7615,-2.7455,-2.7389,-2.7237,-2.6658,-2.5911,-2.5497,-2.7574,-2.8307,-2.7209,-2.676,-2.676,-2.6524,-2.6348,-2.6483,-2.6318,-2.6472,-2.6389,-2.6442,-2.6318,-2.6359,-2.6442,-2.6442,-2.6016,-2.5515,-2.5504,-2.6099,-2.6182,-2.6182,-2.6099,-2.6016,-2.5953,-2.5744,-2.6119,-2.6431,-2.6088,-2.563,-2.5136,-2.4882,-2.4307,-2.3887,-2.3897,-2.3474,-2.3551,-2.3594,-2.3256,-2.3135,-2.3101,-2.3101,-2.3101,-2.3101,-2.3101,-2.3101,-2.3101,-2.3101,-2.3101,-2.3101,-2.3101,-2.3003,-2.2857,-2.2896,-2.2877,-2.2838,-2.2847,-2.2906,-2.2955,-2.3023,-2.3101,-2.3101,-2.3101,-2.3101,-2.3101,-2.3101,-2.3101,-2.3101,-2.3062,-2.2974,-2.2646,-2.2578,-2.2334,-2.2007,-2.1696,-2.1441,-2.1142,-2.1282,-2.1928,-2.2872,-2.3415,-2.377,-2.3952,-2.4253,-2.4767,-2.5146,-2.5252,-2.5534,-2.5791,-2.5978,-2.6164,-2.6302,-2.6487,-2.6487,-2.6487,-2.6449,-2.6463,-2.5954,-2.5646,-2.5109,-2.5101,-2.4734,-2.479,-2.5273,-2.5973,-2.6522,-2.6852,-2.7111,-2.7291,-2.7221,-2.721,-2.7156,-2.6609,-2.5986,-2.5334,-2.6812,-2.7157,-2.6088,-2.563,-2.5515,-2.4978,-2.4723,-2.4723,-2.4734,-2.4723,-2.4723,-2.4723,-2.4723,-2.4734,-2.4723,-2.4723,-2.4595,-2.4264,-2.4264,-2.4691,-2.4723,-2.4723,-2.4808,-2.4808,-2.4425,-2.4178,-2.451,-2.4819,-2.4691,-2.4221,-2.4006,-2.3844,-2.3299,-2.3091,-2.3101,-2.3178,-2.3101,-2.3101,-2.3101,-2.3101,-2.3101,-2.3101,-2.3101,-2.3101,-2.3101,-2.3101,-2.3101,-2.3101,-2.3101,-2.3101,-2.3101,-2.3101,-2.3101,-2.3101,-2.3101,-2.3101,-2.3101,-2.3101,-2.3101,-2.3101,-2.3101,-2.3101,-2.3101,-2.3101,-2.3101,-2.3101,-2.3091,-2.3081,-2.3091,-2.3023,-2.2838,-2.2656,-2.2422,-2.2207,-2.1826,-2.1396,-2.1045,-2.0928,-2.1454,-2.2187,-2.2451,-2.2702,-2.284,-2.322,-2.3708,-2.4011,-2.4192,-2.4624,-2.5087,-2.524,-2.5394,-2.5394,-2.5499,-2.5838,-2.5906,-2.6074,-2.6079,-2.5586,-2.5059,-2.4531,-2.4135,-2.3996,-2.3857,-2.4018,-2.4796,-2.5701,-2.5973,-2.6162,-2.6575,-2.6956,-2.6828,-2.6671,-2.649,-2.6078,-2.5401,-2.5933,-2.6058,-2.4925,-2.4457,-2.4296,-2.3507,-2.3135,-2.3101,-2.3178,-2.3222,-2.3101,-2.3178,-2.3222,-2.3135,-2.3178,-2.3178,-2.3101,-2.3135,-2.3266,-2.3309,-2.3343,-2.3178,-2.3144,-2.3101,-2.3222,-2.3387,-2.3343,-2.3101,-2.3387,-2.3309,-2.3178,-2.3222,-2.3135,-2.3101,-2.3101,-2.3101,-2.3101,-2.3101,-2.3101,-2.3101,-2.3101,-2.3101,-2.3101,-2.3101,-2.3101,-2.3101,-2.3101,-2.3101,-2.3101,-2.3101,-2.3101,-2.3101,-2.3101,-2.3101,-2.3101,-2.3101,-2.3101,-2.3101,-2.3101,-2.3101,-2.3101,-2.3101,-2.3101,-2.3101,-2.3101,-2.3091,-2.3062,-2.3003,-2.3071,-2.3013,-2.2847,-2.274,-2.2617,-2.2441,-2.2178,-2.1826,-2.1337,-2.1103,-2.0908,-2.1317,-2.1512,-2.1669,-2.1849,-2.2,-2.2451,-2.2999,-2.322,-2.3635,-2.4061,-2.4061,-2.4145,-2.4108,-2.4301,-2.4814,-2.5145,-2.5489,-2.5478,-2.5302,-2.4763,-2.4268,-2.3841,-2.3493,-2.3432,-2.3442,-2.3872,-2.4696,-2.4951,-2.5342,-2.5864,-2.6188,-2.6256,-2.6205,-2.6,-2.5818,-2.5364,-2.4092,-2.4914,-2.38,-2.3309,-2.3299,-2.3178,-2.3101,-2.3101,-2.3101,-2.3101,-2.3101,-2.3101,-2.3101,-2.3101,-2.3101,-2.3101,-2.3101,-2.3101,-2.3101,-2.3101,-2.3101,-2.3101,-2.3101,-2.3101,-2.3101,-2.3101,-2.3101,-2.3101,-2.3101,-2.3101,-2.3101,-2.3101,-2.3101,-2.3101,-2.3101,-2.3101,-2.3101,-2.3101,-2.3101,-2.3101,-2.3101,-2.3101,-2.3101,-2.3101,-2.3101,-2.3101,-2.3101,-2.3101,-2.3101,-2.3101,-2.3101,-2.3101,-2.3101,-2.3101,-2.3101,-2.3101,-2.3101,-2.3101,-2.3101,-2.3101,-2.3101,-2.3101,-2.3101,-2.3101,-2.3101,-2.3071,-2.2964,-2.2574,-2.2867,-2.2964,-2.2871,-2.2867,-2.2769,-2.2685,-2.25,-2.198,-2.1512,-2.1531,-2.1338,-2.0938,-2.1211,-2.1003,-2.0972,-2.1049,-2.1193,-2.1745,-2.2291,-2.2702,-2.2925,-2.285,-2.2888,-2.285,-2.322,-2.3745,-2.4066,-2.4449,-2.4576,-2.4637,-2.43,-2.3797,-2.3399,-2.3033,-2.3195,-2.3305,-2.3619,-2.3855,-2.4221,-2.4696,-2.5217,-2.5453,-2.5508,-2.5536,-2.5508,-2.5335,-2.512,-2.3377,-2.38,-2.3299,-2.3101,-2.3101,-2.3101,-2.3101,-2.3101,-2.3101,-2.3101,-2.3101,-2.3101,-2.3101,-2.3101,-2.3101,-2.3101,-2.3101,-2.3101,-2.3101,-2.3101,-2.3101,-2.3101,-2.3101,-2.3101,-2.3101,-2.3101,-2.3101,-2.3101,-2.3101,-2.3101,-2.3101,-2.3101,-2.3101,-2.3101,-2.3101,-2.3101,-2.3101,-2.3101,-2.3101,-2.3101,-2.3101,-2.3101,-2.3101,-2.3101,-2.3101,-2.3101,-2.3101,-2.3101,-2.3101,-2.3101,-2.3101,-2.3101,-2.3101,-2.3101,-2.3101,-2.3101,-2.3101,-2.3101,-2.3101,-2.3101,-2.3101,-2.3101,-2.3101,-2.3101,-2.3101,-2.3081,-2.3042,-2.2867,-2.2984,-2.2974,-2.291,-2.2994,-2.2964,-2.2877,-2.276,-2.2428,-2.2029,-2.198,-2.1855,-2.1367,-2.0908,-2.0801,-2.0713,-2.0731,-2.0838,-2.1088,-2.1375,-2.1565,-2.1642,-2.1527,-2.1565,-2.1631,-2.2151,-2.2739,-2.2981,-2.325,-2.3259,-2.3309,-2.3393,-2.2994,-2.2756,-2.2622,-2.272,-2.2975,-2.3245,-2.3484,-2.3649,-2.3872,-2.4266,-2.4525,-2.4753,-2.4784,-2.4843,-2.4749,-2.4523,-2.3101,-2.3101,-2.3101,-2.3101,-2.3101,-2.3101,-2.3101,-2.3101,-2.3101,-2.3101,-2.3101,-2.3101,-2.3101,-2.3101,-2.3101,-2.3101,-2.3101,-2.3101,-2.3101,-2.3101,-2.3101,-2.3101,-2.3101,-2.3101,-2.3101,-2.3101,-2.3101,-2.3101,-2.3101,-2.3101,-2.3101,-2.3101,-2.3101,-2.3101,-2.3101,-2.3101,-2.3101,-2.3101,-2.3101,-2.3101,-2.3101,-2.3101,-2.3101,-2.3101,-2.3101,-2.3101,-2.3101,-2.3101,-2.3101,-2.3101,-2.3101,-2.3101,-2.3101,-2.3101,-2.3101,-2.3101,-2.3101,-2.3101,-2.3101,-2.3101,-2.3101,-2.3101,-2.3101,-2.3101,-2.3101,-2.3101,-2.3091,-2.3042,-2.3071,-2.3091,-2.3091,-2.3091,-2.3062,-2.3052,-2.3033,-2.2808,-2.2574,-2.2389,-2.2148,-2.166,-2.125,-2.1025,-2.0869,-2.0703,-2.0625,-2.0615,-2.0615,-2.0615,-2.0644,-2.0683,-2.0789,-2.1049,-2.127,-2.1914,-2.2264,-2.2364,-2.2196,-2.2058,-2.2154,-2.2084,-2.18,-2.1908,-2.2125,-2.2445,-2.2763,-2.3065,-2.3233,-2.3233,-2.3245,-2.3636,-2.3992,-2.4105,-2.4121,-2.4054,-2.4172,-2.3101,-2.3101,-2.3101,-2.3101,-2.3101,-2.3101,-2.3101,-2.3101,-2.3101,-2.3101,-2.3101,-2.3101,-2.3101,-2.3101,-2.3101,-2.3101,-2.3101,-2.3101,-2.3101,-2.3101,-2.3101,-2.3101,-2.3101,-2.3101,-2.3101,-2.3101,-2.3101,-2.3101,-2.3101,-2.3101,-2.3101,-2.3101,-2.3101,-2.3101,-2.3101,-2.3101,-2.3101,-2.3101,-2.3101,-2.3101,-2.3101,-2.3101,-2.3101,-2.3101,-2.3101,-2.3101,-2.3101,-2.3101,-2.3101,-2.3101,-2.3101,-2.3101,-2.3101,-2.3101,-2.3101,-2.3101,-2.3101,-2.3101,-2.3101,-2.3101,-2.3101,-2.3101,-2.3101,-2.3101,-2.3101,-2.3101,-2.3101,-2.3101,-2.3101,-2.3101,-2.3101,-2.3101,-2.3101,-2.3101,-2.3071,-2.2935,-2.274,-2.2656,-2.2353,-2.1904,-2.1621,-2.1426,-2.1084,-2.0879,-2.0674,-2.0644,-2.0615,-2.0615,-2.0615,-2.0644,-2.0644,-2.0722,-2.0683,-2.1135,-2.1755,-2.1655,-2.1125,-2.1032,-2.1107,-2.0961,-2.0732,-2.1005,-2.1522,-2.171,-2.199,-2.2402,-2.2763,-2.272,-2.2781,-2.3005,-2.3255,-2.3533,-2.3412,-2.3197,-2.3647,-2.3101,-2.3101,-2.3101,-2.3101,-2.3101,-2.3101,-2.3101,-2.3101,-2.3101,-2.3101,-2.3101,-2.3101,-2.3101,-2.3101,-2.3101,-2.3101,-2.3101,-2.3101,-2.3101,-2.3101,-2.3101,-2.3101,-2.3101,-2.3101,-2.3101,-2.3101,-2.3101,-2.3101,-2.3101,-2.3101,-2.3101,-2.3101,-2.3101,-2.3101,-2.3101,-2.3101,-2.3101,-2.3101,-2.3101,-2.3101,-2.3101,-2.3101,-2.3101,-2.3101,-2.3101,-2.3101,-2.3101,-2.3101,-2.3101,-2.3101,-2.3101,-2.3101,-2.3101,-2.3101,-2.3101,-2.3101,-2.3101,-2.3101,-2.3101,-2.3101,-2.3101,-2.3101,-2.3101,-2.3101,-2.3101,-2.3101,-2.3101,-2.3101,-2.3101,-2.3101,-2.3101,-2.3101,-2.3101,-2.3101,-2.3052,-2.2964,-2.2896,-2.2789,-2.2685,-2.2305,-2.207,-2.1875,-2.1484,-2.1054,-2.084,-2.0674,-2.0635,-2.0615,-2.0615,-2.0615,-2.0615,-2.0615,-2.0615,-2.0615,-2.1171,-2.0707,-2.0021,-2.0083,-2.0156,-1.9971,-1.9889,-2.0494,-2.0942,-2.1069,-2.1132,-2.1385,-2.171,-2.2063,-2.2384,-2.272,-2.2962,-2.3148,-2.2888,-2.2531,-2.2981,-2.3101,-2.3101,-2.3101,-2.3101,-2.3101,-2.3101,-2.3101,-2.3101,-2.3101,-2.3101,-2.3101,-2.3101,-2.3101,-2.3101,-2.3101,-2.3101,-2.3101,-2.3101,-2.3101,-2.3101,-2.3101,-2.3101,-2.3101,-2.3101,-2.3101,-2.3101,-2.3101,-2.3101,-2.3101,-2.3101,-2.3101,-2.3101,-2.3101,-2.3101,-2.3101,-2.3101,-2.3101,-2.3101,-2.3101,-2.3101,-2.3101,-2.3101,-2.3101,-2.3101,-2.3101,-2.3101,-2.3101,-2.3101,-2.3101,-2.3101,-2.3101,-2.3101,-2.3101,-2.3101,-2.3101,-2.3101,-2.3101,-2.3101,-2.3101,-2.3101,-2.3101,-2.3101,-2.3101,-2.3101,-2.3091,-2.3091,-2.3101,-2.3101,-2.3101,-2.3047,-2.3047,-2.3101,-2.3101,-2.3101,-2.3101,-2.3033,-2.3042,-2.2974,-2.2867,-2.2725,-2.248,-2.2158,-2.158,-2.1092,-2.0634,-2.0528,-2.0635,-2.0615,-2.0615,-2.0615,-2.0615,-2.0615,-2.0615,-2.0615,-2.0605,-2.0274,-1.9926,-1.9553,-1.9538,-1.9148,-1.9214,-1.9791,-2.0161,-2.0204,-2.0268,-2.0333,-2.0762,-2.127,-2.1896,-2.2537,-2.2633,-2.2678,-2.2836,-2.258,-2.249,-2.3101,-2.3101,-2.3101,-2.3101,-2.3101,-2.3101,-2.3101,-2.3101,-2.3101,-2.3101,-2.3101,-2.3101,-2.3101,-2.3101,-2.3101,-2.3101,-2.3101,-2.3101,-2.3101,-2.3101,-2.3101,-2.3101,-2.3101,-2.3101,-2.3101,-2.3101,-2.3101,-2.3101,-2.3101,-2.3101,-2.3101,-2.3101,-2.3101,-2.3101,-2.3101,-2.3101,-2.3101,-2.3101,-2.3101,-2.3101,-2.3101,-2.3101,-2.3101,-2.3101,-2.3101,-2.3101,-2.3101,-2.3101,-2.3101,-2.3101,-2.3101,-2.3101,-2.3101,-2.3101,-2.3101,-2.3101,-2.3101,-2.3101,-2.3101,-2.3091,-2.3003,-2.3047,-2.3101,-2.3101,-2.3091,-2.3047,-2.2862,-2.2633,-2.2633,-2.2818,-2.296,-2.3003,-2.2906,-2.3047,-2.3047,-2.296,-2.296,-2.2677,-2.2475,-2.2829,-2.2685,-2.2324,-2.1707,-2.11,-2.0486,-2.0323,-2.0527,-2.0576,-2.0566,-2.0605,-2.0605,-2.0615,-2.0615,-2.0615,-2.0546,-2.0156,-1.9774,-1.9346,-1.9072,-1.8889,-1.8616,-1.8788,-1.9088,-1.9285,-1.9365,-1.9431,-1.9987,-2.0602,-2.1132,-2.1662,-2.2007,-2.2184,-2.2417,-2.2585,-2.2477,-2.3101,-2.3101,-2.3101,-2.3101,-2.3101,-2.3101,-2.3101,-2.3101,-2.3101,-2.3101,-2.3101,-2.3101,-2.3101,-2.3101,-2.3101,-2.3101,-2.3101,-2.3101,-2.3101,-2.3101,-2.3101,-2.3101,-2.3101,-2.3101,-2.3101,-2.3101,-2.3101,-2.3101,-2.3101,-2.3101,-2.3101,-2.3101,-2.3101,-2.3101,-2.3101,-2.3101,-2.3101,-2.3101,-2.3101,-2.3101,-2.3101,-2.3101,-2.3101,-2.3101,-2.3101,-2.3101,-2.3101,-2.3101,-2.3047,-2.296,-2.296,-2.2906,-2.2872,-2.2872,-2.296,-2.3003,-2.3047,-2.3101,-2.2862,-2.2589,-2.235,-2.2677,-2.2872,-2.2818,-2.3047,-2.2262,-2.2031,-2.1721,-2.1355,-2.14,-2.1667,-2.18,-2.1943,-2.2677,-2.2775,-2.2633,-2.2492,-2.2031,-2.1852,-2.2673,-2.2877,-2.1764,-2.0941,-2.0076,-1.9434,-1.9427,-1.9576,-2.0225,-2.0372,-2.0527,-2.0566,-2.0605,-2.0615,-2.0615,-2.0507,-2.0225,-1.999,-1.9658,-1.9307,-1.9017,-1.8717,-1.8403,-1.838,-1.8748,-1.8633,-1.8529,-1.9077,-1.9595,-2.0204,-2.0681,-2.0896,-2.1454,-2.1922,-2.2201,-2.2353,-2.3101,-2.3101,-2.3101,-2.3101,-2.3101,-2.3101,-2.3101,-2.3101,-2.3101,-2.3101,-2.3101,-2.3101,-2.3101,-2.3101,-2.3101,-2.3101,-2.3101,-2.3101,-2.3101,-2.3101,-2.3101,-2.3101,-2.3101,-2.3101,-2.3101,-2.3101,-2.3101,-2.3101,-2.3101,-2.3101,-2.3101,-2.3101,-2.3101,-2.3101,-2.3101,-2.3101,-2.3101,-2.3101,-2.3101,-2.3101,-2.3101,-2.3101,-2.3101,-2.3101,-2.3101,-2.3101,-2.3101,-2.3047,-2.2862,-2.2633,-2.2448,-2.2262,-2.2094,-2.1908,-2.1863,-2.1863,-2.1863,-2.1996,-2.2031,-2.1311,-2.1123,-2.1498,-2.1863,-2.1863,-2.181,-2.1033,-2.08,-2.044,-1.9807,-2.0034,-2.0477,-2.0666,-2.0989,-2.1632,-2.1587,-2.1445,-2.1391,-2.089,-2.0854,-2.1721,-2.1806,-2.0761,-1.996,-1.9022,-1.8136,-1.8376,-1.8593,-1.9286,-1.9931,-2.001,-2.0245,-2.045,-2.0489,-2.0527,-2.0518,-2.0429,-2.0156,-1.9941,-1.9648,-1.9355,-1.8975,-1.8711,-1.8461,-1.8227,-1.8262,-1.8265,-1.8212,-1.8596,-1.9177,-1.9464,-1.9509,-2.0234,-2.1195,-2.1647,-2.1896,-2.3101,-2.3101,-2.3101,-2.3101,-2.3101,-2.3101,-2.3101,-2.3101,-2.3101,-2.3101,-2.3101,-2.3101,-2.3101,-2.3101,-2.3101,-2.3101,-2.3101,-2.3101,-2.3101,-2.3101,-2.3101,-2.3101,-2.3101,-2.3101,-2.3101,-2.3101,-2.3101,-2.3101,-2.3101,-2.3101,-2.3101,-2.3101,-2.3101,-2.3101,-2.3101,-2.3101,-2.3101,-2.3101,-2.3101,-2.3101,-2.3101,-2.3101,-2.3101,-2.3101,-2.3101,-2.296,-2.2862,-2.2721,-2.2173,-2.1667,-2.1257,-2.0576,-2.0042,-1.9542,-1.9542,-1.9633,-1.977,-2.044,-2.0845,-2.0079,-1.9588,-1.977,-1.9451,-1.9443,-1.967,-1.977,-1.9497,-1.9306,-1.8902,-1.9123,-1.9397,-1.9443,-1.9534,-1.9724,-1.9724,-1.9716,-1.9761,-1.967,-1.9625,-1.9835,-1.9731,-1.9153,-1.8636,-1.7811,-1.7083,-1.7019,-1.7263,-1.7788,-1.84,-1.8895,-1.9253,-2.0128,-2.0245,-2.044,-2.043,-2.0411,-2.041,-2.0166,-2.0078,-1.9795,-1.9404,-1.9033,-1.8783,-1.8539,-1.8188,-1.8066,-1.8095,-1.8076,-1.8168,-1.8371,-1.8654,-1.9266,-2.0333,-2.0942,-2.1279,-2.3101,-2.3101,-2.3101,-2.3101,-2.3101,-2.3101,-2.3101,-2.3101,-2.3101,-2.3101,-2.3101,-2.3101,-2.3101,-2.3101,-2.3101,-2.3101,-2.3101,-2.3101,-2.3101,-2.3101,-2.3101,-2.3101,-2.3101,-2.3101,-2.3101,-2.3101,-2.3101,-2.3101,-2.3101,-2.3101,-2.3101,-2.3101,-2.3101,-2.3101,-2.3101,-2.3091,-2.3003,-2.3047,-2.3003,-2.3101,-2.3047,-2.3003,-2.3003,-2.296,-2.2775,-2.2501,-2.1987,-2.18,-2.1168,-2.026,-2.0034,-1.967,-1.9633,-1.9497,-1.9497,-1.9497,-1.9588,-1.9724,-1.977,-1.891,-1.8226,-1.7994,-1.7529,-1.8172,-1.8588,-1.868,-1.8226,-1.8033,-1.7716,-1.7708,-1.8033,-1.8218,-1.8449,-1.8626,-1.8534,-1.8403,-1.8488,-1.8442,-1.8442,-1.8594,-1.8493,-1.7925,-1.7399,-1.6736,-1.6073,-1.5848,-1.5944,-1.648,-1.6967,-1.7532,-1.8256,-1.9173,-1.9481,-1.9511,-2.0196,-2.0353,-2.044,-2.0458,-2.0312,-2.0176,-1.9853,-1.9502,-1.9182,-1.8763,-1.8286,-1.8096,-1.8018,-1.8008,-1.8008,-1.8008,-1.8269,-1.8787,-1.9365,-2.0009,-2.0558,-2.3101,-2.3101,-2.3101,-2.3101,-2.3101,-2.3101,-2.3101,-2.3101,-2.3101,-2.3101,-2.3101,-2.3101,-2.3101,-2.3101,-2.3101,-2.3101,-2.3101,-2.3101,-2.3101,-2.3101,-2.3101,-2.3101,-2.3101,-2.3101,-2.3101,-2.3101,-2.3101,-2.3101,-2.3101,-2.3101,-2.3101,-2.3101,-2.3101,-2.3091,-2.296,-2.2589,-2.2315,-2.2492,-2.2721,-2.3003,-2.2916,-2.2589,-2.2403,-2.2325,-2.2094,-2.1311,-2.0755,-2.0576,-1.9943,-1.8993,-1.8818,-1.8449,-1.8218,-1.7987,-1.8449,-1.8357,-1.8079,-1.8311,-1.8403,-1.7623,-1.7131,-1.6763,-1.6292,-1.6709,-1.707,-1.7257,-1.703,-1.6842,-1.6386,-1.6157,-1.6574,-1.7037,-1.7444,-1.784,-1.7576,-1.7304,-1.7257,-1.721,-1.7375,-1.7632,-1.7335,-1.6813,-1.6211,-1.5586,-1.5236,-1.5325,-1.5383,-1.5637,-1.6053,-1.6526,-1.7244,-1.8135,-1.8318,-1.8461,-1.9195,-1.9835,-1.9806,-1.9944,-2.0411,-2.0265,-2.0128,-1.9816,-1.9333,-1.8825,-1.8276,-1.8164,-1.8076,-1.8018,-1.8008,-1.8008,-1.8008,-1.8327,-1.8787,-1.9266,-1.9716,-2.3101,-2.3101,-2.3101,-2.3101,-2.3101,-2.3101,-2.3101,-2.3101,-2.3101,-2.3101,-2.3101,-2.3101,-2.3101,-2.3101,-2.3101,-2.3101,-2.3101,-2.3101,-2.3101,-2.3101,-2.3101,-2.3101,-2.3101,-2.3101,-2.3101,-2.3101,-2.3101,-2.3101,-2.3101,-2.3101,-2.3101,-2.3091,-2.2818,-2.2721,-2.2536,-2.1623,-2.1212,-2.1257,-2.181,-2.2227,-2.2138,-2.1721,-2.1123,-2.0962,-2.0367,-1.9542,-1.9405,-1.9177,-1.881,-1.8002,-1.7412,-1.6943,-1.652,-1.6197,-1.6796,-1.6936,-1.6756,-1.6936,-1.7124,-1.6615,-1.6197,-1.5967,-1.5825,-1.6015,-1.6244,-1.6379,-1.6292,-1.6244,-1.592,-1.5879,-1.6251,-1.6339,-1.6608,-1.6788,-1.6608,-1.6473,-1.6473,-1.6426,-1.6513,-1.6727,-1.6605,-1.6092,-1.5997,-1.5504,-1.5498,-1.5264,-1.5256,-1.5349,-1.5449,-1.5828,-1.6379,-1.7162,-1.7204,-1.7391,-1.798,-1.851,-1.8789,-1.9146,-1.9678,-1.9737,-1.9187,-1.9211,-1.9443,-1.886,-1.8318,-1.8216,-1.8154,-1.8096,-1.8037,-1.8008,-1.8008,-1.8008,-1.8293,-1.8721,-1.8877,-2.3101,-2.3101,-2.3101,-2.3101,-2.3101,-2.3101,-2.3101,-2.3101,-2.3101,-2.3101,-2.3101,-2.3101,-2.3101,-2.3101,-2.3101,-2.3101,-2.3101,-2.3101,-2.3101,-2.3101,-2.3101,-2.3101,-2.3101,-2.3101,-2.3101,-2.3101,-2.3101,-2.3047,-2.2906,-2.296,-2.3003,-2.2862,-2.2315,-2.1712,-2.1614,-2.0531,-1.9988,-1.9988,-2.0034,-2.0359,-2.0223,-2.0223,-1.9906,-1.9861,-1.9405,-1.8718,-1.8449,-1.8095,-1.7358,-1.6527,-1.6292,-1.6062,-1.5825,-1.5825,-1.5967,-1.6109,-1.6069,-1.6157,-1.615,-1.6109,-1.5872,-1.5825,-1.5825,-1.5825,-1.5825,-1.5825,-1.5825,-1.5825,-1.5825,-1.5825,-1.5825,-1.5825,-1.5825,-1.5825,-1.5825,-1.5825,-1.5825,-1.5825,-1.5825,-1.5825,-1.5825,-1.5792,-1.5691,-1.5678,-1.5732,-1.5705,-1.5678,-1.5625,-1.5457,-1.5628,-1.5803,-1.6299,-1.6122,-1.636,-1.6829,-1.7293,-1.7609,-1.7819,-1.823,-1.827,-1.827,-1.8383,-1.8533,-1.8602,-1.8376,-1.8314,-1.8249,-1.8164,-1.8105,-1.8105,-1.8008,-1.8008,-1.8008,-1.8327,-1.8303,-2.3101,-2.3101,-2.3101,-2.3101,-2.3101,-2.3101,-2.3101,-2.3101,-2.3101,-2.3101,-2.3101,-2.3101,-2.3101,-2.3101,-2.3101,-2.3101,-2.3101,-2.3101,-2.3101,-2.3101,-2.3101,-2.3101,-2.3101,-2.3101,-2.3101,-2.3091,-2.3047,-2.295,-2.2403,-2.2217,-2.2085,-2.1632,-2.0755,-2.044,-2.0305,-1.9405,-1.8726,-1.8688,-1.8265,-1.8033,-1.8126,-1.8357,-1.8642,-1.868,-1.8126,-1.7576,-1.721,-1.685,-1.648,-1.6015,-1.592,-1.5872,-1.5825,-1.5825,-1.5825,-1.5872,-1.5825,-1.5825,-1.5825,-1.5825,-1.5825,-1.5825,-1.5825,-1.5825,-1.5825,-1.5825,-1.5825,-1.5825,-1.5825,-1.5825,-1.5825,-1.5825,-1.5825,-1.5825,-1.5825,-1.5825,-1.5825,-1.5825,-1.5825,-1.5825,-1.5825,-1.5818,-1.5785,-1.5778,-1.5785,-1.5785,-1.5771,-1.5771,-1.5631,-1.5471,-1.5638,-1.566,-1.5562,-1.5274,-1.536,-1.5951,-1.6552,-1.6723,-1.6854,-1.7302,-1.7592,-1.7559,-1.7618,-1.7887,-1.8181,-1.8448,-1.8368,-1.812,-1.8265,-1.8344,-1.8193,-1.8008,-1.7974,-1.7896,-1.8008,-2.3101,-2.3101,-2.3101,-2.3101,-2.3101,-2.3101,-2.3101,-2.3101,-2.3101,-2.3101,-2.3101,-2.3101,-2.3101,-2.3101,-2.3101,-2.3101,-2.3101,-2.3101,-2.3101,-2.3101,-2.3101,-2.3101,-2.3101,-2.3101,-2.2916,-2.2589,-2.2359,-2.1756,-2.1114,-2.1025,-2.0621,-1.967,-1.936,-1.9268,-1.891,-1.818,-1.7451,-1.7264,-1.6842,-1.615,-1.6339,-1.6803,-1.7271,-1.7037,-1.648,-1.5872,-1.5825,-1.5825,-1.5825,-1.5825,-1.5825,-1.5825,-1.5825,-1.5825,-1.5825,-1.5825,-1.5825,-1.5825,-1.5825,-1.5825,-1.5825,-1.5825,-1.5825,-1.5825,-1.5825,-1.5825,-1.5825,-1.5825,-1.5825,-1.5825,-1.5825,-1.5825,-1.5825,-1.5825,-1.5825,-1.5825,-1.5825,-1.5825,-1.5825,-1.5825,-1.5825,-1.5825,-1.5825,-1.5825,-1.5825,-1.5825,-1.5825,-1.5825,-1.5778,-1.5631,-1.5609,-1.5522,-1.5377,-1.4989,-1.4547,-1.4838,-1.5609,-1.5587,-1.5801,-1.6453,-1.6895,-1.671,-1.6883,-1.7414,-1.7731,-1.792,-1.8009,-1.7825,-1.8067,-1.8112,-1.7567,-1.7134,-1.7501,-1.7501,-1.7794,-2.3101,-2.3101,-2.3101,-2.3101,-2.3101,-2.3101,-2.3101,-2.3101,-2.3101,-2.3101,-2.3101,-2.3101,-2.3101,-2.3101,-2.3101,-2.3101,-2.3101,-2.3091,-2.3101,-2.3101,-2.2862,-2.296,-2.296,-2.2721,-2.2403,-2.1765,-2.0989,-2.0169,-1.9852,-1.9807,-1.9708,-1.926,-1.8226,-1.8002,-1.7816,-1.7037,-1.6339,-1.6197,-1.6197,-1.5825,-1.5825,-1.6103,-1.6055,-1.6008,-1.592,-1.5825,-1.5825,-1.5825,-1.5825,-1.5825,-1.5825,-1.5825,-1.5825,-1.5825,-1.5825,-1.5825,-1.5825,-1.5825,-1.5825,-1.5825,-1.5825,-1.5825,-1.5825,-1.5825,-1.5825,-1.5825,-1.5825,-1.5825,-1.5825,-1.5825,-1.5825,-1.5825,-1.5825,-1.5825,-1.5825,-1.5825,-1.5825,-1.5825,-1.5825,-1.5825,-1.5825,-1.5825,-1.5825,-1.5825,-1.5825,-1.5825,-1.5825,-1.5825,-1.5825,-1.5732,-1.5638,-1.5458,-1.5264,-1.493,-1.4586,-1.435,-1.4719,-1.4643,-1.4699,-1.5228,-1.5594,-1.5745,-1.6034,-1.6637,-1.689,-1.7027,-1.7103,-1.7488,-1.6983,-1.6828,-1.63,-1.6058,-1.6589,-1.6966,-1.7113]},{"header":{"parameterUnit":"m.s-1","parameterCategory":1,"la1":31.0,"la2":29.5877,"lo1":-88.7671,"lo2":-86.6584,"dy":0.0162,"dx":0.0185,"nx":115,"ny":88,"refTime":"2024-05-19T06:00:00:Z","depth":0,"parameterNumber":3,"parameterNumberName":"V-component_of_WINDS"},"data":[0.0,0.0,0.0,0.0,0.0,0.0,0.0,0.0,0.0,0.0,0.0,0.0,0.0,0.0,0.0,0.0,0.0,0.0,0.0,0.0,0.0,0.0,0.0,0.0,0.0,0.0,0.0,0.0,0.0,0.0,0.0,0.0,0.0,0.0,0.0,0.0,0.0,0.0,0.0,0.0,0.0,0.0,0.0,0.0,0.0,0.0,0.0,0.0,0.0,0.0,0.0,0.0,0.0,0.0,0.0,0.0,0.0,0.0,0.0,0.0,0.0,0.0,0.0,0.0,0.0,0.0,0.0,0.0,0.0,0.0,0.0,0.0,0.0,0.0,0.0,0.0,0.0,0.0,0.0,0.0,0.0,0.0,0.0,0.0,0.0,0.0,0.0,0.0,0.0,0.0,0.0,0.0,0.0,0.0,0.0,0.0,0.0,0.0,0.0,0.0,0.0,0.0,0.0,0.0,0.0,0.0,0.0,0.0,0.0,0.0,0.0,0.0,0.0,0.0,0.0,0.0,0.0,0.0,0.0,0.0,0.0,0.0,0.0,0.0,0.0,0.0,0.0,0.0,0.0,0.0,0.0,0.0,0.0,0.0,0.0,0.0,0.0,0.0,0.0,0.0,0.0,0.0,0.0,0.0,0.0,0.0,0.0,0.0,0.0,0.0,0.0,0.0,0.0,0.0,0.0,0.0,0.0,0.0,0.0,0.0,0.0,0.0,0.0,0.0,0.0,0.0,0.0,0.0,0.0,0.0,0.0,0.0,0.0,0.0,0.0,0.0,0.0,0.0,0.0,0.0,0.0,0.0,0.0,0.0,0.0,0.0,0.0,0.0,0.0,0.0,0.0,0.0,0.0,0.0,0.0,0.0,0.0,0.0,0.0,0.0,0.0,0.0,0.0,0.0,0.0,0.0,0.0,0.0,0.0,0.0,0.0,0.0,0.0,0.0,0.0,0.0,0.0,0.0,0.0,0.0,0.0,0.0,0.0,0.0,0.0,0.0,0.0,0.0,0.0,0.0,0.0,0.0,0.0,0.0,0.0,0.0,0.0,0.0,0.0,0.0,0.0,0.0,0.0,0.0,0.0,0.0,0.0,0.0,0.0,0.0,0.0,0.0,0.0,0.0,0.0,0.0,0.0,0.0,0.0,0.0,0.0,0.0,0.0,0.0,0.0,0.0,0.0,0.0,0.0,0.0,0.0,0.0,0.0,0.0,0.0,0.0,0.0,0.0,0.0,0.0,0.0,0.0,0.0,0.0,0.0,0.0,0.0,0.0,0.0,0.0,0.0,0.0,0.0,0.0,0.0,0.0,0.0,0.0,0.0,0.0,0.0,0.0,0.0,0.0,0.0,0.0,0.0,0.0,0.0,0.0,0.0,0.0,0.0,0.0,0.0,0.0,0.0,0.0,0.0,0.0,0.0,0.0,0.0,0.0,0.0,0.0,0.0,0.0,0.0,0.0,0.0,0.0,0.0,0.0,0.0,0.0,0.0,0.0,0.0,0.0,0.0,0.0,0.0,0.0,0.0,0.0,0.0,0.0,0.0,0.0,0.0,0.0,0.0,0.0,0.0,0.0,0.0,0.0,0.0,0.0,0.0,0.0,0.0,0.0,0.0,0.0,0.0,0.0,0.0,0.0,0.0,0.0,0.0,0.0,0.0,0.0,0.0,0.0,0.0,0.0,0.0,0.0,0.0,0.0,0.0,0.0,0.0,0.0,0.0,0.0,0.0,0.0,0.0,0.0,0.0,0.0,0.0,0.0,0.0,0.0,0.0,0.0,0.0,0.0,0.0,0.0,0.0,0.0,0.0,0.0,0.0,0.0,0.0,0.0,0.0,0.0,0.0,0.0,0.0,0.0,0.0,0.0,0.0,0.0,0.0,0.0,0.0,0.0,0.0,0.0,0.0,0.0,0.0,0.0,0.0,0.0,0.0,0.0,0.0,0.0,0.0,0.0,0.0,0.0,0.0,0.0,0.0,0.0,0.0,0.0,0.0,0.0,0.0,0.0,0.0,0.0,0.0,0.0,0.0,0.0,0.0,0.0,0.0,0.0,0.0,0.0,0.0,0.0,0.0,0.0,0.0,0.0,0.0,0.0,0.0,0.0,0.0,0.0,0.0,0.0,0.0,0.0,0.0,0.0,0.0,0.0,0.0,0.0,0.0,0.0,0.0,0.0,0.0,0.0,0.0,0.0,0.0,0.0,0.0,0.0,0.0,0.0,0.0,0.0,0.0,0.0,0.0,0.0,0.0,0.0,0.0,0.0,0.0,0.0,0.0,0.0,0.0,0.0,0.0,0.0,0.0,0.0,0.0,0.0,0.0,0.0,0.0,0.0,0.0,0.0,0.0,0.0,0.0,0.0,0.0,0.0,0.0,0.0,0.0,0.0,0.0,0.0,0.0,0.0,0.0,0.0,0.0,0.0,0.0,0.0,0.0,0.0,0.0,0.0,0.0,0.0,0.0,0.0,0.0,0.0,0.0,0.0,0.0,0.0,0.0,0.0,0.0,0.0,0.0,0.0,0.0,0.0,0.0,0.0,0.0,0.0,0.0,0.0,0.0,0.0,0.0,0.0,0.0,0.0,0.0,0.0,0.0,0.0,0.0,0.0,0.0,0.0,0.0,0.0,0.0,0.0,0.0,0.0,0.0,0.0,0.0,0.0,0.0,0.0,0.0,0.0,0.0,0.0,0.0,0.0,0.0,0.0,0.0,0.0,0.0,0.0,0.0,0.0,0.0,0.0,0.0,0.0,0.0,0.0,0.0,0.0,0.0,0.0,0.0,0.0,0.0,0.0,0.0,0.0,0.0,0.0,0.0,0.0,0.0,0.0,0.0,0.0,0.0,0.0,0.0,0.0,0.0,0.0,0.0,0.0,0.0,0.0,0.0,0.0,0.0,0.0,0.0,0.0,0.0,0.0,0.0,0.0,0.0,0.0,0.0,0.0,0.0,0.0,0.0,0.0,0.0,0.0,0.0,0.0,0.0,0.0,0.0,0.0,0.0,0.0,0.0,0.0,0.0,0.0,0.0,0.0,0.0,0.0,0.0,0.0,0.0,0.0,0.0,0.0,0.0,0.0,0.0,0.0,0.0,0.0,0.0,0.0,0.0,0.0,0.0,0.0,0.0,0.0,0.0,0.0,0.0,0.0,0.0,0.0,0.0,0.0,0.0,0.0,0.0,0.0,0.0,0.0,0.0,0.0,0.0,0.0,0.0,0.0,0.0,0.0,0.0,0.0,0.0,0.0,0.0,0.0,0.0,0.0,0.0,0.0,0.0,0.0,0.0,0.0,0.0,0.0,0.0,0.0,0.0,0.0,0.0,0.0,0.0,0.0,0.0,0.0,0.0,0.0,0.0,0.0,0.0,0.0,0.0,0.0,0.0,0.0,0.0,0.0,0.0,0.0,0.0,0.0,0.0,0.0,0.0,0.0,0.0,0.0,0.0,0.0,0.0,0.0,0.0,0.0,0.0,0.0,0.0,0.0,0.0,0.0,0.0,0.0,0.0,0.0,0.0,0.0,0.0,0.0,0.0,0.0,0.0,0.0,0.0,0.0,0.0,0.0,0.0,0.0,0.0,0.0,0.0,0.0,0.0,0.0,0.0,0.0,0.0,0.0,0.0,0.0,0.0,0.0,0.0,0.0,0.0,0.0,0.0,0.0,0.0,0.0,0.0,0.0,0.0,0.0,0.0,0.0,0.0,0.0,0.0,0.0,0.0,0.0,0.0,0.0,0.0,0.0,0.0,0.0,0.0,0.0,0.0,0.0,0.0,0.0,0.0,0.0,0.0,0.0,0.0,0.0,0.0,0.0,0.0,0.0,0.0,0.0,0.0,0.0,0.0,0.0,0.0,0.0,0.0,0.0,0.0,0.0,0.0,0.0,0.0,0.0,0.0,0.0,0.0,0.0,0.0,0.0,0.0,0.0,0.0,0.0,0.0,0.0,0.0,0.0,0.0,0.0,0.0,0.0,0.0,0.0,0.0,0.0,0.0,0.0,0.0,0.0,0.0,0.0,0.0,0.0,0.0,0.0,0.0,0.0,0.0,0.0,0.0,0.0,0.0,0.0,0.0,0.0,0.0,0.0,0.0,0.0,0.0,0.0,0.0,0.0,0.0,0.0,0.0,0.0,0.0,0.0,0.0,0.0,0.0,0.0,0.0,0.0,0.0,0.0,0.0,0.0,0.0,0.0,0.0,0.0,0.0,0.0,0.0,0.0,0.0,0.0,0.0,0.0,0.0,0.0,0.0,0.0,0.0,0.0,0.0,0.0,0.6651,0.0,0.0,0.0,0.0,0.0,0.0,0.0,0.0,0.0,0.0,0.0,0.0,0.0,0.0,0.0,0.0,0.0,0.0,0.0,0.0,0.0,0.0,0.0,0.0,0.0,0.0,0.0,0.0,0.0,0.0,0.0,0.0,0.0,0.0,0.0,0.0,0.0,0.0,0.0,0.0,0.0,0.0,0.0,0.0,0.0,0.0,0.0,0.0,0.0,0.0,0.0,0.0,0.0,0.0,0.0,0.0,0.0,0.0,0.0,0.0,0.0,0.0,0.0,0.0,0.0,0.0,0.0,0.0,0.0,0.0,0.0,0.0,0.0,0.0,0.0,0.0,0.0,0.0,0.0,0.0,0.0,0.0,0.0,0.0,0.0,0.0,0.0,0.0,0.0,0.0,0.0,0.0,0.0,0.0,0.0,0.0,0.0,0.0,0.0,0.0,0.0,0.0,0.0,0.0,0.0,0.0,0.0,0.0,0.0,0.0,0.7411,0.7492,0.7346,0.7126,0.6831,0.0,0.0,0.0,0.0,0.0,0.0,0.0,0.0,0.0,0.0,0.0,0.0,0.0,0.0,0.0,0.0,0.0,0.0,0.0,0.0,0.0,0.0,0.0,0.0,0.0,0.0,0.0,0.0,0.0,0.0,0.0,0.0,0.0,0.0,0.0,0.0,0.0,0.0,0.0,0.0,0.0,0.0,0.0,0.0,0.0,0.0,0.0,0.0,0.0,0.0,0.0,0.0,0.0,0.0,0.0,0.0,0.0,0.0,0.0,0.0,0.0,0.0,0.0,0.0,0.0,0.0,0.0,0.0,0.0,0.0,0.0,0.0,0.0,0.0,0.0,0.0,0.0,0.0,0.0,0.0,0.0,0.0,0.0,0.0,0.0,0.0,0.0,0.0,0.0,0.0,0.0,0.0,0.0,0.0,0.0,0.0,0.0,0.0,0.0,0.0,0.0,0.0,0.0,0.0,0.0,0.0,0.0,0.0,0.0,0.0,0.0,0.0,0.7579,0.7299,0.6893,0.0,0.0,0.0,0.0,0.0,0.0,0.0,0.0,0.0,0.0,0.0,0.0,0.0,0.0,0.0,0.0,0.0,0.0,0.0,0.0,0.0,0.0,0.0,0.0,0.0,0.0,0.0,0.0,0.0,0.0,0.0,0.0,0.0,0.0,0.0,0.0,0.0,0.0,0.0,0.0,0.0,0.0,0.0,0.0,0.0,0.0,0.0,0.0,0.0,0.0,0.0,0.0,0.0,0.0,0.0,0.0,0.0,0.0,0.0,0.0,0.0,0.0,0.0,0.0,0.0,0.0,0.0,0.0,0.0,0.0,0.0,0.0,0.0,0.0,0.0,0.0,0.0,0.0,0.0,0.0,0.0,0.0,0.0,0.0,0.0,0.0,0.0,0.0,0.0,0.0,0.0,0.0,0.0,0.0,0.0,0.0,0.0,0.0,0.0,0.0,0.0,0.0,0.0,0.0,0.0,0.0,0.0,0.0,0.0,0.0,0.7648,0.7787,0.7773,0.0,0.6913,0.0,0.0,0.0,0.0,0.0,0.0,0.0,0.0,0.0,0.0,0.0,0.0,0.0,0.0,0.0,0.0,0.0,0.0,0.0,0.0,0.0,0.0,0.0,0.0,0.0,0.0,0.0,0.0,0.0,0.0,0.0,0.0,0.0,0.0,0.0,0.0,0.0,0.0,0.0,0.0,0.0,0.0,0.0,0.0,0.0,0.0,0.0,0.0,0.0,0.0,0.0,0.0,0.0,0.0,0.0,0.0,0.0,0.0,0.0,0.0,0.0,0.0,0.0,0.0,0.0,0.0,0.0,0.0,0.0,0.0,0.0,0.0,0.0,0.0,0.0,0.0,0.0,0.0,0.0,0.0,0.0,0.0,0.0,0.0,0.0,0.0,0.0,0.0,0.0,0.0,0.0,0.0,0.0,0.0,0.0,0.0,0.0,0.0,0.0,0.0,0.0,0.0,0.0,0.0,0.0,0.0,0.0,0.0,0.0,0.0,0.7797,0.7894,0.7553,0.7216,0.0,0.0,0.0,0.0,0.0,0.0,0.0,0.0,0.0,0.0,0.0,0.0,0.0,0.0,0.0,0.0,0.0,0.0,0.0,0.0,0.0,0.0,0.0,0.0,0.0,0.0,0.0,0.0,0.0,0.0,0.0,0.0,0.0,0.0,0.0,0.0,0.0,0.0,0.0,0.0,0.0,0.0,0.0,0.0,0.0,0.0,0.0,0.0,0.0,0.0,0.0,0.0,0.0,0.0,0.0,0.0,0.0,0.0,0.0,0.0,0.0,0.0,0.0,0.0,0.0,0.0,0.0,0.0,0.0,0.0,0.0,0.0,0.0,0.0,0.0,0.0,0.0,0.0,0.0,0.0,0.0,0.0,0.0,0.0,0.0,0.0,0.0,0.0,0.0,0.0,0.0,0.0,0.0,0.0,0.0,0.0,0.0,0.0,0.0,0.0,0.0,0.0,0.0,0.0,0.0,0.0,0.0,0.0,0.0,0.0,0.774,0.7865,0.795,0.755,0.72,0.6893,0.0,0.0,0.0,0.0,0.0,0.0,0.0,0.0,0.0,0.0,0.0,0.0,0.0,0.0,0.0,0.0,0.0,0.0,0.0,0.0,0.0,0.0,0.0,0.0,0.0,0.0,0.0,0.0,0.0,0.0,0.0,0.0,0.0,0.0,0.0,0.0,0.0,0.0,0.0,0.0,0.0,0.0,0.0,0.0,0.0,0.0,0.0,0.0,0.0,0.0,0.0,0.0,0.0,0.0,0.0,0.0,0.0,0.0,0.0,0.0,0.0,0.0,0.0,0.0,0.0,0.0,0.0,0.0,0.0,0.0,0.0,0.0,0.0,0.0,0.0,0.0,0.0,0.0,0.0,0.0,0.0,0.0,0.0,0.0,0.0,0.0,0.0,0.0,0.0,0.0,0.0,0.0,0.0,0.0,0.0,0.0,0.0,0.0,0.0,0.0,0.0,0.0,0.0,0.0,0.0,0.0,0.0,0.0,0.7597,0.774,0.7814,0.7831,0.7884,0.7614,0.0,0.0,0.0,0.0,0.0,0.0,0.0,0.0,0.0,0.0,0.0,0.0,0.0,0.0,0.0,0.0,0.0,0.0,0.0,0.0,0.0,0.0,0.0,0.0,0.0,0.0,0.0,0.0,0.0,0.0,0.0,0.0,0.0,0.0,0.0,0.0,0.0,0.0,0.0,0.0,0.0,0.0,0.0,0.0,0.0,0.0,0.0,0.0,0.0,0.0,0.0,0.0,0.0,0.0,0.0,0.0,0.0,0.0,0.0,0.0,0.0,0.0,0.0,0.0,0.0,0.0,0.0,0.0,0.0,0.0,0.0,0.0,0.0,0.0,0.0,0.0,0.0,0.0,0.0,0.0,0.0,0.0,0.0,0.0,0.0,0.0,0.0,0.0,0.0,0.0,0.0,0.0,0.0,0.0,0.0,0.0,0.0,0.0,0.0,0.0,0.0,0.0,0.0,0.0,0.0,0.0,0.0,0.0,0.0,0.7736,0.783,0.7907,0.7901,0.7594,0.7291,0.0,0.0,0.0,0.0,0.0,0.0,0.0,0.0,0.0,0.0,0.0,0.0,0.0,0.0,0.0,0.0,0.0,0.0,0.0,0.0,0.0,0.0,0.0,0.0,0.0,0.0,0.0,0.0,0.0,0.0,0.0,0.0,0.0,0.0,0.0,0.0,0.0,0.0,0.0,0.0,0.0,0.0,0.0,0.0,0.0,0.0,0.0,0.0,0.0,0.0,0.0,0.0,0.0,0.0,0.0,0.0,0.0,0.0,0.0,0.0,0.0,0.0,0.0,0.0,0.0,0.0,0.0,0.0,0.0,0.0,0.0,0.0,0.0,0.0,0.0,0.0,0.0,0.0,0.0,0.0,0.0,0.0,0.0,0.0,0.0,0.0,0.0,0.0,0.0,0.0,0.0,0.0,0.0,0.0,0.0,0.0,0.0,0.0,0.0,0.0,0.0,0.0,0.0,0.0,0.0,0.0,0.0,0.0,0.0,0.7833,0.0,0.7968,0.0,0.7523,0.7223,0.0,0.0,0.0,0.0,0.0,0.0,0.0,0.0,0.0,0.0,0.0,0.0,0.0,0.0,0.0,0.0,0.0,0.0,0.0,0.0,0.0,0.0,0.0,0.0,0.0,0.0,0.0,0.0,0.0,0.0,0.0,0.0,0.0,0.0,0.0,0.0,0.0,0.0,0.0,0.0,0.0,0.0,0.0,0.0,0.0,0.0,0.0,0.0,0.0,0.0,0.0,0.0,0.0,0.0,0.0,0.0,0.0,0.0,0.0,0.0,0.0,0.0,0.0,0.0,0.0,0.0,0.0,0.0,0.0,0.0,0.0,0.0,0.0,0.0,0.0,0.0,0.0,0.0,0.0,0.0,0.0,0.0,0.0,0.0,0.0,0.0,0.0,0.0,0.0,0.0,0.0,0.0,0.0,0.0,0.0,0.0,0.0,0.0,0.0,0.0,0.0,0.0,0.0,0.0,0.0,0.0,0.0,0.0,0.7885,0.7978,0.7988,0.7924,0.7824,0.779,0.7473,0.0,0.0,0.0,0.0,0.0,0.0,0.0,0.0,0.0,0.0,0.0,0.0,0.0,0.0,0.0,0.0,0.0,0.0,0.0,0.0,0.0,0.0,0.0,0.0,0.0,0.0,0.0,0.0,0.0,0.0,0.0,0.0,0.0,0.0,0.0,0.0,0.0,0.0,0.0,0.0,0.0,0.0,0.0,0.0,0.0,0.0,0.0,0.0,0.0,0.0,0.0,0.0,0.0,0.0,0.0,0.0,0.0,0.0,0.0,0.0,0.0,0.0,0.0,0.0,0.0,0.0,0.0,0.0,0.0,0.0,0.0,0.0,0.0,0.0,0.0,0.0,0.0,0.0,0.0,0.0,0.0,0.0,0.0,0.0,0.0,0.0,0.0,0.0,0.0,0.0,0.0,0.0,0.0,0.0,0.0,0.0,0.0,0.0,0.0,0.0,0.0,0.0,0.0,0.0,0.0,0.0,0.0,0.0,0.0,0.7988,0.7988,0.7965,0.796,0.7672,0.7421,0.0,0.0,0.0,0.0,0.0,0.0,0.0,0.0,0.0,0.0,0.0,0.0,0.0,0.0,0.0,0.0,0.0,0.0,0.0,0.0,0.0,0.0,0.0,0.0,0.0,0.0,0.0,0.0,0.0,0.0,0.0,0.0,0.0,0.0,0.0,0.0,0.0,0.0,0.0,0.0,0.0,0.0,0.0,0.0,0.0,0.0,0.0,0.0,0.0,0.0,0.0,0.0,0.0,0.0,0.0,0.0,0.0,0.0,0.0,0.0,0.0,0.0,0.0,0.0,0.0,0.0,0.0,0.0,0.0,0.0,0.0,0.0,0.0,0.0,0.0,0.0,0.0,0.0,0.0,0.0,0.0,0.0,0.0,0.0,0.0,0.0,0.0,0.0,0.0,0.0,0.0,0.0,0.0,0.0,0.0,0.0,0.0,0.0,0.0,0.0,0.0,0.0,0.0,0.0,0.0,0.0,0.0,0.0,0.0,0.8123,0.8019,0.8019,0.8123,0.774,0.7485,0.7412,0.0,0.0,0.0,0.0,0.0,0.0,0.0,0.0,0.0,0.0,0.0,0.0,0.0,0.0,0.0,0.0,0.0,0.0,0.0,0.0,0.0,0.0,0.0,0.0,0.0,0.0,0.0,0.0,0.0,0.0,0.0,0.0,0.0,0.0,0.0,0.0,0.0,0.0,0.0,0.0,0.0,0.0,0.0,0.0,0.0,0.0,0.0,0.0,0.0,0.0,0.0,0.0,0.0,0.0,0.0,0.0,0.0,0.0,0.0,0.0,0.0,0.0,0.0,0.0,0.0,0.0,0.0,0.0,0.0,0.0,0.0,0.0,0.0,0.0,0.0,0.0,0.0,0.0,0.0,0.0,0.0,0.0,0.0,0.0,0.0,0.0,0.0,0.0,0.0,0.0,0.0,0.0,0.0,0.0,0.0,0.0,0.0,0.0,0.0,0.0,0.0,0.0,0.0,0.0,0.0,0.0,0.0,0.0,0.8282,0.8133,0.8123,0.831,0.7977,0.7685,0.0,0.0,0.0,0.0,0.0,0.0,0.0,0.0,0.0,0.0,0.0,0.0,0.0,0.0,0.0,0.0,0.0,0.0,0.0,0.0,0.0,0.0,0.0,0.0,0.0,0.0,0.0,0.0,0.0,0.0,0.0,0.0,0.0,0.0,0.0,0.0,0.0,0.0,0.0,0.0,0.0,0.0,0.0,0.0,0.0,0.0,0.0,0.0,0.0,0.0,0.0,0.0,0.0,0.0,0.0,0.0,0.0,0.0,0.0,0.0,0.0,0.0,0.0,0.0,0.0,0.0,0.0,0.0,0.0,0.0,0.0,0.0,0.0,0.0,0.0,0.0,0.0,0.0,0.0,0.0,0.0,0.0,0.0,0.0,0.0,0.0,0.0,0.0,0.0,0.0,0.0,0.0,0.0,0.0,0.0,0.0,0.0,0.0,0.0,0.0,0.0,0.0,0.0,0.0,0.0,0.0,0.0,0.0,0.0,0.8414,0.8286,0.8282,0.8316,0.8082,0.7793,0.0,0.0,0.0,0.0,0.0,0.0,0.0,0.0,0.0,0.0,0.0,0.0,0.0,0.0,0.0,0.0,0.0,0.0,0.0,0.0,0.0,0.0,0.0,0.0,0.0,0.0,0.0,0.0,0.0,0.0,0.0,0.0,0.0,0.0,0.0,0.0,0.0,0.0,0.0,0.0,0.0,0.0,0.0,0.0,0.0,0.0,0.0,0.0,0.0,0.0,0.0,0.0,0.0,0.0,0.0,0.0,0.0,0.0,0.0,0.0,0.0,0.0,0.0,0.0,0.0,0.0,0.0,0.0,0.0,0.0,0.0,0.0,0.0,0.0,0.0,0.0,0.0,0.0,0.0,0.0,0.0,0.0,0.0,0.0,0.0,0.0,0.0,0.0,0.0,0.0,0.0,0.0,0.0,0.0,0.0,0.0,0.0,0.0,0.0,0.0,0.0,0.0,0.0,0.0,0.0,0.0,0.0,0.0,0.8449,0.8535,0.8526,0.8492,0.8415,0.8153,0.7853,0.0,0.0,0.0,0.0,0.0,0.0,0.0,0.0,0.0,0.0,0.0,0.0,0.0,0.0,0.0,0.0,0.0,0.0,0.0,0.0,0.0,0.0,0.0,0.0,0.0,0.0,0.0,0.0,0.0,0.0,0.0,0.0,0.0,0.0,0.0,0.0,0.0,0.0,0.0,0.0,0.0,0.0,0.0,0.0,0.0,0.0,0.0,0.0,0.0,0.0,0.0,0.0,0.0,0.0,0.0,0.0,0.0,0.0,0.0,0.0,0.0,0.0,0.0,0.0,0.0,0.0,0.0,0.0,0.0,0.0,0.0,0.0,0.0,0.0,0.0,0.0,0.0,0.0,0.0,0.0,0.0,0.0,0.0,0.0,0.0,0.0,0.0,0.0,0.0,0.0,0.0,0.0,0.0,0.0,0.0,0.0,0.0,0.0,0.0,0.0,0.0,0.0,0.0,0.0,0.0,0.0,0.0,0.0,0.864,0.8538,0.875,0.876,0.8489,0.8225,0.7884,0.0,0.0,0.0,0.0,0.0,0.0,0.0,0.0,0.0,0.0,0.0,0.0,0.0,0.0,0.0,0.0,0.0,0.0,0.0,0.0,0.0,0.0,0.0,0.0,0.0,0.0,0.0,0.0,0.0,0.0,0.0,0.0,0.0,0.0,0.0,0.0,0.0,0.0,0.0,0.0,0.0,0.0,0.0,0.0,0.0,0.0,0.0,0.0,0.0,0.0,0.0,0.0,0.0,0.0,0.0,0.0,0.0,0.0,0.0,0.0,0.0,0.0,0.0,0.0,0.0,0.0,0.0,0.0,0.0,0.0,0.0,0.0,0.0,0.0,0.0,0.0,0.0,0.0,0.0,0.0,0.0,0.0,0.0,0.0,0.0,0.0,0.0,0.0,0.0,0.0,0.0,0.0,0.0,0.0,0.0,0.0,0.0,0.0,0.0,0.0,0.0,0.0,0.0,0.0,0.0,0.0,0.0,0.0,0.9518,0.8535,0.8543,0.8547,0.8535,0.8421,0.814,0.0,0.0,0.0,0.0,0.0,0.0,0.0,0.0,0.0,0.0,0.0,0.0,0.0,0.0,0.0,0.0,0.0,0.0,0.0,0.0,0.0,0.0,0.0,0.0,0.0,0.0,0.0,0.0,0.0,0.0,0.0,0.0,0.0,0.0,0.0,0.0,0.0,0.0,0.0,0.0,0.0,0.0,0.0,0.0,0.0,0.0,0.0,0.0,1.0764,0.0,0.0,0.0,0.0,0.0,0.0,0.0,0.0,0.0,0.0,0.0,0.0,0.0,0.0,0.0,0.0,0.0,0.0,0.0,0.0,0.0,0.0,0.0,0.0,0.0,0.0,0.0,0.0,0.0,0.0,0.0,0.0,0.0,0.0,0.0,0.0,0.0,0.0,0.0,0.0,0.0,0.0,0.0,0.0,0.0,0.0,0.0,0.0,0.0,0.0,0.0,0.0,0.0,0.0,0.0,0.0,0.0,0.0,0.0,1.0039,0.9297,0.8829,0.8523,0.8443,0.8987,0.8775,0.0,0.0,0.0,0.0,0.0,0.0,0.0,0.0,0.0,0.0,0.0,0.0,0.0,0.0,0.0,0.0,0.0,0.0,0.0,0.0,0.0,0.0,0.0,0.0,0.0,0.0,0.0,0.0,0.0,0.0,0.0,0.0,0.0,0.0,0.0,0.0,0.0,0.0,0.0,0.0,0.0,0.0,0.0,0.0,0.0,0.0,0.0,0.0,0.0,0.0,0.0,0.0,0.0,0.0,0.0,0.0,0.0,0.0,0.0,0.0,0.0,0.0,0.0,0.0,0.0,0.0,0.0,0.0,0.0,0.0,0.0,0.0,0.0,0.0,0.0,0.0,0.0,0.0,0.0,0.0,0.0,0.0,0.0,0.0,0.0,0.0,0.0,0.0,0.0,0.0,0.0,0.0,0.0,0.0,0.0,0.0,0.0,0.0,0.0,0.0,0.0,0.0,0.0,0.0,0.0,0.0,0.0,1.1359,1.0753,1.0479,0.9698,0.9091,0.8933,0.989,0.9637,0.7987,0.0,0.0,0.0,0.0,0.0,0.0,0.0,0.0,0.0,0.0,0.0,0.0,0.0,0.0,0.0,0.0,0.0,0.0,0.0,0.0,0.0,0.0,0.0,0.0,0.0,0.0,0.0,0.0,0.0,0.0,0.0,0.0,0.0,0.0,0.0,0.0,0.0,0.0,1.3753,1.4529,0.0,0.0,0.0,0.0,0.0,0.0,0.0,0.0,1.1106,0.0,0.0,0.0,0.0,0.0,0.0,0.0,0.0,0.0,0.0,0.0,0.0,0.0,0.0,0.0,0.0,0.0,0.0,0.0,0.0,0.0,0.0,0.0,0.0,0.0,0.0,0.0,0.0,0.0,0.0,0.0,0.0,0.0,0.0,0.0,0.0,0.0,0.0,0.0,0.0,0.0,0.0,0.0,0.0,0.0,0.0,0.0,0.0,0.0,0.0,0.0,0.0,0.0,0.0,0.0,0.0,1.3573,1.3283,1.2762,1.1914,1.1685,1.1584,1.1568,1.1604,1.0855,0.9321,0.0,0.0,0.0,0.0,0.0,0.0,0.0,0.0,0.0,0.0,0.0,0.0,0.0,0.0,0.0,0.0,0.0,0.0,0.0,0.0,0.0,0.0,0.0,0.0,0.0,0.0,0.0,0.0,0.0,0.0,0.0,0.0,0.0,0.0,0.0,0.0,0.0,0.0,0.0,1.5129,1.5357,0.0,0.0,0.0,0.0,0.0,0.0,0.0,0.0,0.9659,0.0,0.0,0.0,0.0,0.0,0.0,0.0,0.0,0.0,0.0,0.0,0.0,0.0,0.0,0.0,0.0,0.0,0.0,0.0,0.0,0.0,0.0,0.0,0.0,0.0,0.0,0.0,0.0,0.0,0.0,0.0,0.0,0.0,0.0,0.0,0.0,0.0,0.0,0.0,0.0,0.0,0.0,0.0,0.0,0.0,0.0,0.0,0.0,0.0,0.0,0.0,0.0,0.0,0.0,0.0,1.4675,1.419,1.3633,1.3084,1.2506,1.2163,1.2047,1.2464,1.1989,0.0,0.0,0.0,0.0,0.0,0.0,0.0,0.0,0.0,0.0,0.0,0.0,0.0,0.0,0.0,0.0,0.0,0.0,0.0,0.0,0.0,0.0,0.0,0.0,0.0,0.0,0.0,0.0,0.0,0.0,0.0,0.0,0.0,0.0,0.0,0.0,0.0,0.0,0.0,0.0,1.5129,1.5284,1.5585,0.0,0.0,0.0,0.0,0.0,0.0,0.9994,0.9421,0.0,0.0,0.0,0.0,0.0,0.0,0.0,0.0,0.0,0.0,0.0,0.0,0.0,0.0,0.0,0.0,0.0,0.0,0.0,0.0,0.0,0.0,0.0,0.0,0.0,0.0,0.0,0.0,0.0,0.0,0.0,0.0,0.0,0.0,0.0,0.0,0.0,0.0,0.0,0.0,0.0,0.0,0.0,0.0,0.0,0.0,0.0,0.0,0.0,0.0,0.0,0.0,0.0,0.0,0.0,1.5351,1.4736,1.4334,1.4232,1.3389,1.2861,1.2727,1.3442,1.3188,0.0,0.0,0.0,0.0,0.0,0.0,0.0,0.0,0.0,0.0,0.0,0.0,0.0,0.0,0.0,0.0,0.0,0.0,0.0,0.0,0.0,0.0,0.0,0.0,0.0,0.0,0.0,0.0,0.0,0.0,0.0,0.0,0.0,0.0,0.0,0.0,0.0,0.0,0.0,0.0,0.0,1.5284,1.5638,1.4625,0.0,0.0,0.0,0.0,1.1144,1.0406,0.0,0.0,0.0,0.0,0.0,0.0,0.0,0.0,0.0,0.0,0.0,0.0,0.0,0.0,0.0,0.0,0.0,0.0,0.0,0.0,0.0,0.0,0.0,0.0,0.0,0.0,0.0,0.0,0.0,0.0,0.0,0.0,0.0,0.0,0.0,0.0,0.0,0.0,0.0,0.0,0.0,0.0,0.0,0.0,0.0,0.0,0.0,0.0,0.0,0.0,0.0,0.0,0.0,0.0,0.0,0.0,1.5371,1.5319,1.5364,1.5568,1.5471,1.5376,1.5343,1.5453,1.4712,0.0,0.0,0.0,0.0,0.0,0.0,0.0,0.0,0.0,0.0,0.0,0.0,0.0,0.0,0.0,0.0,0.0,0.0,0.0,0.0,0.0,0.0,0.0,0.0,0.0,0.0,0.0,0.0,0.0,0.0,0.0,0.0,0.0,0.0,0.0,0.0,0.0,0.0,0.0,0.0,0.0,1.5665,1.5471,1.5272,1.5199,0.0,0.0,1.5006,1.5111,1.3048,0.0,0.0,0.0,0.0,0.0,0.0,0.0,0.0,0.0,0.0,0.0,0.0,0.0,0.0,0.0,0.0,0.0,0.0,0.0,0.0,0.0,0.0,0.0,0.0,0.0,0.0,0.0,0.0,0.0,0.0,0.0,0.0,0.0,0.0,0.0,0.0,0.0,0.0,0.0,0.0,0.0,0.0,0.0,0.0,0.0,0.0,0.0,0.0,0.0,0.0,0.0,0.0,0.0,0.0,0.0,1.473,1.5144,1.5478,1.5705,1.5778,1.5825,1.5825,1.5825,1.5511,1.491,0.0,0.0,0.0,0.0,0.0,0.0,0.0,0.0,0.0,0.0,0.0,0.0,0.0,0.0,0.0,0.0,0.0,0.0,0.0,0.0,0.0,0.0,0.0,0.0,0.0,0.0,0.0,0.0,0.0,0.0,0.0,0.0,0.0,0.0,0.0,0.0,0.0,0.0,0.0,0.0,0.0,0.0,1.5611,1.5014,0.0,0.0,0.0,1.4331,1.3674,0.0,0.0,0.0,0.0,0.0,0.0,0.0,0.0,0.0,0.0,0.0,0.0,0.0,0.0,0.0,0.0,0.0,0.0,0.0,0.0,0.0,0.0,0.0,0.0,0.0,0.0,0.0,0.0,0.0,0.0,0.0,0.0,0.0,0.0,0.0,0.0,0.0,0.0,0.0,0.0,0.0,0.0,0.0,0.0,0.0,0.0,0.0,0.0,0.0,0.0,0.0,0.0,0.0,0.0,0.0,0.0,0.0,1.5015,1.5538,1.5825,1.5825,1.5825,1.5825,1.5818,1.5337,0.0,0.0,0.0,0.0,0.0,0.0,0.0,0.0,0.0,0.0,0.0,0.0,0.0,0.0,0.0,0.0,0.0,0.0,0.0,0.0,0.0,0.0,0.0,0.0,0.0,0.0,0.0,1.6367,0.0,0.0,0.0,0.0,0.0,0.0,0.0,0.0,0.0,0.0,0.0,0.0,0.0,0.0,1.5311,1.5671,1.4953,1.4364,0.0,0.0,1.4028,1.3011,1.2523,1.1733,0.0,0.0,0.0,0.0,0.0,0.0,0.0,0.0,0.0,0.0,0.0,0.0,0.0,0.0,0.0,0.0,0.0,0.0,0.0,0.0,0.0,0.0,0.0,0.0,0.0,0.0,0.0,0.0,0.0,0.0,0.0,0.0,0.0,0.0,0.0,0.0,0.0,0.0,0.0,0.0,0.0,0.0,0.0,0.0,0.0,0.0,0.0,0.0,0.0,0.0,0.0,0.0,0.0,0.0,0.0,1.5015,1.5538,1.5825,1.5825,1.5825,1.5825,1.5778,1.5524,1.5097,0.0,0.0,0.0,0.0,0.0,0.0,0.0,0.0,0.0,0.0,0.0,0.0,0.0,0.0,0.0,0.0,0.0,0.0,0.0,0.0,0.0,0.0,0.0,0.0,0.0,0.0,0.0,0.0,0.0,0.0,0.0,0.0,0.0,0.0,0.0,0.0,0.0,0.0,0.0,0.0,0.0,1.5678,1.5458,1.5558,1.5683,0.0,0.0,1.5635,1.5534,1.4495,1.3199,1.1615,0.0,0.0,0.0,0.0,0.0,0.0,0.0,0.0,0.0,0.0,0.0,0.0,0.0,0.0,0.0,0.0,0.0,0.0,0.0,0.0,0.0,0.0,0.0,0.0,0.0,0.0,0.0,0.0,0.0,0.0,0.0,0.0,0.0,0.0,0.0,0.0,0.0,0.0,0.0,0.0,0.0,0.0,0.0,0.0,0.0,0.0,0.0,0.0,0.0,0.0,0.0,0.0,0.0,1.5939,1.7077,1.7743,1.7716,1.699,1.6943,1.6622,1.5825,1.5378,1.5154,0.0,0.0,0.0,0.0,0.0,0.0,0.0,0.0,0.0,0.0,0.0,0.0,0.0,0.0,0.0,0.0,0.0,0.0,0.0,0.0,0.0,0.0,0.0,0.0,0.0,0.0,0.0,0.0,1.7822,1.7881,1.8125,0.0,0.0,0.0,0.0,0.0,0.0,0.0,0.0,0.0,0.0,1.6433,1.5745,1.5758,0.0,0.0,1.5825,1.5825,1.5825,1.4752,1.337,1.1759,1.0997,0.0,0.0,0.0,0.0,0.0,0.0,0.0,0.0,0.0,0.0,0.0,0.0,0.0,0.0,0.0,0.0,0.0,0.0,0.0,0.0,0.0,0.0,0.0,0.0,0.0,0.0,0.0,0.0,0.0,0.0,0.0,0.0,0.0,0.0,0.0,0.0,0.0,0.0,0.0,0.0,0.0,0.0,0.0,0.0,0.0,0.0,0.0,0.0,0.0,0.0,0.0,0.0,1.6982,1.8407,1.9133,1.9085,1.828,1.8234,1.7816,1.6915,1.6466,1.6235,0.0,0.0,0.0,0.0,0.0,0.0,0.0,0.0,0.0,0.0,0.0,0.0,0.0,0.0,0.0,0.0,0.0,0.0,0.0,0.0,0.0,0.0,0.0,0.0,0.0,0.0,0.0,0.0,1.8262,1.8139,1.8549,0.0,0.0,0.0,0.0,0.0,0.0,0.0,0.0,0.0,0.0,1.7079,1.6445,1.6055,1.5825,1.5825,1.5825,1.5825,1.5825,1.5045,1.3969,1.2414,0.0,0.0,0.0,0.0,0.0,0.0,0.0,0.0,0.0,0.0,0.0,0.0,0.0,0.0,0.0,0.0,0.0,0.0,0.0,0.0,0.0,0.0,0.0,0.0,0.0,0.0,0.0,0.0,0.0,0.0,2.0595,0.0,0.0,0.0,0.0,0.0,0.0,0.0,0.0,0.0,0.0,0.0,0.0,0.0,0.0,0.0,0.0,0.0,0.0,0.0,0.0,0.0,0.0,1.7656,1.8407,1.9215,1.9534,1.9488,1.9451,1.9443,1.9351,1.9142,1.8649,1.7921,0.0,0.0,0.0,0.0,0.0,0.0,0.0,0.0,0.0,0.0,0.0,0.0,0.0,0.0,0.0,0.0,0.0,0.0,0.0,0.0,0.0,0.0,0.0,0.0,0.0,0.0,1.8598,1.8262,1.8174,0.0,0.0,0.0,0.0,0.0,0.0,0.0,0.0,0.0,0.0,1.8231,1.7723,1.7638,1.6622,1.5872,1.5825,1.5825,1.5825,1.5825,1.5778,1.53,0.0,0.0,0.0,0.0,0.0,0.0,0.0,0.0,0.0,0.0,0.0,0.0,0.0,0.0,0.0,0.0,0.0,0.0,0.0,0.0,0.0,0.0,0.0,0.0,0.0,0.0,0.0,2.2249,2.2113,0.0,0.0,0.0,0.0,0.0,0.0,0.0,0.0,0.0,0.0,0.0,2.1987,2.2929,0.0,0.0,0.0,0.0,0.0,0.0,0.0,0.0,0.0,0.0,0.0,0.0,1.9264,2.0661,2.15,2.1498,2.0711,2.0702,2.0305,1.9534,1.9239,1.8644,1.7713,0.0,0.0,0.0,0.0,0.0,0.0,0.0,0.0,0.0,0.0,0.0,0.0,0.0,0.0,0.0,0.0,0.0,0.0,0.0,0.0,0.0,0.0,0.0,0.0,0.0,1.8598,0.0,0.0,0.0,0.0,0.0,0.0,0.0,0.0,0.0,0.0,0.0,2.0334,1.9228,1.967,1.9542,1.7917,1.7318,1.6756,0.0,0.0,0.0,0.0,0.0,0.0,0.0,0.0,0.0,0.0,0.0,0.0,0.0,0.0,0.9185,0.7035,0.6624,0.661,0.6566,0.0,0.0,0.0,0.0,0.0,0.0,0.0,0.0,0.0,0.0,0.0,0.0,0.0,0.0,0.0,0.0,2.3351,0.0,0.0,0.0,0.0,0.0,0.0,0.0,0.0,2.4477,2.4489,2.3546,2.4551,2.4489,0.0,2.308,2.2542,0.0,0.0,0.0,0.0,0.0,0.0,0.0,0.0,2.0581,2.1843,2.2715,2.2721,2.1987,2.1943,2.1578,2.0755,2.0325,1.9671,1.882,1.821,1.7631,0.0,0.0,0.0,0.0,0.0,0.0,0.0,0.0,0.0,0.0,0.0,0.0,0.0,0.0,0.0,0.0,0.0,0.0,0.0,0.0,0.0,0.0,0.0,1.8666,0.0,0.0,0.0,0.0,0.0,0.0,0.0,0.0,0.0,2.0469,2.1403,2.1688,2.0615,2.0962,2.0576,1.8596,0.0,0.0,0.0,0.0,0.0,0.0,0.0,1.5475,1.4575,1.4456,1.4316,1.3997,1.445,1.4123,1.2043,0.0,0.0,0.7955,0.7147,0.6851,0.6854,0.6814,0.6749,0.6647,0.6511,0.6227,0.0,0.0,0.0,0.0,0.0,0.0,0.0,0.0,2.5447,2.5271,0.0,2.5226,0.0,0.0,0.0,0.0,0.0,0.0,0.0,0.0,2.6289,2.6513,2.6461,2.6513,2.6513,2.6431,2.5357,2.463,2.4145,2.1938,0.0,0.0,0.0,0.0,0.0,0.0,2.1445,2.1894,2.2672,2.3091,2.3071,2.3062,2.3052,2.2969,2.2253,2.1619,2.119,2.0275,1.9299,1.8144,1.7983,0.0,0.0,0.0,0.0,0.0,0.0,0.0,0.0,0.0,0.0,0.0,0.0,0.0,0.0,0.0,0.0,0.0,0.0,0.0,0.0,1.8633,0.0,0.0,0.0,0.0,0.0,0.0,0.0,0.0,0.0,0.0,2.1863,2.2246,2.2613,2.2989,0.0,0.0,0.0,0.0,1.7358,1.6062,1.5872,1.5872,1.5825,1.5825,1.5778,1.5771,0.0,0.0,1.5458,1.5391,1.4852,1.3181,1.2791,1.1959,0.9476,0.8038,0.721,0.7078,0.6977,0.6896,0.6866,0.6688,0.621,2.6696,0.0,0.0,0.0,0.0,2.554,2.6124,2.7397,2.7011,2.6827,2.6815,2.6476,0.0,0.0,0.0,0.0,0.0,0.0,2.5963,2.6352,2.7221,2.725,2.6513,2.729,2.7238,2.6524,2.6182,2.5939,2.5826,2.4807,2.3119,2.0859,0.0,0.0,0.0,0.0,2.1405,2.1914,2.2715,2.2955,2.2643,2.2643,2.2549,2.2246,2.1709,2.1317,2.119,2.0381,1.9746,1.9375,1.8496,0.0,0.0,0.0,0.0,0.0,0.0,0.0,0.0,0.0,0.0,0.0,0.0,0.0,0.0,0.0,0.0,0.0,0.0,0.0,1.8559,1.9173,1.9571,0.0,0.0,0.0,0.0,0.0,0.0,0.0,0.0,0.0,2.2334,2.2432,2.2623,0.0,0.0,2.2129,2.098,2.0486,1.9534,1.7458,0.0,0.0,0.0,1.5825,1.5825,1.5825,1.5825,1.5751,1.5725,1.5364,1.494,1.4436,1.3311,1.2152,1.1445,0.9701,0.8189,0.7312,0.7061,0.7001,0.6903,0.6851,0.6425,2.841,2.7718,2.6853,2.676,2.7093,2.6835,2.7493,2.8743,2.8517,2.8421,2.8397,2.8118,2.7495,2.6656,2.6352,0.0,0.0,0.0,2.7533,2.7839,2.849,2.845,2.7879,2.849,2.845,2.7799,2.7342,2.7128,2.7105,2.6413,2.507,2.3078,0.0,0.0,2.1134,2.1523,2.1875,2.2148,2.2793,2.2896,2.2529,2.251,2.2305,2.1904,2.1631,2.1416,2.12,2.0547,2.0088,1.9874,1.9143,1.8665,0.0,0.0,0.0,0.0,0.0,0.0,0.0,0.0,0.0,0.0,0.0,1.9026,1.8637,0.0,0.0,0.0,1.9841,1.9772,2.0006,2.0896,0.0,0.0,0.0,0.0,0.0,0.0,0.0,2.2141,2.25,2.2721,2.2764,2.2721,2.2808,2.3062,2.3101,2.2677,2.148,0.0,2.0621,1.868,1.8411,1.8002,1.6756,1.6574,1.6386,1.5872,1.5825,1.5778,1.5658,1.5264,1.4981,1.4681,1.382,1.2857,1.237,1.0826,0.9231,0.8061,0.7448,0.7065,0.6984,0.6927,0.6557,2.9779,2.9624,2.7597,2.7331,2.8215,2.8215,2.8806,2.9779,2.9779,2.9779,2.9779,2.9779,2.949,2.8963,2.8963,0.0,2.7729,2.9181,2.974,2.9779,2.9779,2.9779,2.9779,2.9779,2.9779,2.9753,2.8727,2.8203,2.8187,2.725,2.6493,2.5949,2.4574,2.3305,2.2225,2.2579,2.2755,2.2755,2.3169,2.3159,2.2725,2.2626,2.2409,2.2055,2.2014,2.1816,2.1421,2.1046,2.063,2.0206,2.0147,1.9954,1.9554,0.0,0.0,0.0,0.0,0.0,0.0,0.0,0.0,0.0,0.0,0.0,0.0,0.0,0.0,0.0,2.2184,0.0,2.2392,2.3386,0.0,0.0,0.0,2.4214,2.3289,2.3896,2.393,2.2804,0.0,0.0,2.3101,0.0,2.3101,2.3101,2.3101,2.2677,2.1623,2.148,2.1025,1.9807,1.9633,1.9222,1.8048,1.7684,1.7178,1.6015,1.5825,1.5725,1.5458,1.5164,1.487,1.4589,1.4282,1.3779,1.2638,1.1558,1.0394,0.9235,0.7973,0.7095,0.7082,0.6994,0.6602,2.9779,2.9753,2.9209,2.917,2.9417,2.9404,2.9546,2.9792,2.9779,2.9779,2.9779,2.9779,2.9716,2.9578,2.9591,2.9463,2.9257,2.9639,2.9779,2.9779,2.9779,2.9779,2.9779,2.9779,2.9779,2.9779,2.9534,2.9404,2.9365,2.9131,2.8509,2.7587,2.7167,2.6132,2.4522,2.4818,2.5006,2.5006,2.5474,2.527,2.4393,2.3638,2.3243,2.3134,2.3134,2.308,2.2961,2.2841,2.277,2.265,2.235,2.1969,2.1495,2.0267,0.0,0.0,0.0,0.0,0.0,0.0,0.0,0.0,0.0,2.1885,2.1019,0.0,2.2613,0.0,2.4762,2.505,2.4071,2.4807,0.0,0.0,2.5481,2.5531,2.5617,2.5831,2.5509,2.4386,2.4363,2.4092,2.3222,2.3101,2.3101,2.3101,2.3101,2.2994,2.2687,2.2677,2.2271,2.1159,2.089,2.044,1.9268,1.8272,1.7318,1.6015,1.5825,1.5732,1.5444,1.5164,1.4863,1.4576,1.4289,1.3975,1.3688,1.2729,1.1552,1.0351,0.8532,0.7095,0.7095,0.7065,0.6702,3.0018,2.9792,2.9779,2.9779,2.9779,2.9779,2.9779,2.9779,2.9779,2.9779,2.9779,2.9779,2.9779,2.9779,2.9779,2.9779,2.9779,2.9779,2.9779,2.9779,2.9779,2.9779,2.9779,2.9779,2.9779,2.9779,2.9779,2.9779,2.9779,2.9779,2.9456,2.8858,2.8846,2.8319,2.726,2.6497,2.6109,2.6109,2.6154,2.5918,2.5369,2.4567,2.4074,2.385,2.3802,2.3713,2.3489,2.3478,2.3388,2.3165,2.2943,2.2784,2.2684,2.1659,2.1008,0.0,0.0,0.0,0.0,0.0,0.0,0.0,0.0,0.0,0.0,0.0,2.4072,2.4376,2.61,2.6831,2.5931,2.6896,2.7559,2.7593,2.7573,2.7481,2.7256,2.7197,2.6801,2.5672,2.5126,2.4585,2.392,2.343,2.3101,2.3101,2.3101,2.3101,2.3101,2.3101,2.2818,2.2217,2.212,2.1667,2.0486,1.9268,1.8087,1.6936,1.6542,1.6167,1.5381,1.4963,1.4669,1.4389,1.4195,1.4088,1.4039,1.3112,1.2072,1.1295,0.9488,0.7881,0.7228,0.7095,0.6832,3.0294,2.9792,2.9779,2.9779,2.9779,2.9779,2.9779,2.9779,2.9779,2.9779,2.9779,2.9779,2.9779,2.9779,2.9779,2.9779,2.9779,2.9779,2.9779,2.9779,2.9779,2.9779,2.9779,2.9779,2.9779,2.9779,2.9779,2.9779,2.9779,2.9779,2.9779,2.9779,2.9779,2.9779,2.9702,2.7891,2.6935,2.6924,2.6422,2.6211,2.62,2.5625,2.5123,2.469,2.4573,2.4297,2.3913,2.3891,2.365,2.3241,2.3195,2.3352,2.3671,2.3132,2.2907,0.0,2.2513,0.0,0.0,0.0,0.0,0.0,0.0,0.0,0.0,2.5031,2.5504,2.5105,2.7053,2.8164,2.7845,2.9003,2.9779,2.9779,2.9779,2.9392,2.8426,2.8307,2.7896,2.6842,2.5828,2.5199,2.4999,2.4006,2.3343,2.3387,2.3222,2.3101,2.3101,2.3101,2.3091,2.3101,2.3101,2.2536,2.1382,2.0344,1.9224,1.8118,1.75,1.6825,1.5428,1.4953,1.4595,1.4211,1.4102,1.4088,1.4088,1.3245,1.2504,1.2242,1.0537,0.8748,0.7665,0.7186,0.7014,3.0294,2.9792,2.9779,2.9779,2.9779,2.9779,2.9779,2.9779,2.9779,2.9779,2.9779,2.9779,2.9779,2.9779,2.9779,2.9779,2.9779,2.9779,2.9779,2.9779,2.9779,2.9779,2.9779,2.9779,2.9779,2.9779,2.9779,2.9779,2.9779,2.9779,2.9779,2.9779,2.9779,2.9779,2.9779,0.0,0.0,0.0,2.8616,2.8333,2.8296,2.7373,2.6819,2.6744,2.629,0.0,2.5943,2.5931,2.5906,2.5795,2.5783,0.0,0.0,0.0,0.0,0.0,0.0,0.0,0.0,0.0,0.0,0.0,2.6012,2.5921,2.6005,2.7329,2.8176,2.81,2.8936,2.9439,2.9372,2.9588,2.9779,2.9779,2.9779,2.9702,2.9495,2.9456,2.9028,2.7936,2.7602,2.7145,2.6265,2.5179,2.45,2.4372,2.3671,2.3135,2.3101,2.3101,2.3101,2.3101,2.3081,2.2668,2.148,2.0846,2.0078,1.8921,1.8278,1.749,1.6239,1.582,1.5333,1.4389,1.4088,1.4088,1.4088,1.3906,1.3421,1.2498,1.1144,0.9789,0.8615,0.7601,0.6846,3.0683,0.0,2.9905,2.9779,0.0,2.9779,2.9779,2.9779,2.9779,2.9779,2.9779,2.9779,2.9779,2.9779,2.9779,2.9779,2.9779,2.9779,2.9779,2.9779,2.9779,2.9779,2.9779,2.9779,2.9779,2.9779,2.9779,2.9779,2.9779,2.9779,2.9779,2.9779,2.9779,2.9779,2.9779,2.9779,2.9779,2.9779,2.9503,2.9352,2.9327,2.8524,2.7959,2.7682,0.0,0.0,0.0,0.0,0.0,0.0,0.0,0.0,0.0,0.0,0.0,2.5611,2.5096,2.4908,2.5217,2.5493,2.5975,2.6826,2.7404,2.7682,2.767,2.8461,2.9013,2.9327,2.9628,2.9779,2.9779,2.9779,2.9779,2.9779,2.9779,2.9779,2.9779,2.9779,2.9585,2.9028,2.8426,2.7884,2.7371,2.6337,2.542,2.4872,2.4339,2.3714,2.3222,2.3101,2.3101,2.3081,2.2896,2.2606,2.2029,2.1536,2.0872,1.9687,1.911,1.8389,1.7146,1.635,1.5639,1.5006,1.4496,1.4088,1.4088,1.4088,1.386,1.3075,1.1998,1.0719,0.9456,0.7911,0.6753,3.1193,3.077,3.0096,2.9895,3.0037,2.9856,2.9895,3.0037,0.0,0.0,0.0,2.9779,2.9779,2.9779,2.9779,2.9779,2.9779,2.9779,2.9779,2.9779,2.9779,2.9779,2.9779,2.9779,2.9779,2.9779,2.9779,2.9779,2.9779,2.9779,2.9779,2.9779,2.9779,2.9779,2.9779,2.9779,2.9779,2.9779,2.9779,2.9779,2.9767,2.9126,2.8524,2.8122,2.7482,2.6964,2.6512,2.6487,2.6273,2.5774,2.5737,2.5737,2.5749,2.5749,2.5996,2.6449,2.6487,2.6537,2.6637,2.7065,2.7404,2.7557,2.8499,2.9038,2.89,2.8976,2.9277,2.9754,2.9779,2.9779,2.9779,2.9779,2.9779,2.9779,2.9779,2.9779,2.9779,2.9779,2.9779,2.9702,2.8976,2.8386,2.8386,2.7464,2.6461,2.5619,2.5284,2.4798,2.3887,2.3387,2.3101,2.3071,2.2789,2.2487,2.2409,2.1997,2.1365,2.0398,1.9944,1.9362,1.8194,1.7046,1.6206,1.567,1.4943,1.4412,1.4166,1.4035,1.3928,1.3646,1.2625,1.1445,1.0177,0.8502,0.7134,3.1556,3.1705,3.0368,3.0241,3.0932,3.0139,3.0241,3.0932,3.0139,2.9792,2.9779,2.9779,2.9779,2.9779,2.9779,2.9779,2.9779,2.9779,2.9779,0.0,2.9779,2.9779,2.9779,2.9779,2.9779,2.9779,2.9779,2.9779,2.9779,2.9779,2.9779,2.9779,2.9779,2.9779,2.9779,2.9779,2.9779,2.9779,2.9779,2.9779,2.9779,2.8762,2.8197,2.8072,2.7153,2.6587,2.6487,2.6487,2.6461,2.6386,2.6373,2.6373,2.6373,2.6361,2.6411,2.6487,2.6487,2.67,2.7165,2.7243,2.7682,2.8587,2.9302,2.9465,2.895,2.939,2.9704,2.9779,2.9779,2.9779,2.9779,2.9779,2.9779,2.9779,2.9779,2.9779,2.9754,2.9754,2.9729,2.9716,2.965,2.9484,2.9254,2.8445,2.7721,2.7446,2.655,2.6099,2.5599,2.4307,2.3222,2.3042,2.2783,2.2539,2.2344,2.1775,2.1215,2.1067,2.063,2.0065,1.9052,1.854,1.7738,1.6067,1.5662,1.5137,1.4405,1.3874,1.3721,1.356,1.2456,1.1306,1.09,0.9712,0.8335,3.3111,3.313,3.1899,3.1549,3.1938,3.1526,3.1549,3.1924,3.1513,3.1318,3.1304,3.1304,3.1341,3.1341,3.1304,3.1341,3.1341,3.1304,3.1057,3.0633,3.1095,3.1057,3.0595,3.0558,3.0558,3.052,3.0037,2.9779,2.9779,2.9779,2.9779,2.9779,2.9779,2.9779,2.9779,2.9779,2.9779,2.9779,2.9779,2.9779,2.9767,2.8988,2.8411,2.8097,2.7318,2.6788,2.6499,2.6487,2.6487,2.6487,2.6487,2.6487,2.6487,2.6487,2.6487,2.6487,2.6487,2.6738,2.7243,2.7846,2.8524,2.9327,2.9628,2.9691,2.9428,2.9628,2.9779,2.9779,2.9779,2.9779,2.9779,2.9779,2.9779,2.9779,2.9779,2.9666,2.939,2.9327,2.9202,2.8938,2.8888,2.8875,2.8875,2.8423,2.7948,2.7687,2.695,2.6502,2.6502,2.5683,2.4618,2.384,2.2854,2.2132,2.1855,2.1309,2.0928,2.0879,2.0703,2.042,1.9883,1.9481,1.8598,1.7698,1.7001,1.6198,1.5171,1.4721,1.4251,1.338,1.2792,1.1921,1.112,1.0079,0.8851,3.4552,3.4641,3.3176,3.2593,3.2642,3.2855,3.2912,3.2925,3.3136,3.3255,3.3185,3.282,3.2593,3.2593,3.2593,3.2593,3.2593,3.2593,3.22,3.1633,3.2285,3.22,3.1573,3.1486,3.1499,3.1439,3.0784,3.0432,3.0432,3.0432,3.0432,3.0419,3.0419,3.0432,3.0432,3.0419,3.0432,3.0432,3.0432,3.0228,2.9818,2.9404,2.8885,2.8122,2.7898,2.7376,2.6584,2.6612,2.6625,2.6533,2.6692,2.6794,2.6782,2.6985,2.7061,2.7061,2.7074,2.737,2.809,2.9108,2.9943,3.0393,3.0432,3.0432,3.0432,3.0419,3.0228,2.9895,2.9779,2.9779,2.9779,2.9779,2.9779,2.9779,2.9779,2.9641,2.9214,2.9076,2.8863,2.8411,2.8285,2.8298,2.8147,2.8109,2.7953,2.7555,2.7202,2.7031,2.6869,2.6783,2.608,2.4781,2.3267,2.2066,2.1369,2.0879,2.0674,2.0615,2.0615,2.0566,2.0401,1.9835,1.9283,1.8859,1.8134,1.7153,1.6151,1.5345,1.4643,1.3648,1.2979,1.2295,1.1428,1.0432,0.9367,3.4952,3.5367,3.3549,3.2593,3.277,3.3533,3.3891,3.3993,3.4806,3.5246,3.4953,3.3408,3.2664,3.2593,3.2664,3.27,3.2713,3.2593,3.2571,3.2486,3.2558,3.2558,3.25,3.2464,3.2451,3.2464,3.2321,3.2177,3.2177,3.2249,3.2321,3.2357,3.2357,3.2285,3.2285,3.2285,3.2307,3.2321,3.2357,3.1526,2.9947,3.009,2.9544,2.8171,2.8896,2.8399,2.6759,2.6977,2.7002,2.6618,2.7217,2.7617,2.767,2.8344,2.8734,2.8716,2.873,2.9273,3.0377,3.1603,3.2167,3.2343,3.2249,3.2249,3.2249,3.2285,3.1586,3.0355,2.9856,2.9921,2.9779,2.9869,2.9895,2.9934,2.9818,2.9754,2.9654,2.9716,2.949,2.8888,2.8599,2.8612,2.8072,2.8009,2.8048,2.7878,2.81,2.8157,2.7838,2.7438,2.6818,2.5672,2.4321,2.2833,2.163,2.0859,2.0722,2.0644,2.0615,2.0615,2.0527,2.044,2.0206,1.9374,1.8698,1.7887,1.6731,1.5474,1.4464,1.3979,1.3215,1.2308,1.2046,1.1335,1.0312,3.6406,3.6619,3.5015,3.4308,3.4375,3.4739,3.4887,3.4953,3.5311,3.5489,3.5439,3.4639,3.4308,3.4308,3.4308,3.4308,3.4308,3.4308,3.3973,3.3533,3.4041,3.4007,3.3449,3.3415,3.3429,3.3359,3.2876,3.2593,3.2593,3.2593,3.2593,3.2593,3.2593,3.2593,3.2593,3.2593,3.2593,3.2593,3.2593,3.2213,3.1556,3.1298,3.0937,3.0378,3.0377,2.9855,2.8759,2.8812,2.8619,2.8039,2.8298,2.8473,2.846,2.8812,2.8989,2.903,2.9679,3.0273,3.0784,3.1916,3.2593,3.2593,3.2593,3.2593,3.2593,3.2593,3.2263,3.1659,3.1439,3.1452,3.1415,3.0983,3.062,3.0558,3.0139,2.9692,2.9315,2.9001,2.8574,2.8034,2.7657,2.7467,2.7291,2.7454,2.7595,2.7682,2.8097,2.8298,2.8098,2.7916,2.7212,2.6078,2.5203,2.3995,2.2205,2.1566,2.1203,2.0789,2.0615,2.0615,2.0605,2.0615,2.0411,1.9962,1.9457,1.8774,1.7868,1.6787,1.5736,1.4714,1.3259,1.2305,1.2305,1.1829,1.1259,3.7315,3.7,3.5953,3.5489,3.5489,3.5489,3.5489,3.5489,3.5489,3.5489,3.5489,3.5489,3.5489,3.5489,3.5489,3.5489,3.5489,3.5489,3.5133,3.4543,3.5166,3.51,3.4428,3.4394,3.4394,3.4312,3.3739,3.3429,3.3394,3.3394,3.3394,3.3408,3.3394,3.3394,3.3394,3.338,3.3394,3.3408,3.3394,3.3394,3.3338,3.3024,3.2495,3.1868,3.1822,3.1268,3.0053,3.0131,2.9854,2.9058,2.9209,2.9348,2.9393,2.9566,2.969,2.9803,3.0849,3.1542,3.1556,3.2701,3.3394,3.3394,3.3394,3.3394,3.3394,3.3394,3.3394,3.3394,3.3394,3.3255,3.2571,3.1997,3.1596,3.1523,3.0959,3.0325,2.977,2.91,2.852,2.7745,2.7291,2.665,2.6587,2.6851,2.709,2.7105,2.7519,2.777,2.7733,2.7684,2.7356,2.6226,2.5985,2.5011,2.2942,2.2414,2.1962,2.1336,2.1049,2.0972,2.0712,2.0605,2.0478,2.0034,1.9915,1.9416,1.8351,1.7524,1.658,1.4927,1.3587,1.2776,1.2813,1.2358,1.202,3.706,3.6462,3.5789,3.5489,3.5489,3.5489,3.5489,3.5489,3.5489,3.5489,3.5489,3.5489,3.5489,3.5489,3.5489,3.5489,3.5489,3.5489,3.5472,3.5344,3.5457,3.5472,3.5439,3.5439,3.5392,3.5311,3.5166,3.518,3.5246,3.5294,3.5359,3.5311,3.5213,3.5294,3.5213,3.518,3.5326,3.5166,3.5133,3.5279,3.5294,3.5249,3.4078,3.2344,3.3121,3.2654,3.0555,3.0533,3.0284,2.9103,2.9842,3.0238,3.0284,3.094,3.1278,3.1426,3.2556,3.3301,3.3373,3.4411,3.5154,3.5249,3.5118,3.5279,3.51,3.51,3.51,3.5279,3.51,3.4491,3.3115,3.2713,3.2536,3.2522,3.2464,3.2034,3.1451,3.0526,2.9742,2.8651,2.7712,2.7123,2.6606,2.6512,2.6587,2.6688,2.7027,2.7216,2.6901,2.7042,2.6959,2.6646,2.6285,2.5746,2.3927,2.3441,2.2999,2.2253,2.1783,2.16,2.1039,2.0566,2.0341,2.0,1.959,1.9107,1.8501,1.7638,1.6501,1.5309,1.4392,1.3774,1.3346,1.2762,1.2279,3.6791,3.5848,3.5609,3.5489,3.5489,3.5489,3.5489,3.5489,3.5489,3.5489,3.5489,3.5489,3.5489,3.5489,3.5489,3.5489,3.5489,3.5489,3.5489,3.5489,3.5489,3.5489,3.5489,3.5489,3.5489,3.5489,3.5489,3.5489,3.5489,3.5489,3.5489,3.5489,3.5489,3.5489,3.5489,3.5489,3.5489,3.5489,3.5489,3.5489,3.5489,3.5489,3.5014,3.4284,3.464,3.4324,3.2922,3.2655,3.2113,3.1285,3.1131,3.1058,3.1087,3.1351,3.1496,3.1585,3.2348,3.2871,3.3021,3.4113,3.4846,3.4891,3.5265,3.5489,3.5489,3.5489,3.5489,3.5489,3.5489,3.5067,3.4606,3.3905,3.3484,3.3415,3.2933,3.2415,3.1674,3.102,3.0303,2.9376,2.8337,2.7491,2.7253,2.6803,2.6487,2.6512,2.6675,2.6722,2.66,2.6688,2.6725,2.6575,2.6487,2.6267,2.5721,2.4814,2.4156,2.3184,2.252,2.1902,2.1336,2.0558,2.0208,1.9775,1.9278,1.887,1.836,1.7691,1.6577,1.6219,1.5305,1.4478,1.3818,1.3344,1.2565,3.6297,3.5564,3.5489,3.5489,3.5489,3.5489,3.5489,3.5489,3.5489,3.5489,3.5489,3.5489,3.5489,3.5489,3.5489,3.5489,3.5489,3.5489,3.5489,3.5489,3.5489,3.5489,3.5489,3.5489,3.5489,3.5489,3.5489,3.5489,3.5489,3.5489,3.5489,3.5489,3.5489,3.5489,3.5489,3.5489,3.5489,3.5489,3.5489,3.5489,3.5489,3.5489,3.5489,3.5489,3.5489,3.507,3.4234,3.3964,3.338,3.2587,3.2064,3.172,3.1525,3.1496,3.1496,3.157,3.2123,3.2497,3.2677,3.3739,3.4503,3.4548,3.5085,3.5489,3.5489,3.5489,3.5489,3.5489,3.5489,3.5489,3.5392,3.4872,3.4509,3.4399,3.3719,3.2945,3.2254,3.1467,3.0555,2.9582,2.8731,2.8189,2.8051,2.765,2.725,2.6973,2.6884,2.685,2.6555,2.6487,2.6487,2.6487,2.6487,2.6487,2.6198,2.5687,2.5075,2.4181,2.3576,2.2772,2.1764,2.0935,2.0146,1.9587,1.9116,1.8703,1.8189,1.7568,1.7248,1.6975,1.6341,1.5475,1.4722,1.3947,1.3119,3.5534,3.5489,3.5489,3.5489,3.5489,3.5489,3.5489,3.5489,3.5489,3.5489,3.5489,3.5489,3.5489,3.5489,3.5489,3.5489,3.5489,3.5489,3.5489,3.5489,3.5489,3.5489,3.5489,3.5489,3.5489,3.5489,3.5489,3.5489,3.5489,3.5489,3.5489,3.5489,3.5489,3.5489,3.5489,3.5489,3.5489,3.5489,3.5489,3.5489,3.5489,3.5489,3.5489,3.5489,3.5489,3.4921,3.3679,3.4174,3.3829,3.2751,3.2467,3.2153,3.1615,3.1496,3.1525,3.1645,3.2123,3.2422,3.2602,3.3634,3.4247,3.4384,3.5026,3.5385,3.5355,3.5444,3.5489,3.5489,3.5489,3.5489,3.5489,3.5392,3.5359,3.5397,3.4708,3.4023,3.3295,3.2094,3.0683,2.9561,2.9097,2.8989,2.8989,2.878,2.8395,2.7887,2.7604,2.7351,2.6816,2.6589,2.6487,2.6487,2.6487,2.6487,2.6487,2.6418,2.5838,2.5252,2.4791,2.4151,2.2784,2.1772,2.0811,2.0139,1.9257,1.8818,1.8252,1.7729,1.7754,1.7501,1.6895,1.6276,1.548,1.4597,1.3684,3.5489,3.5489,3.5489,3.5489,3.5489,3.5489,3.5489,3.5489,3.5489,3.5489,3.5489,3.5489,3.5489,3.5489,3.5489,3.5489,3.5489,3.5489,3.5489,3.5489,3.5489,3.5489,3.5489,3.5489,3.5489,3.5489,3.5489,3.5489,3.5489,3.5489,3.5489,3.5489,3.5489,3.5489,3.5489,3.5489,3.5489,3.5489,3.5489,3.5489,3.5489,3.5489,3.5489,3.5489,3.5489,3.507,3.4247,3.4399,3.4084,3.3215,3.2751,3.2183,3.1645,3.1496,3.172,3.2123,3.1914,3.2034,3.2452,3.2886,3.3185,3.3335,3.4158,3.4711,3.4861,3.5265,3.5474,3.5489,3.5489,3.5489,3.5489,3.5489,3.5489,3.5489,3.4891,3.4204,3.3379,3.2228,3.1353,3.0791,3.0238,2.9919,2.9752,2.9504,2.9002,2.8652,2.8149,2.7637,2.7351,2.6939,2.6521,2.6487,2.6487,2.6521,2.6487,2.6487,2.6198,2.5804,2.5499,2.4927,2.3688,2.2558,2.1584,2.0548,1.9664,1.8958,1.8353,1.81,1.8168,1.7934,1.7359,1.6713,1.6039,1.5217,1.4337,3.5489,3.5489,3.5489,3.5489,3.5489,3.5489,3.5489,3.5489,3.5489,3.5489,3.5489,3.5489,3.5489,3.5489,3.5489,3.5489,3.5489,3.5489,3.5489,3.5489,3.5489,3.5489,3.5489,3.5489,3.5489,3.5489,3.5489,3.5489,3.5489,3.5489,3.5489,3.5489,3.5489,3.5489,3.5489,3.5489,3.5489,3.5489,3.5489,3.5489,3.5489,3.5489,3.5489,3.5489,3.5489,3.5295,3.4876,3.4893,3.4427,3.3634,3.308,3.2572,3.1974,3.2108,3.2333,3.2333,3.2138,3.1989,3.2138,3.2378,3.2497,3.2706,3.3724,3.4488,3.4623,3.5115,3.5474,3.5489,3.5489,3.5489,3.5489,3.5489,3.5489,3.5489,3.4637,3.3769,3.2886,3.2019,3.1541,3.1307,3.1014,3.0792,3.0584,3.0359,2.9766,2.9518,2.9034,2.8427,2.8247,2.7802,2.7417,2.7095,2.704,2.6905,2.6555,2.6487,2.6487,2.6233,2.5978,2.5283,2.4277,2.3332,2.2364,2.104,2.0031,1.9547,1.8977,1.8721,1.861,1.8205,1.7766,1.7058,1.6379,1.5901,1.5058,3.5489,3.5489,3.5489,3.5489,3.5489,3.5489,3.5489,3.5489,3.5489,3.5489,3.5489,3.5489,3.5489,3.5489,3.5489,3.5489,3.5489,3.5489,3.5489,3.5489,3.5489,3.5489,3.5489,3.5489,3.5489,3.5489,3.5489,3.5489,3.5489,3.5489,3.5489,3.5489,3.5489,3.5489,3.5489,3.5489,3.5489,3.5489,3.5489,3.5489,3.5522,3.5604,3.5604,3.5636,3.575,3.5784,3.5755,3.5651,3.4948,3.3785,3.3499,3.3125,3.2751,3.314,3.3006,3.2617,3.2557,3.2258,3.1929,3.2228,3.2497,3.2587,3.3589,3.4459,3.4459,3.5011,3.5489,3.5489,3.5489,3.5489,3.5489,3.5489,3.5474,3.528,3.4322,3.311,3.178,3.1525,3.1511,3.1496,3.1496,3.1467,3.138,3.1307,3.097,3.0554,3.0163,2.9673,2.9223,2.878,2.8538,2.8214,2.7835,2.767,2.7451,2.7404,2.7351,2.6871,2.6523,2.5774,2.4775,2.3745,2.2798,2.1523,2.0707,2.0193,1.965,1.9332,1.8954,1.8526,1.7979,1.7334,1.6724,1.6133,1.5557,3.5489,3.5489,3.5489,3.5489,3.5489,3.5489,3.5489,3.5489,3.5489,3.5489,3.5489,3.5489,3.5489,3.5489,3.5489,3.5489,3.5489,3.5489,3.5489,3.5489,3.5489,3.5489,3.5489,3.5489,3.5489,3.5489,3.5489,3.5489,3.5489,3.5489,3.5489,3.5489,3.5489,3.5489,3.5489,3.5522,3.5489,3.5489,3.5489,3.5554,3.5636,3.6086,3.6306,3.6368,3.6844,3.7115,3.7128,3.6715,3.5748,3.4373,3.3724,3.344,3.3246,3.3081,3.3126,3.3171,3.2826,3.2706,3.2886,3.2736,3.2572,3.2542,3.3547,3.3739,3.3784,3.4846,3.5385,3.5489,3.5489,3.5554,3.5522,3.5554,3.5359,3.4741,3.4087,3.3051,3.1899,3.1496,3.1496,3.1496,3.1496,3.1496,3.1496,3.1467,3.1394,3.1131,3.0718,3.0343,2.9964,2.9535,2.9192,2.8939,2.8652,2.8556,2.8492,2.8427,2.8201,2.7617,2.7056,2.6404,2.5159,2.3814,2.2892,2.1839,2.1647,2.1227,2.043,1.9824,1.9332,1.9077,1.8056,1.7349,1.6727,1.613,1.5692,3.5489,3.5489,3.5489,3.5489,3.5489,3.5489,3.5489,3.5489,3.5489,3.5489,3.5489,3.5489,3.5489,3.5489,3.5489,3.5489,3.5489,3.5489,3.5489,3.5489,3.5489,3.5489,3.5489,3.5489,3.5489,3.5489,3.5489,3.5489,3.5489,3.5489,3.5489,3.5489,3.5489,3.5489,3.5537,3.5831,3.5943,3.6038,3.6243,3.6461,3.6523,3.6874,3.707,3.7189,3.7573,3.7822,3.7713,3.7406,3.6529,3.5358,3.4887,3.4625,3.4058,3.4212,3.4195,3.4073,3.3842,3.3933,3.3948,3.3869,3.3913,3.4006,3.4515,3.481,3.5102,3.5875,3.6446,3.6523,3.6461,3.6461,3.6461,3.6461,3.5968,3.5211,3.4392,3.3425,3.2092,3.166,3.1525,3.1496,3.1496,3.1496,3.1496,3.1496,3.1496,3.1409,3.1117,3.094,3.0748,3.0269,2.9844,2.9628,2.9442,2.9348,2.9097,2.8971,2.8939,2.8409,2.7194,2.6607,2.555,2.4071,2.3151,2.2488,2.2414,2.2156,2.129,2.0623,2.0398,1.9791,1.8469,1.7637,1.7175,1.6598,1.6116,3.5489,3.5489,3.5489,3.5489,3.5489,3.5489,3.5489,3.5489,3.5489,3.5489,3.5489,3.5489,3.5489,3.5489,3.5489,3.5537,3.5636,3.5554,3.5489,3.5489,3.5489,3.5489,3.5489,3.5489,3.5489,3.5489,3.5489,3.5489,3.5554,3.5587,3.5636,3.5782,3.5782,3.5797,3.6085,3.6461,3.6707,3.6828,3.7265,3.7501,3.7589,3.7748,3.7892,3.795,3.8161,3.8306,3.825,3.8048,3.7496,3.6131,3.66,3.6143,3.5254,3.6186,3.5999,3.5227,3.5331,3.5418,3.5139,3.5445,3.579,3.5803,3.6278,3.6786,3.6685,3.7128,3.7531,3.7501,3.7793,3.7618,3.7557,3.7642,3.6966,3.5887,3.514,3.4054,3.294,3.2001,3.1496,3.1496,3.1496,3.1496,3.1496,3.1496,3.1496,3.1496,3.1307,3.1248,3.1219,3.0984,3.0673,3.045,3.0284,3.0133,2.9797,2.9456,2.938,2.9091,2.7457,2.6481,2.5741,2.4543,2.3604,2.2975,2.2781,2.2567,2.2156,2.171,2.1365,2.0725,1.9572,1.8837,1.8216,1.7522,1.6927,3.5489,3.5489,3.5489,3.5489,3.5489,3.5489,3.5522,3.5554,3.5522,3.5636,3.5522,3.5522,3.5554,3.5554,3.5668,3.5814,3.6259,3.591,3.5489,3.5489,3.5489,3.5504,3.5569,3.5619,3.5554,3.5554,3.5522,3.5522,3.5651,3.6149,3.6368,3.643,3.686,3.7294,3.7265,3.7338,3.7528,3.7573,3.7793,3.7921,3.8064,3.8458,3.8679,3.8718,3.9183,3.9532,3.9584,3.9601,3.9166,3.845,3.7824,3.7444,3.7014,3.6857,3.6688,3.6474,3.6435,3.6536,3.6428,3.6554,3.6605,3.6791,3.6948,3.6818,3.6866,3.752,3.7831,3.7806,3.7822,3.7966,3.7946,3.7322,3.6958,3.6428,3.542,3.4551,3.394,3.2571,3.1756,3.1611,3.1582,3.1496,3.1524,3.1496,3.1496,3.1496,3.1496,3.1496,3.1496,3.1496,3.1278,3.0984,3.0925,3.0763,3.0644,3.0269,3.0056,2.96,2.8066,2.6758,2.6014,2.4918,2.3927,2.3395,2.3065,2.2823,2.2598,2.2249,2.1815,2.1233,2.0688,1.986,1.9082,1.8402,1.7636,3.5489,3.5537,3.5878,3.6038,3.6101,3.643,3.6585,3.6569,3.6585,3.6569,3.6569,3.6585,3.6569,3.6569,3.6569,3.686,3.701,3.6799,3.66,3.6631,3.66,3.66,3.6585,3.6523,3.6461,3.6133,3.6023,3.618,3.6631,3.6935,3.7189,3.7189,3.7632,3.7706,3.7921,3.8149,3.8302,3.8414,3.8723,3.8887,3.8968,3.9252,3.948,3.9489,3.9876,4.0113,4.0045,4.007,3.9868,3.9505,3.9089,3.8514,3.8011,3.7834,3.7696,3.739,3.7696,3.7794,3.7854,3.815,3.8385,3.8305,3.8331,3.8348,3.8381,3.8706,3.8854,3.8887,3.8914,3.8887,3.8837,3.8245,3.7732,3.7046,3.5987,3.5036,3.4442,3.3335,3.2489,3.2422,3.2299,3.212,3.1979,3.1866,3.1582,3.1582,3.1553,3.1553,3.1496,3.1496,3.1496,3.1336,3.1409,3.1365,3.1365,3.1146,3.0777,3.0029,2.8765,2.7682,2.6829,2.5553,2.4245,2.3884,2.356,2.3125,2.2854,2.2537,2.239,2.2183,2.1656,2.0753,1.9983,1.9338,1.8441,3.5765,3.5718,3.6477,3.6783,3.6873,3.7485,3.7706,3.7764,3.7822,3.7618,3.7793,3.7822,3.7589,3.7735,3.7677,3.7793,3.7777,3.7905,3.7806,3.756,3.756,3.7531,3.7589,3.7531,3.7456,3.6964,3.6813,3.716,3.7544,3.7921,3.7978,3.8007,3.8193,3.8418,3.843,3.8734,3.9102,3.9166,3.9584,3.9876,3.9918,3.9995,3.9995,4.002,4.0045,4.0113,4.0113,4.0113,4.0079,4.0113,4.0113,3.9453,3.8802,3.87,3.8937,3.8297,3.8806,3.9009,3.9101,3.9539,3.9885,4.0113,4.0011,4.0011,3.9961,3.9851,3.9833,3.9918,3.9876,3.9808,3.9884,3.9169,3.852,3.7821,3.6628,3.5636,3.4879,3.4211,3.3887,3.3401,3.3013,3.2761,3.2598,3.2434,3.2035,3.1697,3.1668,3.1625,3.1596,3.1553,3.1582,3.1496,3.1496,3.1496,3.1496,3.1437,3.116,3.041,2.9247,2.8469,2.7539,2.6356,2.516,2.4452,2.4047,2.3649,2.3305,2.3035,2.2967,2.3037,2.2628,2.1762,2.1015,2.029,1.9388,3.701,3.6477,3.7279,3.7602,3.7602,3.7793,3.7892,3.7822,3.7937,3.7806,3.7863,3.7851,3.7937,3.7908,3.7851,3.7851,3.8121,3.8458,3.8442,3.8064,3.8007,3.8007,3.8064,3.8121,3.8117,3.8258,3.8003,3.7835,3.8048,3.8358,3.8707,3.887,3.9279,3.9558,3.9575,3.985,3.9782,3.9756,3.9978,4.007,4.0113,4.0113,4.0113,4.0113,4.0113,4.0113,4.0113,4.0113,4.0113,4.0113,4.0113,3.9943,3.969,3.9757,3.9723,3.9656,3.9673,3.9774,3.9859,3.9977,4.0113,4.0113,4.0113,4.0113,4.0113,4.0113,4.0113,4.0113,4.0045,3.9893,3.9225,3.9106,3.8684,3.7925,3.7202,3.631,3.5625,3.5245,3.4754,3.407,3.3675,3.3401,3.3271,3.3077,3.2718,3.2477,3.2394,3.2173,3.1992,3.1866,3.1739,3.1625,3.1496,3.1496,3.1496,3.1451,3.126,3.059,2.9698,2.9077,2.8123,2.7111,2.618,2.555,2.4809,2.425,2.3914,2.3619,2.3412,2.3403,2.3086,2.2786,2.1886,2.1043,2.0699,3.7589,3.7293,3.8048,3.8358,3.8458,3.8832,3.8995,3.8995,3.9011,3.8995,3.8995,3.8995,3.8995,3.9011,3.8995,3.8995,3.9076,3.9305,3.9305,3.9038,3.8995,3.8995,3.8941,3.8941,3.9183,3.9358,3.9129,3.8957,3.9038,3.9332,3.9463,3.9584,3.9952,4.0096,4.0113,4.0045,4.0113,4.0113,4.0113,4.0113,4.0113,4.0113,4.0113,4.0113,4.0113,4.0113,4.0113,4.0113,4.0113,4.0113,4.0113,4.0113,4.0113,4.0113,4.0113,4.0113,4.0113,4.0113,4.0113,4.0113,4.0113,4.0113,4.0113,4.0113,4.0113,4.0113,4.0096,4.0079,4.0096,3.9977,3.9656,3.9242,3.8836,3.8464,3.7804,3.706,3.6451,3.6248,3.5529,3.4659,3.4325,3.4137,3.4021,3.3786,3.3469,3.3277,3.3145,3.2826,3.2473,3.2379,3.2284,3.2284,3.2201,3.1979,3.1849,3.156,3.1149,3.0492,2.9864,2.9235,2.8573,2.7483,2.7085,2.6733,2.5959,2.5091,2.4809,2.461,2.4192,2.3796,2.3735,2.3441,2.2575,2.1882,2.1504,3.8177,3.8092,3.8843,3.9139,3.9262,3.9808,4.007,4.0113,4.0045,4.002,4.0113,4.0045,4.002,4.007,4.0045,4.0045,4.0113,4.007,3.9995,3.9969,3.9927,4.0045,4.0087,4.0113,4.002,3.9901,3.9927,4.0113,3.9901,3.9969,4.0045,4.002,4.007,4.0113,4.0113,4.0113,4.0113,4.0113,4.0113,4.0113,4.0113,4.0113,4.0113,4.0113,4.0113,4.0113,4.0113,4.0113,4.0113,4.0113,4.0113,4.0113,4.0113,4.0113,4.0113,4.0113,4.0113,4.0113,4.0113,4.0113,4.0113,4.0113,4.0113,4.0113,4.0113,4.0096,4.0045,3.9943,4.0062,3.996,3.9673,3.9486,3.9174,3.887,3.8413,3.7804,3.7049,3.6552,3.6214,3.5566,3.5105,3.4847,3.4712,3.4616,3.4325,3.3937,3.3786,3.3521,3.3193,3.3193,3.3156,3.3182,3.3066,3.2707,3.2329,3.1759,3.1114,3.022,2.9577,2.8921,2.8412,2.7812,2.7556,2.7265,2.6864,2.6081,2.5837,2.5453,2.4922,2.4582,2.4538,2.4277,2.3721,2.2842,2.2146,3.9411,3.8827,3.961,3.9969,3.9952,4.0045,4.0113,4.0113,4.0113,4.0113,4.0113,4.0113,4.0113,4.0113,4.0113,4.0113,4.0113,4.0113,4.0113,4.0113,4.0113,4.0113,4.0113,4.0113,4.0113,4.0113,4.0113,4.0113,4.0113,4.0113,4.0113,4.0113,4.0113,4.0113,4.0113,4.0113,4.0113,4.0113,4.0113,4.0113,4.0113,4.0113,4.0113,4.0113,4.0113,4.0113,4.0113,4.0113,4.0113,4.0113,4.0113,4.0113,4.0113,4.0113,4.0113,4.0113,4.0113,4.0113,4.0113,4.0113,4.0113,4.0113,4.0113,4.0113,4.0113,4.0062,3.9876,3.9199,3.9706,3.9876,3.9614,3.9706,3.9537,3.9292,3.8971,3.8166,3.7354,3.7388,3.6958,3.6174,3.5652,3.548,3.5339,3.5293,3.5184,3.48,3.4406,3.4137,3.3987,3.4037,3.4012,3.4037,3.3786,3.3443,3.2972,3.2371,3.1386,3.0288,2.9478,2.8804,2.8323,2.7941,2.7705,2.7408,2.7111,2.6904,2.6549,2.6081,2.555,2.5342,2.5287,2.5259,2.5176,2.4148,2.2918,3.9885,3.961,3.9952,4.0113,4.0113,4.0113,4.0113,4.0113,4.0113,4.0113,4.0113,4.0113,4.0113,4.0113,4.0113,4.0113,4.0113,4.0113,4.0113,4.0113,4.0113,4.0113,4.0113,4.0113,4.0113,4.0113,4.0113,4.0113,4.0113,4.0113,4.0113,4.0113,4.0113,4.0113,4.0113,4.0113,4.0113,4.0113,4.0113,4.0113,4.0113,4.0113,4.0113,4.0113,4.0113,4.0113,4.0113,4.0113,4.0113,4.0113,4.0113,4.0113,4.0113,4.0113,4.0113,4.0113,4.0113,4.0113,4.0113,4.0113,4.0113,4.0113,4.0113,4.0113,4.0113,4.0079,4.0011,3.9706,3.991,3.9893,3.9681,3.9926,3.9876,3.9723,3.952,3.8945,3.8251,3.8166,3.7855,3.7009,3.6214,3.6028,3.5785,3.5549,3.5464,3.527,3.5052,3.4934,3.4887,3.4958,3.4934,3.4871,3.452,3.4112,3.3595,3.3051,3.2013,3.0931,2.9807,2.9102,2.8417,2.7999,2.787,2.7685,2.7458,2.7255,2.7086,2.6864,2.6481,2.6242,2.6027,2.5889,2.567,2.4803,2.3527,4.0113,4.0113,4.0113,4.0113,4.0113,4.0113,4.0113,4.0113,4.0113,4.0113,4.0113,4.0113,4.0113,4.0113,4.0113,4.0113,4.0113,4.0113,4.0113,4.0113,4.0113,4.0113,4.0113,4.0113,4.0113,4.0113,4.0113,4.0113,4.0113,4.0113,4.0113,4.0113,4.0113,4.0113,4.0113,4.0113,4.0113,4.0113,4.0113,4.0113,4.0113,4.0113,4.0113,4.0113,4.0113,4.0113,4.0113,4.0113,4.0113,4.0113,4.0113,4.0113,4.0113,4.0113,4.0113,4.0113,4.0113,4.0113,4.0113,4.0113,4.0113,4.0113,4.0113,4.0113,4.0113,4.0113,4.0096,4.0011,4.0062,4.0096,4.0096,4.0096,4.0045,4.0028,3.9994,3.9605,3.9199,3.8877,3.8362,3.7516,3.6806,3.6417,3.6146,3.5769,3.5633,3.5616,3.5616,3.5616,3.5577,3.5554,3.547,3.5293,3.5138,3.4648,3.4121,3.347,3.2523,3.1502,3.0353,2.9506,2.8864,2.8487,2.8319,2.8091,2.786,2.761,2.7444,2.7444,2.7458,2.7071,2.6704,2.6364,2.5924,2.5127,2.4331,4.0113,4.0113,4.0113,4.0113,4.0113,4.0113,4.0113,4.0113,4.0113,4.0113,4.0113,4.0113,4.0113,4.0113,4.0113,4.0113,4.0113,4.0113,4.0113,4.0113,4.0113,4.0113,4.0113,4.0113,4.0113,4.0113,4.0113,4.0113,4.0113,4.0113,4.0113,4.0113,4.0113,4.0113,4.0113,4.0113,4.0113,4.0113,4.0113,4.0113,4.0113,4.0113,4.0113,4.0113,4.0113,4.0113,4.0113,4.0113,4.0113,4.0113,4.0113,4.0113,4.0113,4.0113,4.0113,4.0113,4.0113,4.0113,4.0113,4.0113,4.0113,4.0113,4.0113,4.0113,4.0113,4.0113,4.0113,4.0113,4.0113,4.0113,4.0113,4.0113,4.0113,4.0113,4.0062,3.9825,3.9486,3.9242,3.8717,3.7939,3.7449,3.711,3.6518,3.6163,3.5718,3.5667,3.5616,3.5616,3.5616,3.5577,3.5577,3.5532,3.5554,3.5174,3.4563,3.3747,3.2764,3.1776,3.0712,3.0005,2.9403,2.9111,2.8756,2.8614,2.84,2.81,2.786,2.787,2.782,2.766,2.7348,2.6953,2.6462,2.5763,2.5083,4.0113,4.0113,4.0113,4.0113,4.0113,4.0113,4.0113,4.0113,4.0113,4.0113,4.0113,4.0113,4.0113,4.0113,4.0113,4.0113,4.0113,4.0113,4.0113,4.0113,4.0113,4.0113,4.0113,4.0113,4.0113,4.0113,4.0113,4.0113,4.0113,4.0113,4.0113,4.0113,4.0113,4.0113,4.0113,4.0113,4.0113,4.0113,4.0113,4.0113,4.0113,4.0113,4.0113,4.0113,4.0113,4.0113,4.0113,4.0113,4.0113,4.0113,4.0113,4.0113,4.0113,4.0113,4.0113,4.0113,4.0113,4.0113,4.0113,4.0113,4.0113,4.0113,4.0113,4.0113,4.0113,4.0113,4.0113,4.0113,4.0113,4.0113,4.0113,4.0113,4.0113,4.0113,4.0028,3.9876,3.9757,3.9571,3.9292,3.8633,3.8227,3.7889,3.7212,3.6558,3.6096,3.5718,3.565,3.5616,3.5616,3.5616,3.5616,3.5616,3.5616,3.5616,3.5061,3.404,3.2994,3.2061,3.1112,3.0533,2.9979,2.9473,2.9157,2.9065,2.9019,2.8834,2.8614,2.8367,2.814,2.787,2.767,2.7464,2.6917,2.6322,2.5748,4.0113,4.0113,4.0113,4.0113,4.0113,4.0113,4.0113,4.0113,4.0113,4.0113,4.0113,4.0113,4.0113,4.0113,4.0113,4.0113,4.0113,4.0113,4.0113,4.0113,4.0113,4.0113,4.0113,4.0113,4.0113,4.0113,4.0113,4.0113,4.0113,4.0113,4.0113,4.0113,4.0113,4.0113,4.0113,4.0113,4.0113,4.0113,4.0113,4.0113,4.0113,4.0113,4.0113,4.0113,4.0113,4.0113,4.0113,4.0113,4.0113,4.0113,4.0113,4.0113,4.0113,4.0113,4.0113,4.0113,4.0113,4.0113,4.0113,4.0113,4.0113,4.0113,4.0113,4.0113,4.0096,4.0096,4.0113,4.0113,4.0113,4.0121,4.0121,4.0113,4.0113,4.0113,4.0113,3.9994,4.0011,3.9893,3.9706,3.936,3.8937,3.8379,3.7472,3.6717,3.6101,3.5735,3.565,3.5616,3.5616,3.5616,3.5616,3.5616,3.5616,3.5616,3.5509,3.4504,3.3575,3.2866,3.1962,3.117,3.06,3.0114,2.975,2.9673,2.9629,2.9585,2.9309,2.8943,2.8472,2.8018,2.7764,2.7449,2.7215,2.6614,2.6332,4.0113,4.0113,4.0113,4.0113,4.0113,4.0113,4.0113,4.0113,4.0113,4.0113,4.0113,4.0113,4.0113,4.0113,4.0113,4.0113,4.0113,4.0113,4.0113,4.0113,4.0113,4.0113,4.0113,4.0113,4.0113,4.0113,4.0113,4.0113,4.0113,4.0113,4.0113,4.0113,4.0113,4.0113,4.0113,4.0113,4.0113,4.0113,4.0113,4.0113,4.0113,4.0113,4.0113,4.0113,4.0113,4.0113,4.0113,4.0113,4.0113,4.0113,4.0113,4.0113,4.0113,4.0113,4.0113,4.0113,4.0113,4.0113,4.0113,4.0096,4.0146,4.0121,4.0113,4.0113,4.0096,4.0121,4.0204,4.0311,4.0311,4.0229,4.0171,4.0146,4.0179,4.0121,4.0121,4.0171,4.0171,4.0286,4.0131,3.9841,3.9292,3.8667,3.7692,3.6824,3.6118,3.5739,3.5644,3.5639,3.5622,3.56,3.56,3.5616,3.5616,3.5616,3.5498,3.4912,3.4163,3.3508,3.2786,3.1988,3.1446,3.1115,3.0771,3.0417,3.0251,3.0208,2.9843,2.9422,2.9019,2.8552,2.7666,2.7273,2.7133,2.7095,2.6905,4.0113,4.0113,4.0113,4.0113,4.0113,4.0113,4.0113,4.0113,4.0113,4.0113,4.0113,4.0113,4.0113,4.0113,4.0113,4.0113,4.0113,4.0113,4.0113,4.0113,4.0113,4.0113,4.0113,4.0113,4.0113,4.0113,4.0113,4.0113,4.0113,4.0113,4.0113,4.0113,4.0113,4.0113,4.0113,4.0113,4.0113,4.0113,4.0113,4.0113,4.0113,4.0113,4.0113,4.0113,4.0113,4.0113,4.0113,4.0113,4.0121,4.0171,4.0171,4.0179,4.0221,4.0221,4.0171,4.0146,4.0121,4.0113,4.0204,4.0336,4.0424,4.0286,4.0221,4.0229,4.0121,4.0473,4.0577,4.0744,4.0914,4.0891,4.075,4.0679,4.0625,4.0286,4.0254,4.0311,4.0368,4.0577,4.0562,4.0177,3.9723,3.9163,3.8368,3.7659,3.6938,3.6345,3.6242,3.5839,3.5734,3.5644,3.5622,3.56,3.5616,3.5616,3.543,3.503,3.4624,3.4049,3.344,3.2773,3.2337,3.1955,3.1516,3.1048,3.0935,3.0838,3.0456,3.0102,2.9673,2.9127,2.8563,2.8023,2.7933,2.7911,2.7789,4.0113,4.0113,4.0113,4.0113,4.0113,4.0113,4.0113,4.0113,4.0113,4.0113,4.0113,4.0113,4.0113,4.0113,4.0113,4.0113,4.0113,4.0113,4.0113,4.0113,4.0113,4.0113,4.0113,4.0113,4.0113,4.0113,4.0113,4.0113,4.0113,4.0113,4.0113,4.0113,4.0113,4.0113,4.0113,4.0113,4.0113,4.0113,4.0113,4.0113,4.0113,4.0113,4.0113,4.0113,4.0113,4.0113,4.0113,4.0121,4.0204,4.0311,4.0392,4.0473,4.0587,4.0666,4.0689,4.0689,4.0689,4.0618,4.0577,4.0938,4.1013,4.0861,4.0689,4.0689,4.0696,4.1059,4.1155,4.1335,4.1643,4.1534,4.1296,4.1223,4.1082,4.0791,4.0814,4.0868,4.0874,4.111,4.115,4.0744,4.0476,3.9881,3.9173,3.8572,3.7917,3.7366,3.6888,3.6464,3.6048,3.5915,3.5783,3.5689,3.5667,3.5644,3.5537,3.5295,3.4912,3.4539,3.4032,3.3525,3.2865,3.2408,3.2056,3.165,3.1314,3.1086,3.1072,3.0797,3.0393,3.0187,3.0041,2.951,2.8973,2.8662,2.8472,4.0113,4.0113,4.0113,4.0113,4.0113,4.0113,4.0113,4.0113,4.0113,4.0113,4.0113,4.0113,4.0113,4.0113,4.0113,4.0113,4.0113,4.0113,4.0113,4.0113,4.0113,4.0113,4.0113,4.0113,4.0113,4.0113,4.0113,4.0113,4.0113,4.0113,4.0113,4.0113,4.0113,4.0113,4.0113,4.0113,4.0113,4.0113,4.0113,4.0113,4.0113,4.0113,4.0113,4.0113,4.0113,4.0171,4.0204,4.0262,4.0521,4.075,4.0943,4.1268,4.1552,4.1789,4.1789,4.1746,4.1682,4.1335,4.1133,4.1512,4.1768,4.1682,4.1832,4.1814,4.1707,4.1682,4.181,4.1877,4.2083,4.1961,4.1835,4.1814,4.1771,4.1703,4.1703,4.1686,4.1664,4.1707,4.1729,4.1586,4.1484,4.0958,4.0078,3.9425,3.9171,3.8794,3.8322,3.7823,3.7311,3.6492,3.6305,3.5849,3.5783,3.5672,3.5565,3.5441,3.5261,3.4928,3.4776,3.4286,3.3609,3.2966,3.2615,3.2192,3.1582,3.1292,3.1185,3.1151,3.1075,3.0955,3.074,3.0314,2.9585,2.9157,2.8888,4.0113,4.0113,4.0113,4.0113,4.0113,4.0113,4.0113,4.0113,4.0113,4.0113,4.0113,4.0113,4.0113,4.0113,4.0113,4.0113,4.0113,4.0113,4.0113,4.0113,4.0113,4.0113,4.0113,4.0113,4.0113,4.0113,4.0113,4.0113,4.0113,4.0113,4.0113,4.0113,4.0113,4.0113,4.0113,4.0096,4.0146,4.0121,4.0146,4.0113,4.0121,4.0146,4.0146,4.0171,4.0254,4.0385,4.0601,4.0679,4.099,4.1424,4.1534,4.1707,4.1746,4.181,4.181,4.181,4.1768,4.1703,4.1682,4.2101,4.2422,4.2521,4.2715,4.2424,4.2244,4.2203,4.2422,4.2483,4.2638,4.262,4.2483,4.2404,4.2304,4.2206,4.2246,4.2324,4.2266,4.2286,4.2286,4.2134,4.2029,4.1722,4.0864,4.0781,4.0544,4.0233,3.9838,3.9302,3.8561,3.7705,3.6816,3.6346,3.6161,3.6122,3.5788,3.561,3.5492,3.5346,3.5182,3.4945,3.4387,3.3778,3.3309,3.2581,3.1752,3.1343,3.1207,3.119,3.119,3.119,3.1015,3.0658,3.0251,2.9805,2.9429,4.0113,4.0113,4.0113,4.0113,4.0113,4.0113,4.0113,4.0113,4.0113,4.0113,4.0113,4.0113,4.0113,4.0113,4.0113,4.0113,4.0113,4.0113,4.0113,4.0113,4.0113,4.0113,4.0113,4.0113,4.0113,4.0113,4.0113,4.0113,4.0113,4.0113,4.0113,4.0113,4.0113,4.0096,4.0171,4.0336,4.0466,4.0368,4.0262,4.0146,4.0196,4.0336,4.0417,4.0483,4.0587,4.0938,4.1178,4.1268,4.1578,4.2041,4.2142,4.2304,4.2404,4.2503,4.2304,4.2344,4.2464,4.2364,4.2324,4.2676,4.2939,4.3105,4.3286,4.3105,4.2922,4.2847,4.2958,4.3032,4.325,4.3357,4.3178,4.2976,4.2771,4.2544,4.2696,4.2828,4.2847,4.2865,4.2736,4.2567,4.2372,4.2141,4.1958,4.1965,4.1719,4.1124,4.0873,4.0735,3.9857,3.8816,3.773,3.6876,3.6741,3.6626,3.6291,3.5968,3.5916,3.5795,3.5531,3.5277,3.495,3.4409,3.374,3.2771,3.1735,3.1461,3.1309,3.1207,3.119,3.119,3.119,3.0958,3.0658,3.0314,3.0,4.0113,4.0113,4.0113,4.0113,4.0113,4.0113,4.0113,4.0113,4.0113,4.0113,4.0113,4.0113,4.0113,4.0113,4.0113,4.0113,4.0113,4.0113,4.0113,4.0113,4.0113,4.0113,4.0113,4.0113,4.0113,4.0113,4.0113,4.0113,4.0113,4.0113,4.0113,4.0096,4.0229,4.0262,4.0343,4.0774,4.0967,4.0943,4.0696,4.0514,4.0563,4.0744,4.1013,4.1139,4.1415,4.1789,4.1853,4.1958,4.2124,4.2539,4.2826,4.3014,4.3178,4.3321,4.3051,4.2995,4.3087,4.2995,4.2921,4.3142,4.3321,4.3427,4.3479,4.341,4.3303,4.3232,4.3286,4.3303,4.3444,4.348,4.3322,4.3268,4.3123,4.3032,4.3123,4.3196,4.3196,4.3214,4.316,4.3014,4.2978,4.2755,4.2645,4.2598,4.258,4.1937,4.1774,4.1886,4.1182,4.0052,3.8941,3.7768,3.7319,3.7189,3.6865,3.6623,3.6481,3.6295,3.6054,3.5977,3.5897,3.5107,3.4105,3.3335,3.2542,3.1791,3.1444,3.1343,3.1241,3.119,3.119,3.119,3.0978,3.0699,3.058,4.0113,4.0113,4.0113,4.0113,4.0113,4.0113,4.0113,4.0113,4.0113,4.0113,4.0113,4.0113,4.0113,4.0113,4.0113,4.0113,4.0113,4.0113,4.0113,4.0113,4.0113,4.0113,4.0113,4.0113,4.0113,4.0113,4.0113,4.0121,4.0179,4.0171,4.0146,4.0204,4.0466,4.0726,4.0756,4.1291,4.1556,4.1556,4.1534,4.1397,4.1464,4.1464,4.1617,4.1639,4.1853,4.2165,4.2304,4.25,4.2827,4.3196,4.3286,4.3392,4.3479,4.3479,4.3427,4.3375,4.341,4.3357,4.3339,4.3375,4.3462,4.3479,4.3479,4.3479,4.3479,4.3479,4.3479,4.3479,4.3479,4.3479,4.3479,4.3479,4.3479,4.3479,4.3479,4.3479,4.3479,4.3479,4.3479,4.3479,4.3479,4.3387,4.3258,4.3221,4.3222,4.3149,4.3075,4.2928,4.2324,4.1386,4.0377,3.9229,3.8096,3.7739,3.7468,3.7192,3.7022,3.6943,3.6764,3.6744,3.6744,3.5789,3.4763,3.426,3.3582,3.2701,3.193,3.1461,3.136,3.136,3.119,3.119,3.119,3.0958,3.0995,4.0113,4.0113,4.0113,4.0113,4.0113,4.0113,4.0113,4.0113,4.0113,4.0113,4.0113,4.0113,4.0113,4.0113,4.0113,4.0113,4.0113,4.0113,4.0113,4.0113,4.0113,4.0113,4.0113,4.0113,4.0113,4.0096,4.0121,4.0154,4.0417,4.0497,4.057,4.0791,4.1178,4.1335,4.1402,4.1853,4.2183,4.2221,4.2384,4.2483,4.2444,4.2344,4.2241,4.2203,4.2444,4.2696,4.2865,4.305,4.3214,4.341,4.3444,4.3462,4.3479,4.3479,4.3479,4.3462,4.3479,4.3479,4.3479,4.3479,4.3479,4.3479,4.3479,4.3479,4.3479,4.3479,4.3479,4.3479,4.3479,4.3479,4.3479,4.3479,4.3479,4.3479,4.3479,4.3479,4.3479,4.3479,4.3479,4.3479,4.3479,4.3461,4.3369,4.3351,4.3369,4.3369,4.3478,4.3478,4.2947,4.2506,4.1549,4.0663,3.9506,3.8528,3.8136,3.7808,3.7506,3.7451,3.7414,3.7209,3.6986,3.6201,3.5432,3.5012,3.4375,3.3453,3.2716,3.2273,3.1876,3.1853,3.1512,3.119,3.121,3.1232,3.119,4.0113,4.0113,4.0113,4.0113,4.0113,4.0113,4.0113,4.0113,4.0113,4.0113,4.0113,4.0113,4.0113,4.0113,4.0113,4.0113,4.0113,4.0113,4.0113,4.0113,4.0113,4.0113,4.0113,4.0113,4.0196,4.0336,4.0441,4.0703,4.0995,4.1041,4.1246,4.1707,4.1874,4.1916,4.2101,4.2442,4.2789,4.2865,4.3032,4.3339,4.3268,4.3069,4.2883,4.2976,4.3214,4.3462,4.3479,4.3479,4.3479,4.3479,4.3479,4.3479,4.3479,4.3479,4.3479,4.3479,4.3479,4.3479,4.3479,4.3479,4.3479,4.3479,4.3479,4.3479,4.3479,4.3479,4.3479,4.3479,4.3479,4.3479,4.3479,4.3479,4.3479,4.3479,4.3479,4.3479,4.3479,4.3479,4.3479,4.3479,4.3479,4.3479,4.3479,4.3479,4.3479,4.3479,4.3479,4.3479,4.3351,4.2947,4.231,4.1655,4.0854,3.9957,3.9038,3.8405,3.8035,3.7981,3.7913,3.7614,3.7288,3.6879,3.6413,3.5902,3.5178,3.4424,3.3869,3.3436,3.3017,3.2591,3.2355,3.2056,3.1411,3.1411,3.1291,4.0113,4.0113,4.0113,4.0113,4.0113,4.0113,4.0113,4.0113,4.0113,4.0113,4.0113,4.0113,4.0113,4.0113,4.0113,4.0113,4.0113,4.0096,4.0113,4.0113,4.0204,4.0171,4.0171,4.0262,4.0417,4.072,4.1082,4.1468,4.1621,4.1643,4.1668,4.1898,4.2422,4.2539,4.2617,4.2976,4.3268,4.3321,4.3321,4.3479,4.3479,4.3356,4.3374,4.3391,4.3444,4.3479,4.3479,4.3479,4.3479,4.3479,4.3479,4.3479,4.3479,4.3479,4.3479,4.3479,4.3479,4.3479,4.3479,4.3479,4.3479,4.3479,4.3479,4.3479,4.3479,4.3479,4.3479,4.3479,4.3479,4.3479,4.3479,4.3479,4.3479,4.3479,4.3479,4.3479,4.3479,4.3479,4.3479,4.3479,4.3479,4.3479,4.3479,4.3479,4.3479,4.3479,4.3479,4.3479,4.3479,4.3222,4.2965,4.247,4.1937,4.102,3.9939,3.9027,3.8597,3.8522,3.8417,3.8168,3.7999,3.7894,3.7433,3.6826,3.6324,3.5698,3.5163,3.4601,3.4155,3.3752,3.3512,3.3108,3.2297,3.1658,3.1601]}]]